<?xml version="1.0" encoding="UTF-8" standalone="no" ?>
<gpx xmlns="http://www.topografix.com/GPX/1/1" xmlns:xsi="http://www.w3.org/2001/XMLSchema-instance" xsi:schemaLocation="http://www.topografix.com/GPX/1/1 http://www.topografix.com/GPX/1/1/gpx.xsd" version="1.1" creator="VisuGPX - https://www.visugpx.com">
  <metadata>
    <name>2021-01-09-Gardiola da S.Bartolomeo v. Pesio</name>
  </metadata>
  <trk>
    <name><![CDATA[2021-01-09 14:23:56]]></name>
    <trkseg>
      <trkpt lat="44.26176" lon="7.67043">
        <ele>853.79</ele>
        <time>2021-01-09T08:25:10Z</time>
      </trkpt>
      <trkpt lat="44.26173" lon="7.67042">
        <ele>853.79</ele>
        <time>2021-01-09T08:25:26Z</time>
      </trkpt>
      <trkpt lat="44.26172" lon="7.67041">
        <ele>855.71</ele>
        <time>2021-01-09T08:25:44Z</time>
      </trkpt>
      <trkpt lat="44.26171" lon="7.67043">
        <ele>855.71</ele>
        <time>2021-01-09T08:26:11Z</time>
      </trkpt>
      <trkpt lat="44.26173" lon="7.67042">
        <ele>855.71</ele>
        <time>2021-01-09T08:26:32Z</time>
      </trkpt>
      <trkpt lat="44.26174" lon="7.67044">
        <ele>854.75</ele>
        <time>2021-01-09T08:26:41Z</time>
      </trkpt>
      <trkpt lat="44.26178" lon="7.67041">
        <ele>858.11</ele>
        <time>2021-01-09T08:27:06Z</time>
      </trkpt>
      <trkpt lat="44.26173" lon="7.67043">
        <ele>857.63</ele>
        <time>2021-01-09T08:27:19Z</time>
      </trkpt>
      <trkpt lat="44.26172" lon="7.67048">
        <ele>856.19</ele>
        <time>2021-01-09T08:27:31Z</time>
      </trkpt>
      <trkpt lat="44.26172" lon="7.67051">
        <ele>853.31</ele>
        <time>2021-01-09T08:27:48Z</time>
      </trkpt>
      <trkpt lat="44.26175" lon="7.67053">
        <ele>849.94</ele>
        <time>2021-01-09T08:28:03Z</time>
      </trkpt>
      <trkpt lat="44.26176" lon="7.67054">
        <ele>854.27</ele>
        <time>2021-01-09T08:28:27Z</time>
      </trkpt>
      <trkpt lat="44.26174" lon="7.6705">
        <ele>855.23</ele>
        <time>2021-01-09T08:28:45Z</time>
      </trkpt>
      <trkpt lat="44.26173" lon="7.67054">
        <ele>854.75</ele>
        <time>2021-01-09T08:28:54Z</time>
      </trkpt>
      <trkpt lat="44.26172" lon="7.67065">
        <ele>854.75</ele>
        <time>2021-01-09T08:29:08Z</time>
      </trkpt>
      <trkpt lat="44.26168" lon="7.67077">
        <ele>856.19</ele>
        <time>2021-01-09T08:29:21Z</time>
      </trkpt>
      <trkpt lat="44.26167" lon="7.67082">
        <ele>857.15</ele>
        <time>2021-01-09T08:29:32Z</time>
      </trkpt>
      <trkpt lat="44.26162" lon="7.67092">
        <ele>860.04</ele>
        <time>2021-01-09T08:29:44Z</time>
      </trkpt>
      <trkpt lat="44.2616" lon="7.67094">
        <ele>859.56</ele>
        <time>2021-01-09T08:29:49Z</time>
      </trkpt>
      <trkpt lat="44.26155" lon="7.67099">
        <ele>859.56</ele>
        <time>2021-01-09T08:29:59Z</time>
      </trkpt>
      <trkpt lat="44.26149" lon="7.67109">
        <ele>858.11</ele>
        <time>2021-01-09T08:30:11Z</time>
      </trkpt>
      <trkpt lat="44.26148" lon="7.6711">
        <ele>858.11</ele>
        <time>2021-01-09T08:30:12Z</time>
      </trkpt>
      <trkpt lat="44.26143" lon="7.67119">
        <ele>858.11</ele>
        <time>2021-01-09T08:30:25Z</time>
      </trkpt>
      <trkpt lat="44.26139" lon="7.6713">
        <ele>858.59</ele>
        <time>2021-01-09T08:30:39Z</time>
      </trkpt>
      <trkpt lat="44.26136" lon="7.67134">
        <ele>857.63</ele>
        <time>2021-01-09T08:30:43Z</time>
      </trkpt>
      <trkpt lat="44.26129" lon="7.67144">
        <ele>855.23</ele>
        <time>2021-01-09T08:30:56Z</time>
      </trkpt>
      <trkpt lat="44.26127" lon="7.67147">
        <ele>855.71</ele>
        <time>2021-01-09T08:31:07Z</time>
      </trkpt>
      <trkpt lat="44.2612" lon="7.67157">
        <ele>857.63</ele>
        <time>2021-01-09T08:31:22Z</time>
      </trkpt>
      <trkpt lat="44.26115" lon="7.67164">
        <ele>858.11</ele>
        <time>2021-01-09T08:31:33Z</time>
      </trkpt>
      <trkpt lat="44.26111" lon="7.6717">
        <ele>859.08</ele>
        <time>2021-01-09T08:31:43Z</time>
      </trkpt>
      <trkpt lat="44.26107" lon="7.67179">
        <ele>862.44</ele>
        <time>2021-01-09T08:31:58Z</time>
      </trkpt>
      <trkpt lat="44.261" lon="7.67191">
        <ele>864.36</ele>
        <time>2021-01-09T08:32:14Z</time>
      </trkpt>
      <trkpt lat="44.26095" lon="7.67203">
        <ele>869.17</ele>
        <time>2021-01-09T08:32:30Z</time>
      </trkpt>
      <trkpt lat="44.26092" lon="7.67211">
        <ele>871.09</ele>
        <time>2021-01-09T08:32:43Z</time>
      </trkpt>
      <trkpt lat="44.26089" lon="7.67221">
        <ele>874.46</ele>
        <time>2021-01-09T08:32:55Z</time>
      </trkpt>
      <trkpt lat="44.26085" lon="7.67228">
        <ele>877.34</ele>
        <time>2021-01-09T08:33:08Z</time>
      </trkpt>
      <trkpt lat="44.26082" lon="7.67232">
        <ele>882.15</ele>
        <time>2021-01-09T08:33:22Z</time>
      </trkpt>
      <trkpt lat="44.26075" lon="7.67246">
        <ele>884.07</ele>
        <time>2021-01-09T08:33:38Z</time>
      </trkpt>
      <trkpt lat="44.26071" lon="7.67248">
        <ele>884.07</ele>
        <time>2021-01-09T08:33:51Z</time>
      </trkpt>
      <trkpt lat="44.2606" lon="7.67248">
        <ele>885.51</ele>
        <time>2021-01-09T08:34:07Z</time>
      </trkpt>
      <trkpt lat="44.26058" lon="7.67238">
        <ele>887.91</ele>
        <time>2021-01-09T08:34:20Z</time>
      </trkpt>
      <trkpt lat="44.26058" lon="7.67234">
        <ele>886.47</ele>
        <time>2021-01-09T08:34:31Z</time>
      </trkpt>
      <trkpt lat="44.26053" lon="7.67237">
        <ele>887.43</ele>
        <time>2021-01-09T08:34:44Z</time>
      </trkpt>
      <trkpt lat="44.26047" lon="7.67246">
        <ele>888.4</ele>
        <time>2021-01-09T08:34:59Z</time>
      </trkpt>
      <trkpt lat="44.26044" lon="7.67257">
        <ele>890.32</ele>
        <time>2021-01-09T08:35:14Z</time>
      </trkpt>
      <trkpt lat="44.26041" lon="7.67268">
        <ele>891.28</ele>
        <time>2021-01-09T08:35:30Z</time>
      </trkpt>
      <trkpt lat="44.26041" lon="7.67281">
        <ele>890.8</ele>
        <time>2021-01-09T08:35:47Z</time>
      </trkpt>
      <trkpt lat="44.26043" lon="7.67295">
        <ele>893.68</ele>
        <time>2021-01-09T08:36:04Z</time>
      </trkpt>
      <trkpt lat="44.26041" lon="7.67307">
        <ele>896.09</ele>
        <time>2021-01-09T08:36:20Z</time>
      </trkpt>
      <trkpt lat="44.26041" lon="7.67316">
        <ele>898.01</ele>
        <time>2021-01-09T08:36:33Z</time>
      </trkpt>
      <trkpt lat="44.26041" lon="7.67325">
        <ele>899.45</ele>
        <time>2021-01-09T08:36:46Z</time>
      </trkpt>
      <trkpt lat="44.26039" lon="7.67333">
        <ele>903.78</ele>
        <time>2021-01-09T08:37:00Z</time>
      </trkpt>
      <trkpt lat="44.26041" lon="7.67335">
        <ele>908.1</ele>
        <time>2021-01-09T08:37:16Z</time>
      </trkpt>
      <trkpt lat="44.26044" lon="7.67339">
        <ele>910.51</ele>
        <time>2021-01-09T08:37:31Z</time>
      </trkpt>
      <trkpt lat="44.2604" lon="7.67339">
        <ele>911.95</ele>
        <time>2021-01-09T08:37:42Z</time>
      </trkpt>
      <trkpt lat="44.26036" lon="7.67339">
        <ele>914.35</ele>
        <time>2021-01-09T08:37:57Z</time>
      </trkpt>
      <trkpt lat="44.2603" lon="7.67338">
        <ele>914.35</ele>
        <time>2021-01-09T08:38:11Z</time>
      </trkpt>
      <trkpt lat="44.2603" lon="7.6734">
        <ele>911.47</ele>
        <time>2021-01-09T08:38:35Z</time>
      </trkpt>
      <trkpt lat="44.26023" lon="7.67339">
        <ele>911.95</ele>
        <time>2021-01-09T08:38:50Z</time>
      </trkpt>
      <trkpt lat="44.26022" lon="7.67339">
        <ele>913.39</ele>
        <time>2021-01-09T08:39:09Z</time>
      </trkpt>
      <trkpt lat="44.26021" lon="7.67345">
        <ele>917.72</ele>
        <time>2021-01-09T08:39:25Z</time>
      </trkpt>
      <trkpt lat="44.26019" lon="7.67359">
        <ele>917.24</ele>
        <time>2021-01-09T08:39:38Z</time>
      </trkpt>
      <trkpt lat="44.26018" lon="7.67368">
        <ele>916.75</ele>
        <time>2021-01-09T08:39:51Z</time>
      </trkpt>
      <trkpt lat="44.26021" lon="7.67378">
        <ele>912.91</ele>
        <time>2021-01-09T08:40:05Z</time>
      </trkpt>
      <trkpt lat="44.26025" lon="7.67379">
        <ele>910.99</ele>
        <time>2021-01-09T08:40:21Z</time>
      </trkpt>
      <trkpt lat="44.26027" lon="7.67381">
        <ele>910.03</ele>
        <time>2021-01-09T08:40:24Z</time>
      </trkpt>
      <trkpt lat="44.26033" lon="7.67384">
        <ele>908.58</ele>
        <time>2021-01-09T08:40:29Z</time>
      </trkpt>
      <trkpt lat="44.26032" lon="7.67396">
        <ele>907.62</ele>
        <time>2021-01-09T08:40:41Z</time>
      </trkpt>
      <trkpt lat="44.2603" lon="7.674">
        <ele>908.1</ele>
        <time>2021-01-09T08:40:58Z</time>
      </trkpt>
      <trkpt lat="44.26028" lon="7.67408">
        <ele>909.06</ele>
        <time>2021-01-09T08:41:15Z</time>
      </trkpt>
      <trkpt lat="44.26027" lon="7.67414">
        <ele>909.06</ele>
        <time>2021-01-09T08:41:25Z</time>
      </trkpt>
      <trkpt lat="44.26028" lon="7.67426">
        <ele>910.03</ele>
        <time>2021-01-09T08:41:41Z</time>
      </trkpt>
      <trkpt lat="44.26026" lon="7.67444">
        <ele>909.54</ele>
        <time>2021-01-09T08:41:59Z</time>
      </trkpt>
      <trkpt lat="44.26026" lon="7.67457">
        <ele>910.99</ele>
        <time>2021-01-09T08:42:14Z</time>
      </trkpt>
      <trkpt lat="44.26025" lon="7.6747">
        <ele>911.95</ele>
        <time>2021-01-09T08:42:31Z</time>
      </trkpt>
      <trkpt lat="44.26026" lon="7.67479">
        <ele>913.39</ele>
        <time>2021-01-09T08:42:43Z</time>
      </trkpt>
      <trkpt lat="44.26026" lon="7.6749">
        <ele>912.91</ele>
        <time>2021-01-09T08:42:57Z</time>
      </trkpt>
      <trkpt lat="44.26027" lon="7.67501">
        <ele>913.39</ele>
        <time>2021-01-09T08:43:10Z</time>
      </trkpt>
      <trkpt lat="44.26027" lon="7.67514">
        <ele>914.83</ele>
        <time>2021-01-09T08:43:28Z</time>
      </trkpt>
      <trkpt lat="44.26026" lon="7.67526">
        <ele>916.75</ele>
        <time>2021-01-09T08:43:43Z</time>
      </trkpt>
      <trkpt lat="44.26026" lon="7.67531">
        <ele>919.16</ele>
        <time>2021-01-09T08:44:00Z</time>
      </trkpt>
      <trkpt lat="44.26027" lon="7.67536">
        <ele>919.16</ele>
        <time>2021-01-09T08:44:13Z</time>
      </trkpt>
      <trkpt lat="44.2603" lon="7.67542">
        <ele>919.64</ele>
        <time>2021-01-09T08:44:24Z</time>
      </trkpt>
      <trkpt lat="44.26033" lon="7.67555">
        <ele>923</ele>
        <time>2021-01-09T08:44:39Z</time>
      </trkpt>
      <trkpt lat="44.26033" lon="7.67569">
        <ele>924.93</ele>
        <time>2021-01-09T08:44:54Z</time>
      </trkpt>
      <trkpt lat="44.26026" lon="7.67574">
        <ele>926.85</ele>
        <time>2021-01-09T08:45:09Z</time>
      </trkpt>
      <trkpt lat="44.26023" lon="7.67568">
        <ele>929.25</ele>
        <time>2021-01-09T08:45:21Z</time>
      </trkpt>
      <trkpt lat="44.26024" lon="7.67562">
        <ele>932.14</ele>
        <time>2021-01-09T08:45:40Z</time>
      </trkpt>
      <trkpt lat="44.2602" lon="7.67551">
        <ele>933.1</ele>
        <time>2021-01-09T08:45:54Z</time>
      </trkpt>
      <trkpt lat="44.26016" lon="7.67542">
        <ele>935.02</ele>
        <time>2021-01-09T08:46:09Z</time>
      </trkpt>
      <trkpt lat="44.26008" lon="7.67544">
        <ele>935.02</ele>
        <time>2021-01-09T08:46:22Z</time>
      </trkpt>
      <trkpt lat="44.26008" lon="7.67561">
        <ele>933.1</ele>
        <time>2021-01-09T08:46:37Z</time>
      </trkpt>
      <trkpt lat="44.26011" lon="7.67577">
        <ele>936.46</ele>
        <time>2021-01-09T08:46:55Z</time>
      </trkpt>
      <trkpt lat="44.26012" lon="7.6759">
        <ele>938.38</ele>
        <time>2021-01-09T08:47:09Z</time>
      </trkpt>
      <trkpt lat="44.26011" lon="7.67596">
        <ele>938.38</ele>
        <time>2021-01-09T08:47:15Z</time>
      </trkpt>
      <trkpt lat="44.26011" lon="7.67613">
        <ele>938.86</ele>
        <time>2021-01-09T08:47:30Z</time>
      </trkpt>
      <trkpt lat="44.26009" lon="7.67627">
        <ele>940.79</ele>
        <time>2021-01-09T08:47:45Z</time>
      </trkpt>
      <trkpt lat="44.26008" lon="7.67642">
        <ele>941.27</ele>
        <time>2021-01-09T08:48:00Z</time>
      </trkpt>
      <trkpt lat="44.2601" lon="7.67661">
        <ele>940.79</ele>
        <time>2021-01-09T08:48:16Z</time>
      </trkpt>
      <trkpt lat="44.26009" lon="7.67674">
        <ele>939.35</ele>
        <time>2021-01-09T08:48:31Z</time>
      </trkpt>
      <trkpt lat="44.2601" lon="7.6769">
        <ele>939.35</ele>
        <time>2021-01-09T08:48:49Z</time>
      </trkpt>
      <trkpt lat="44.26008" lon="7.677">
        <ele>944.63</ele>
        <time>2021-01-09T08:49:05Z</time>
      </trkpt>
      <trkpt lat="44.26003" lon="7.67699">
        <ele>946.07</ele>
        <time>2021-01-09T08:49:17Z</time>
      </trkpt>
      <trkpt lat="44.26003" lon="7.67692">
        <ele>946.07</ele>
        <time>2021-01-09T08:49:24Z</time>
      </trkpt>
      <trkpt lat="44.26002" lon="7.67681">
        <ele>945.11</ele>
        <time>2021-01-09T08:49:38Z</time>
      </trkpt>
      <trkpt lat="44.25994" lon="7.67678">
        <ele>945.11</ele>
        <time>2021-01-09T08:49:52Z</time>
      </trkpt>
      <trkpt lat="44.25991" lon="7.67694">
        <ele>945.11</ele>
        <time>2021-01-09T08:50:08Z</time>
      </trkpt>
      <trkpt lat="44.25991" lon="7.67701">
        <ele>951.36</ele>
        <time>2021-01-09T08:50:28Z</time>
      </trkpt>
      <trkpt lat="44.25987" lon="7.67714">
        <ele>953.28</ele>
        <time>2021-01-09T08:50:44Z</time>
      </trkpt>
      <trkpt lat="44.2598" lon="7.6773">
        <ele>953.28</ele>
        <time>2021-01-09T08:51:01Z</time>
      </trkpt>
      <trkpt lat="44.25977" lon="7.67743">
        <ele>955.69</ele>
        <time>2021-01-09T08:51:18Z</time>
      </trkpt>
      <trkpt lat="44.25975" lon="7.67749">
        <ele>959.53</ele>
        <time>2021-01-09T08:51:35Z</time>
      </trkpt>
      <trkpt lat="44.25973" lon="7.67763">
        <ele>959.53</ele>
        <time>2021-01-09T08:51:48Z</time>
      </trkpt>
      <trkpt lat="44.25968" lon="7.67776">
        <ele>958.57</ele>
        <time>2021-01-09T08:52:02Z</time>
      </trkpt>
      <trkpt lat="44.25966" lon="7.67765">
        <ele>961.46</ele>
        <time>2021-01-09T08:52:19Z</time>
      </trkpt>
      <trkpt lat="44.25969" lon="7.67749">
        <ele>962.9</ele>
        <time>2021-01-09T08:52:34Z</time>
      </trkpt>
      <trkpt lat="44.25971" lon="7.67736">
        <ele>962.9</ele>
        <time>2021-01-09T08:52:49Z</time>
      </trkpt>
      <trkpt lat="44.25971" lon="7.67727">
        <ele>963.38</ele>
        <time>2021-01-09T08:53:05Z</time>
      </trkpt>
      <trkpt lat="44.25971" lon="7.67711">
        <ele>963.38</ele>
        <time>2021-01-09T08:53:19Z</time>
      </trkpt>
      <trkpt lat="44.25968" lon="7.67696">
        <ele>960.49</ele>
        <time>2021-01-09T08:53:34Z</time>
      </trkpt>
      <trkpt lat="44.25968" lon="7.67684">
        <ele>959.53</ele>
        <time>2021-01-09T08:53:48Z</time>
      </trkpt>
      <trkpt lat="44.25969" lon="7.67673">
        <ele>959.05</ele>
        <time>2021-01-09T08:54:02Z</time>
      </trkpt>
      <trkpt lat="44.25969" lon="7.67655">
        <ele>959.53</ele>
        <time>2021-01-09T08:54:19Z</time>
      </trkpt>
      <trkpt lat="44.25966" lon="7.67641">
        <ele>961.94</ele>
        <time>2021-01-09T08:54:32Z</time>
      </trkpt>
      <trkpt lat="44.25963" lon="7.67625">
        <ele>963.38</ele>
        <time>2021-01-09T08:54:48Z</time>
      </trkpt>
      <trkpt lat="44.25961" lon="7.67611">
        <ele>964.82</ele>
        <time>2021-01-09T08:55:04Z</time>
      </trkpt>
      <trkpt lat="44.25959" lon="7.67604">
        <ele>965.78</ele>
        <time>2021-01-09T08:55:17Z</time>
      </trkpt>
      <trkpt lat="44.25955" lon="7.67593">
        <ele>968.18</ele>
        <time>2021-01-09T08:55:30Z</time>
      </trkpt>
      <trkpt lat="44.2595" lon="7.67576">
        <ele>970.59</ele>
        <time>2021-01-09T08:55:48Z</time>
      </trkpt>
      <trkpt lat="44.25943" lon="7.67564">
        <ele>968.67</ele>
        <time>2021-01-09T08:56:03Z</time>
      </trkpt>
      <trkpt lat="44.25938" lon="7.67553">
        <ele>968.67</ele>
        <time>2021-01-09T08:56:17Z</time>
      </trkpt>
      <trkpt lat="44.25932" lon="7.67545">
        <ele>970.59</ele>
        <time>2021-01-09T08:56:29Z</time>
      </trkpt>
      <trkpt lat="44.25924" lon="7.67537">
        <ele>972.51</ele>
        <time>2021-01-09T08:56:42Z</time>
      </trkpt>
      <trkpt lat="44.25917" lon="7.6753">
        <ele>978.76</ele>
        <time>2021-01-09T08:56:56Z</time>
      </trkpt>
      <trkpt lat="44.25909" lon="7.67529">
        <ele>981.16</ele>
        <time>2021-01-09T08:57:09Z</time>
      </trkpt>
      <trkpt lat="44.25899" lon="7.67531">
        <ele>980.68</ele>
        <time>2021-01-09T08:57:23Z</time>
      </trkpt>
      <trkpt lat="44.25893" lon="7.67529">
        <ele>982.6</ele>
        <time>2021-01-09T08:57:36Z</time>
      </trkpt>
      <trkpt lat="44.25893" lon="7.67517">
        <ele>984.53</ele>
        <time>2021-01-09T08:57:51Z</time>
      </trkpt>
      <trkpt lat="44.25898" lon="7.67507">
        <ele>986.45</ele>
        <time>2021-01-09T08:58:04Z</time>
      </trkpt>
      <trkpt lat="44.25902" lon="7.67501">
        <ele>987.41</ele>
        <time>2021-01-09T08:58:14Z</time>
      </trkpt>
      <trkpt lat="44.25908" lon="7.67494">
        <ele>990.3</ele>
        <time>2021-01-09T08:58:26Z</time>
      </trkpt>
      <trkpt lat="44.2591" lon="7.67491">
        <ele>989.81</ele>
        <time>2021-01-09T08:58:29Z</time>
      </trkpt>
      <trkpt lat="44.25912" lon="7.67477">
        <ele>989.81</ele>
        <time>2021-01-09T08:58:41Z</time>
      </trkpt>
      <trkpt lat="44.25909" lon="7.67469">
        <ele>989.81</ele>
        <time>2021-01-09T08:58:53Z</time>
      </trkpt>
      <trkpt lat="44.25908" lon="7.67467">
        <ele>989.33</ele>
        <time>2021-01-09T08:58:55Z</time>
      </trkpt>
      <trkpt lat="44.25901" lon="7.67457">
        <ele>985.01</ele>
        <time>2021-01-09T08:59:08Z</time>
      </trkpt>
      <trkpt lat="44.25897" lon="7.67448">
        <ele>983.57</ele>
        <time>2021-01-09T08:59:19Z</time>
      </trkpt>
      <trkpt lat="44.25896" lon="7.67443">
        <ele>980.68</ele>
        <time>2021-01-09T08:59:34Z</time>
      </trkpt>
      <trkpt lat="44.25893" lon="7.67436">
        <ele>984.05</ele>
        <time>2021-01-09T08:59:50Z</time>
      </trkpt>
      <trkpt lat="44.2589" lon="7.67427">
        <ele>984.05</ele>
        <time>2021-01-09T09:00:03Z</time>
      </trkpt>
      <trkpt lat="44.25888" lon="7.67415">
        <ele>981.16</ele>
        <time>2021-01-09T09:00:17Z</time>
      </trkpt>
      <trkpt lat="44.25885" lon="7.67404">
        <ele>984.05</ele>
        <time>2021-01-09T09:00:30Z</time>
      </trkpt>
      <trkpt lat="44.25879" lon="7.67391">
        <ele>983.57</ele>
        <time>2021-01-09T09:00:45Z</time>
      </trkpt>
      <trkpt lat="44.25873" lon="7.67379">
        <ele>984.05</ele>
        <time>2021-01-09T09:00:59Z</time>
      </trkpt>
      <trkpt lat="44.25872" lon="7.67379">
        <ele>985.01</ele>
        <time>2021-01-09T09:01:15Z</time>
      </trkpt>
      <trkpt lat="44.2587" lon="7.67373">
        <ele>984.53</ele>
        <time>2021-01-09T09:01:26Z</time>
      </trkpt>
      <trkpt lat="44.25867" lon="7.67365">
        <ele>987.41</ele>
        <time>2021-01-09T09:01:39Z</time>
      </trkpt>
      <trkpt lat="44.25865" lon="7.67356">
        <ele>987.89</ele>
        <time>2021-01-09T09:01:52Z</time>
      </trkpt>
      <trkpt lat="44.25861" lon="7.67344">
        <ele>986.45</ele>
        <time>2021-01-09T09:02:06Z</time>
      </trkpt>
      <trkpt lat="44.2586" lon="7.67343">
        <ele>985.97</ele>
        <time>2021-01-09T09:02:18Z</time>
      </trkpt>
      <trkpt lat="44.25854" lon="7.67335">
        <ele>986.93</ele>
        <time>2021-01-09T09:02:30Z</time>
      </trkpt>
      <trkpt lat="44.25848" lon="7.67326">
        <ele>987.89</ele>
        <time>2021-01-09T09:02:42Z</time>
      </trkpt>
      <trkpt lat="44.25841" lon="7.67322">
        <ele>992.22</ele>
        <time>2021-01-09T09:02:51Z</time>
      </trkpt>
      <trkpt lat="44.25836" lon="7.67319">
        <ele>997.02</ele>
        <time>2021-01-09T09:03:06Z</time>
      </trkpt>
      <trkpt lat="44.25835" lon="7.67319">
        <ele>997.02</ele>
        <time>2021-01-09T09:03:07Z</time>
      </trkpt>
      <trkpt lat="44.25825" lon="7.67316">
        <ele>999.43</ele>
        <time>2021-01-09T09:03:20Z</time>
      </trkpt>
      <trkpt lat="44.25821" lon="7.67314">
        <ele>1000.39</ele>
        <time>2021-01-09T09:03:32Z</time>
      </trkpt>
      <trkpt lat="44.25815" lon="7.67312">
        <ele>1003.75</ele>
        <time>2021-01-09T09:03:45Z</time>
      </trkpt>
      <trkpt lat="44.25806" lon="7.67313">
        <ele>1005.2</ele>
        <time>2021-01-09T09:04:00Z</time>
      </trkpt>
      <trkpt lat="44.25796" lon="7.67302">
        <ele>1005.68</ele>
        <time>2021-01-09T09:04:15Z</time>
      </trkpt>
      <trkpt lat="44.25789" lon="7.67291">
        <ele>1008.08</ele>
        <time>2021-01-09T09:04:30Z</time>
      </trkpt>
      <trkpt lat="44.2578" lon="7.67279">
        <ele>1009.04</ele>
        <time>2021-01-09T09:04:48Z</time>
      </trkpt>
      <trkpt lat="44.2577" lon="7.67267">
        <ele>1010.48</ele>
        <time>2021-01-09T09:05:03Z</time>
      </trkpt>
      <trkpt lat="44.25768" lon="7.67258">
        <ele>1011.93</ele>
        <time>2021-01-09T09:05:16Z</time>
      </trkpt>
      <trkpt lat="44.25767" lon="7.67244">
        <ele>1013.37</ele>
        <time>2021-01-09T09:05:31Z</time>
      </trkpt>
      <trkpt lat="44.25765" lon="7.67229">
        <ele>1015.29</ele>
        <time>2021-01-09T09:05:46Z</time>
      </trkpt>
      <trkpt lat="44.25763" lon="7.67217">
        <ele>1013.85</ele>
        <time>2021-01-09T09:06:01Z</time>
      </trkpt>
      <trkpt lat="44.25761" lon="7.67204">
        <ele>1011.44</ele>
        <time>2021-01-09T09:06:18Z</time>
      </trkpt>
      <trkpt lat="44.25758" lon="7.67194">
        <ele>1010.96</ele>
        <time>2021-01-09T09:06:33Z</time>
      </trkpt>
      <trkpt lat="44.25755" lon="7.67197">
        <ele>1013.37</ele>
        <time>2021-01-09T09:06:46Z</time>
      </trkpt>
      <trkpt lat="44.25756" lon="7.67193">
        <ele>1015.29</ele>
        <time>2021-01-09T09:07:05Z</time>
      </trkpt>
      <trkpt lat="44.25753" lon="7.67193">
        <ele>1013.85</ele>
        <time>2021-01-09T09:07:17Z</time>
      </trkpt>
      <trkpt lat="44.25752" lon="7.6719">
        <ele>1015.29</ele>
        <time>2021-01-09T09:07:35Z</time>
      </trkpt>
      <trkpt lat="44.25754" lon="7.67193">
        <ele>1015.29</ele>
        <time>2021-01-09T09:07:49Z</time>
      </trkpt>
      <trkpt lat="44.25755" lon="7.67194">
        <ele>1014.33</ele>
        <time>2021-01-09T09:08:16Z</time>
      </trkpt>
      <trkpt lat="44.2576" lon="7.67189">
        <ele>1023.94</ele>
        <time>2021-01-09T09:08:47Z</time>
      </trkpt>
      <trkpt lat="44.2576" lon="7.6718">
        <ele>1031.15</ele>
        <time>2021-01-09T09:09:15Z</time>
      </trkpt>
      <trkpt lat="44.25755" lon="7.67181">
        <ele>1031.63</ele>
        <time>2021-01-09T09:09:36Z</time>
      </trkpt>
      <trkpt lat="44.25748" lon="7.6718">
        <ele>1022.5</ele>
        <time>2021-01-09T09:09:48Z</time>
      </trkpt>
      <trkpt lat="44.25745" lon="7.67177">
        <ele>1017.21</ele>
        <time>2021-01-09T09:10:03Z</time>
      </trkpt>
      <trkpt lat="44.25743" lon="7.67174">
        <ele>1018.17</ele>
        <time>2021-01-09T09:10:25Z</time>
      </trkpt>
      <trkpt lat="44.25742" lon="7.67178">
        <ele>1017.21</ele>
        <time>2021-01-09T09:10:45Z</time>
      </trkpt>
      <trkpt lat="44.25745" lon="7.67184">
        <ele>1016.73</ele>
        <time>2021-01-09T09:11:15Z</time>
      </trkpt>
      <trkpt lat="44.25745" lon="7.67182">
        <ele>1016.25</ele>
        <time>2021-01-09T09:11:34Z</time>
      </trkpt>
      <trkpt lat="44.25744" lon="7.67185">
        <ele>1016.73</ele>
        <time>2021-01-09T09:11:54Z</time>
      </trkpt>
      <trkpt lat="44.25737" lon="7.67189">
        <ele>1018.17</ele>
        <time>2021-01-09T09:12:10Z</time>
      </trkpt>
      <trkpt lat="44.2573" lon="7.67189">
        <ele>1018.17</ele>
        <time>2021-01-09T09:12:27Z</time>
      </trkpt>
      <trkpt lat="44.25735" lon="7.67202">
        <ele>1020.1</ele>
        <time>2021-01-09T09:12:42Z</time>
      </trkpt>
      <trkpt lat="44.25729" lon="7.67206">
        <ele>1021.54</ele>
        <time>2021-01-09T09:12:59Z</time>
      </trkpt>
      <trkpt lat="44.25724" lon="7.67211">
        <ele>1024.42</ele>
        <time>2021-01-09T09:13:15Z</time>
      </trkpt>
      <trkpt lat="44.25722" lon="7.67214">
        <ele>1022.98</ele>
        <time>2021-01-09T09:13:29Z</time>
      </trkpt>
      <trkpt lat="44.25714" lon="7.67213">
        <ele>1025.38</ele>
        <time>2021-01-09T09:13:46Z</time>
      </trkpt>
      <trkpt lat="44.25708" lon="7.67216">
        <ele>1027.79</ele>
        <time>2021-01-09T09:14:02Z</time>
      </trkpt>
      <trkpt lat="44.25703" lon="7.67227">
        <ele>1030.19</ele>
        <time>2021-01-09T09:14:17Z</time>
      </trkpt>
      <trkpt lat="44.25699" lon="7.67237">
        <ele>1032.11</ele>
        <time>2021-01-09T09:14:33Z</time>
      </trkpt>
      <trkpt lat="44.25696" lon="7.67239">
        <ele>1034.04</ele>
        <time>2021-01-09T09:14:49Z</time>
      </trkpt>
      <trkpt lat="44.2569" lon="7.67246">
        <ele>1035.96</ele>
        <time>2021-01-09T09:15:05Z</time>
      </trkpt>
      <trkpt lat="44.25683" lon="7.67252">
        <ele>1037.88</ele>
        <time>2021-01-09T09:15:19Z</time>
      </trkpt>
      <trkpt lat="44.25677" lon="7.67262">
        <ele>1041.25</ele>
        <time>2021-01-09T09:15:35Z</time>
      </trkpt>
      <trkpt lat="44.25668" lon="7.67273">
        <ele>1044.61</ele>
        <time>2021-01-09T09:15:50Z</time>
      </trkpt>
      <trkpt lat="44.25663" lon="7.67278">
        <ele>1046.05</ele>
        <time>2021-01-09T09:16:03Z</time>
      </trkpt>
      <trkpt lat="44.25654" lon="7.67287">
        <ele>1048.45</ele>
        <time>2021-01-09T09:16:19Z</time>
      </trkpt>
      <trkpt lat="44.25649" lon="7.67296">
        <ele>1051.34</ele>
        <time>2021-01-09T09:16:36Z</time>
      </trkpt>
      <trkpt lat="44.25645" lon="7.67305">
        <ele>1051.34</ele>
        <time>2021-01-09T09:16:49Z</time>
      </trkpt>
      <trkpt lat="44.2564" lon="7.67312">
        <ele>1052.3</ele>
        <time>2021-01-09T09:17:05Z</time>
      </trkpt>
      <trkpt lat="44.25634" lon="7.67317">
        <ele>1053.74</ele>
        <time>2021-01-09T09:17:18Z</time>
      </trkpt>
      <trkpt lat="44.25623" lon="7.67324">
        <ele>1059.03</ele>
        <time>2021-01-09T09:17:38Z</time>
      </trkpt>
      <trkpt lat="44.25617" lon="7.6733">
        <ele>1061.91</ele>
        <time>2021-01-09T09:17:58Z</time>
      </trkpt>
      <trkpt lat="44.25615" lon="7.67336">
        <ele>1061.43</ele>
        <time>2021-01-09T09:18:10Z</time>
      </trkpt>
      <trkpt lat="44.25612" lon="7.67345">
        <ele>1063.84</ele>
        <time>2021-01-09T09:18:26Z</time>
      </trkpt>
      <trkpt lat="44.2561" lon="7.67351">
        <ele>1065.28</ele>
        <time>2021-01-09T09:18:38Z</time>
      </trkpt>
      <trkpt lat="44.25606" lon="7.67343">
        <ele>1066.72</ele>
        <time>2021-01-09T09:18:52Z</time>
      </trkpt>
      <trkpt lat="44.25598" lon="7.67342">
        <ele>1067.68</ele>
        <time>2021-01-09T09:19:04Z</time>
      </trkpt>
      <trkpt lat="44.25594" lon="7.67344">
        <ele>1069.12</ele>
        <time>2021-01-09T09:19:20Z</time>
      </trkpt>
      <trkpt lat="44.25589" lon="7.67351">
        <ele>1067.68</ele>
        <time>2021-01-09T09:19:34Z</time>
      </trkpt>
      <trkpt lat="44.25593" lon="7.67362">
        <ele>1070.57</ele>
        <time>2021-01-09T09:19:51Z</time>
      </trkpt>
      <trkpt lat="44.25591" lon="7.67379">
        <ele>1074.89</ele>
        <time>2021-01-09T09:20:09Z</time>
      </trkpt>
      <trkpt lat="44.25588" lon="7.67387">
        <ele>1074.41</ele>
        <time>2021-01-09T09:20:24Z</time>
      </trkpt>
      <trkpt lat="44.25581" lon="7.67384">
        <ele>1076.81</ele>
        <time>2021-01-09T09:20:42Z</time>
      </trkpt>
      <trkpt lat="44.25583" lon="7.67393">
        <ele>1080.66</ele>
        <time>2021-01-09T09:21:00Z</time>
      </trkpt>
      <trkpt lat="44.25582" lon="7.67407">
        <ele>1085.95</ele>
        <time>2021-01-09T09:21:18Z</time>
      </trkpt>
      <trkpt lat="44.25583" lon="7.67414">
        <ele>1090.75</ele>
        <time>2021-01-09T09:21:35Z</time>
      </trkpt>
      <trkpt lat="44.25573" lon="7.67404">
        <ele>1085.95</ele>
        <time>2021-01-09T09:21:50Z</time>
      </trkpt>
      <trkpt lat="44.25565" lon="7.67408">
        <ele>1085.95</ele>
        <time>2021-01-09T09:22:03Z</time>
      </trkpt>
      <trkpt lat="44.25565" lon="7.67428">
        <ele>1089.79</ele>
        <time>2021-01-09T09:22:20Z</time>
      </trkpt>
      <trkpt lat="44.2557" lon="7.67433">
        <ele>1091.23</ele>
        <time>2021-01-09T09:22:33Z</time>
      </trkpt>
      <trkpt lat="44.2557" lon="7.67445">
        <ele>1093.64</ele>
        <time>2021-01-09T09:22:53Z</time>
      </trkpt>
      <trkpt lat="44.25564" lon="7.67449">
        <ele>1094.6</ele>
        <time>2021-01-09T09:23:11Z</time>
      </trkpt>
      <trkpt lat="44.25564" lon="7.67455">
        <ele>1097.96</ele>
        <time>2021-01-09T09:23:24Z</time>
      </trkpt>
      <trkpt lat="44.25564" lon="7.67467">
        <ele>1103.25</ele>
        <time>2021-01-09T09:23:40Z</time>
      </trkpt>
      <trkpt lat="44.25556" lon="7.67473">
        <ele>1099.4</ele>
        <time>2021-01-09T09:23:55Z</time>
      </trkpt>
      <trkpt lat="44.25554" lon="7.67467">
        <ele>1101.33</ele>
        <time>2021-01-09T09:24:10Z</time>
      </trkpt>
      <trkpt lat="44.25553" lon="7.67457">
        <ele>1104.69</ele>
        <time>2021-01-09T09:24:25Z</time>
      </trkpt>
      <trkpt lat="44.25551" lon="7.67455">
        <ele>1108.06</ele>
        <time>2021-01-09T09:24:43Z</time>
      </trkpt>
      <trkpt lat="44.25541" lon="7.67458">
        <ele>1109.02</ele>
        <time>2021-01-09T09:25:03Z</time>
      </trkpt>
      <trkpt lat="44.25533" lon="7.6746">
        <ele>1111.9</ele>
        <time>2021-01-09T09:25:21Z</time>
      </trkpt>
      <trkpt lat="44.25529" lon="7.67458">
        <ele>1115.27</ele>
        <time>2021-01-09T09:25:35Z</time>
      </trkpt>
      <trkpt lat="44.25532" lon="7.67473">
        <ele>1114.31</ele>
        <time>2021-01-09T09:25:47Z</time>
      </trkpt>
      <trkpt lat="44.25534" lon="7.67481">
        <ele>1111.9</ele>
        <time>2021-01-09T09:26:03Z</time>
      </trkpt>
      <trkpt lat="44.25524" lon="7.67481">
        <ele>1111.42</ele>
        <time>2021-01-09T09:26:19Z</time>
      </trkpt>
      <trkpt lat="44.2552" lon="7.67482">
        <ele>1115.27</ele>
        <time>2021-01-09T09:26:37Z</time>
      </trkpt>
      <trkpt lat="44.25524" lon="7.67492">
        <ele>1117.19</ele>
        <time>2021-01-09T09:26:51Z</time>
      </trkpt>
      <trkpt lat="44.25528" lon="7.67507">
        <ele>1117.67</ele>
        <time>2021-01-09T09:27:09Z</time>
      </trkpt>
      <trkpt lat="44.25529" lon="7.6751">
        <ele>1119.59</ele>
        <time>2021-01-09T09:27:26Z</time>
      </trkpt>
      <trkpt lat="44.25531" lon="7.67517">
        <ele>1121.52</ele>
        <time>2021-01-09T09:27:45Z</time>
      </trkpt>
      <trkpt lat="44.25534" lon="7.67526">
        <ele>1124.88</ele>
        <time>2021-01-09T09:28:02Z</time>
      </trkpt>
      <trkpt lat="44.25539" lon="7.67531">
        <ele>1132.57</ele>
        <time>2021-01-09T09:28:15Z</time>
      </trkpt>
      <trkpt lat="44.25538" lon="7.67541">
        <ele>1135.45</ele>
        <time>2021-01-09T09:28:32Z</time>
      </trkpt>
      <trkpt lat="44.25533" lon="7.6754">
        <ele>1134.01</ele>
        <time>2021-01-09T09:28:48Z</time>
      </trkpt>
      <trkpt lat="44.25522" lon="7.67535">
        <ele>1134.97</ele>
        <time>2021-01-09T09:29:04Z</time>
      </trkpt>
      <trkpt lat="44.25517" lon="7.67533">
        <ele>1137.86</ele>
        <time>2021-01-09T09:29:22Z</time>
      </trkpt>
      <trkpt lat="44.25514" lon="7.67536">
        <ele>1137.86</ele>
        <time>2021-01-09T09:29:39Z</time>
      </trkpt>
      <trkpt lat="44.25514" lon="7.67549">
        <ele>1137.38</ele>
        <time>2021-01-09T09:29:55Z</time>
      </trkpt>
      <trkpt lat="44.25511" lon="7.6755">
        <ele>1139.3</ele>
        <time>2021-01-09T09:30:16Z</time>
      </trkpt>
      <trkpt lat="44.25506" lon="7.67558">
        <ele>1141.7</ele>
        <time>2021-01-09T09:30:31Z</time>
      </trkpt>
      <trkpt lat="44.25511" lon="7.67572">
        <ele>1145.07</ele>
        <time>2021-01-09T09:30:48Z</time>
      </trkpt>
      <trkpt lat="44.25521" lon="7.67583">
        <ele>1148.91</ele>
        <time>2021-01-09T09:31:05Z</time>
      </trkpt>
      <trkpt lat="44.25526" lon="7.67589">
        <ele>1148.91</ele>
        <time>2021-01-09T09:31:19Z</time>
      </trkpt>
      <trkpt lat="44.25533" lon="7.67597">
        <ele>1152.76</ele>
        <time>2021-01-09T09:31:34Z</time>
      </trkpt>
      <trkpt lat="44.25542" lon="7.67606">
        <ele>1154.68</ele>
        <time>2021-01-09T09:31:48Z</time>
      </trkpt>
      <trkpt lat="44.25546" lon="7.67614">
        <ele>1153.72</ele>
        <time>2021-01-09T09:32:03Z</time>
      </trkpt>
      <trkpt lat="44.2555" lon="7.67623">
        <ele>1155.16</ele>
        <time>2021-01-09T09:32:19Z</time>
      </trkpt>
      <trkpt lat="44.25554" lon="7.67632">
        <ele>1157.56</ele>
        <time>2021-01-09T09:32:36Z</time>
      </trkpt>
      <trkpt lat="44.25545" lon="7.67633">
        <ele>1155.16</ele>
        <time>2021-01-09T09:32:54Z</time>
      </trkpt>
      <trkpt lat="44.25535" lon="7.67642">
        <ele>1155.64</ele>
        <time>2021-01-09T09:33:14Z</time>
      </trkpt>
      <trkpt lat="44.25527" lon="7.6765">
        <ele>1161.41</ele>
        <time>2021-01-09T09:33:30Z</time>
      </trkpt>
      <trkpt lat="44.2552" lon="7.67658">
        <ele>1164.77</ele>
        <time>2021-01-09T09:33:48Z</time>
      </trkpt>
      <trkpt lat="44.25509" lon="7.67666">
        <ele>1168.14</ele>
        <time>2021-01-09T09:34:05Z</time>
      </trkpt>
      <trkpt lat="44.25501" lon="7.67672">
        <ele>1173.91</ele>
        <time>2021-01-09T09:34:24Z</time>
      </trkpt>
      <trkpt lat="44.25492" lon="7.67676">
        <ele>1178.23</ele>
        <time>2021-01-09T09:34:44Z</time>
      </trkpt>
      <trkpt lat="44.25491" lon="7.67685">
        <ele>1181.12</ele>
        <time>2021-01-09T09:35:01Z</time>
      </trkpt>
      <trkpt lat="44.25493" lon="7.67693">
        <ele>1184.48</ele>
        <time>2021-01-09T09:35:22Z</time>
      </trkpt>
      <trkpt lat="44.255" lon="7.67705">
        <ele>1185.44</ele>
        <time>2021-01-09T09:35:40Z</time>
      </trkpt>
      <trkpt lat="44.25499" lon="7.67722">
        <ele>1188.81</ele>
        <time>2021-01-09T09:35:58Z</time>
      </trkpt>
      <trkpt lat="44.25495" lon="7.67732">
        <ele>1189.77</ele>
        <time>2021-01-09T09:36:16Z</time>
      </trkpt>
      <trkpt lat="44.25492" lon="7.67738">
        <ele>1191.21</ele>
        <time>2021-01-09T09:36:33Z</time>
      </trkpt>
      <trkpt lat="44.25482" lon="7.67734">
        <ele>1191.21</ele>
        <time>2021-01-09T09:36:49Z</time>
      </trkpt>
      <trkpt lat="44.25474" lon="7.67724">
        <ele>1191.69</ele>
        <time>2021-01-09T09:37:05Z</time>
      </trkpt>
      <trkpt lat="44.25464" lon="7.6772">
        <ele>1193.61</ele>
        <time>2021-01-09T09:37:21Z</time>
      </trkpt>
      <trkpt lat="44.25456" lon="7.67722">
        <ele>1195.06</ele>
        <time>2021-01-09T09:37:34Z</time>
      </trkpt>
      <trkpt lat="44.25448" lon="7.67726">
        <ele>1196.98</ele>
        <time>2021-01-09T09:37:51Z</time>
      </trkpt>
      <trkpt lat="44.25444" lon="7.67733">
        <ele>1198.9</ele>
        <time>2021-01-09T09:38:08Z</time>
      </trkpt>
      <trkpt lat="44.25436" lon="7.67741">
        <ele>1204.19</ele>
        <time>2021-01-09T09:38:23Z</time>
      </trkpt>
      <trkpt lat="44.25435" lon="7.67743">
        <ele>1204.67</ele>
        <time>2021-01-09T09:38:43Z</time>
      </trkpt>
      <trkpt lat="44.25437" lon="7.67755">
        <ele>1209</ele>
        <time>2021-01-09T09:39:00Z</time>
      </trkpt>
      <trkpt lat="44.25437" lon="7.67767">
        <ele>1214.76</ele>
        <time>2021-01-09T09:39:19Z</time>
      </trkpt>
      <trkpt lat="44.25433" lon="7.67767">
        <ele>1216.69</ele>
        <time>2021-01-09T09:39:40Z</time>
      </trkpt>
      <trkpt lat="44.25432" lon="7.67776">
        <ele>1215.24</ele>
        <time>2021-01-09T09:39:56Z</time>
      </trkpt>
      <trkpt lat="44.25433" lon="7.67785">
        <ele>1216.21</ele>
        <time>2021-01-09T09:40:12Z</time>
      </trkpt>
      <trkpt lat="44.25435" lon="7.67802">
        <ele>1215.24</ele>
        <time>2021-01-09T09:40:29Z</time>
      </trkpt>
      <trkpt lat="44.25436" lon="7.67815">
        <ele>1217.17</ele>
        <time>2021-01-09T09:40:43Z</time>
      </trkpt>
      <trkpt lat="44.25431" lon="7.67833">
        <ele>1219.57</ele>
        <time>2021-01-09T09:40:59Z</time>
      </trkpt>
      <trkpt lat="44.25433" lon="7.67848">
        <ele>1216.21</ele>
        <time>2021-01-09T09:41:17Z</time>
      </trkpt>
      <trkpt lat="44.25429" lon="7.67862">
        <ele>1215.72</ele>
        <time>2021-01-09T09:41:35Z</time>
      </trkpt>
      <trkpt lat="44.25426" lon="7.67858">
        <ele>1218.13</ele>
        <time>2021-01-09T09:41:50Z</time>
      </trkpt>
      <trkpt lat="44.25422" lon="7.67869">
        <ele>1219.57</ele>
        <time>2021-01-09T09:42:05Z</time>
      </trkpt>
      <trkpt lat="44.25415" lon="7.67881">
        <ele>1221.97</ele>
        <time>2021-01-09T09:42:17Z</time>
      </trkpt>
      <trkpt lat="44.25406" lon="7.67896">
        <ele>1220.53</ele>
        <time>2021-01-09T09:42:31Z</time>
      </trkpt>
      <trkpt lat="44.254" lon="7.67908">
        <ele>1220.05</ele>
        <time>2021-01-09T09:42:43Z</time>
      </trkpt>
      <trkpt lat="44.25395" lon="7.67918">
        <ele>1220.05</ele>
        <time>2021-01-09T09:42:50Z</time>
      </trkpt>
      <trkpt lat="44.25384" lon="7.67929">
        <ele>1220.53</ele>
        <time>2021-01-09T09:43:06Z</time>
      </trkpt>
      <trkpt lat="44.25374" lon="7.67931">
        <ele>1219.57</ele>
        <time>2021-01-09T09:43:19Z</time>
      </trkpt>
      <trkpt lat="44.25376" lon="7.67944">
        <ele>1215.72</ele>
        <time>2021-01-09T09:43:33Z</time>
      </trkpt>
      <trkpt lat="44.2537" lon="7.67955">
        <ele>1219.09</ele>
        <time>2021-01-09T09:43:52Z</time>
      </trkpt>
      <trkpt lat="44.25359" lon="7.67966">
        <ele>1221.01</ele>
        <time>2021-01-09T09:44:11Z</time>
      </trkpt>
      <trkpt lat="44.25352" lon="7.67983">
        <ele>1221.49</ele>
        <time>2021-01-09T09:44:30Z</time>
      </trkpt>
      <trkpt lat="44.25349" lon="7.67996">
        <ele>1222.45</ele>
        <time>2021-01-09T09:44:45Z</time>
      </trkpt>
      <trkpt lat="44.25342" lon="7.6801">
        <ele>1221.97</ele>
        <time>2021-01-09T09:45:01Z</time>
      </trkpt>
      <trkpt lat="44.2534" lon="7.68021">
        <ele>1223.42</ele>
        <time>2021-01-09T09:45:17Z</time>
      </trkpt>
      <trkpt lat="44.25338" lon="7.68029">
        <ele>1227.26</ele>
        <time>2021-01-09T09:45:34Z</time>
      </trkpt>
      <trkpt lat="44.25334" lon="7.6804">
        <ele>1229.18</ele>
        <time>2021-01-09T09:45:54Z</time>
      </trkpt>
      <trkpt lat="44.25329" lon="7.68055">
        <ele>1233.03</ele>
        <time>2021-01-09T09:46:10Z</time>
      </trkpt>
      <trkpt lat="44.25326" lon="7.68063">
        <ele>1238.8</ele>
        <time>2021-01-09T09:46:33Z</time>
      </trkpt>
      <trkpt lat="44.2532" lon="7.68069">
        <ele>1239.28</ele>
        <time>2021-01-09T09:46:48Z</time>
      </trkpt>
      <trkpt lat="44.25315" lon="7.68077">
        <ele>1239.76</ele>
        <time>2021-01-09T09:47:03Z</time>
      </trkpt>
      <trkpt lat="44.2531" lon="7.68091">
        <ele>1243.6</ele>
        <time>2021-01-09T09:47:22Z</time>
      </trkpt>
      <trkpt lat="44.25303" lon="7.68097">
        <ele>1243.6</ele>
        <time>2021-01-09T09:47:36Z</time>
      </trkpt>
      <trkpt lat="44.25295" lon="7.68099">
        <ele>1244.56</ele>
        <time>2021-01-09T09:47:55Z</time>
      </trkpt>
      <trkpt lat="44.25291" lon="7.68112">
        <ele>1246.97</ele>
        <time>2021-01-09T09:48:12Z</time>
      </trkpt>
      <trkpt lat="44.25287" lon="7.68116">
        <ele>1247.93</ele>
        <time>2021-01-09T09:48:35Z</time>
      </trkpt>
      <trkpt lat="44.25286" lon="7.68127">
        <ele>1250.33</ele>
        <time>2021-01-09T09:48:56Z</time>
      </trkpt>
      <trkpt lat="44.25285" lon="7.68137">
        <ele>1251.77</ele>
        <time>2021-01-09T09:49:12Z</time>
      </trkpt>
      <trkpt lat="44.25278" lon="7.68139">
        <ele>1252.74</ele>
        <time>2021-01-09T09:49:30Z</time>
      </trkpt>
      <trkpt lat="44.25273" lon="7.68148">
        <ele>1255.14</ele>
        <time>2021-01-09T09:49:48Z</time>
      </trkpt>
      <trkpt lat="44.25275" lon="7.68162">
        <ele>1258.5</ele>
        <time>2021-01-09T09:50:07Z</time>
      </trkpt>
      <trkpt lat="44.25271" lon="7.68168">
        <ele>1261.87</ele>
        <time>2021-01-09T09:50:26Z</time>
      </trkpt>
      <trkpt lat="44.25267" lon="7.68174">
        <ele>1263.31</ele>
        <time>2021-01-09T09:50:44Z</time>
      </trkpt>
      <trkpt lat="44.25267" lon="7.68181">
        <ele>1264.75</ele>
        <time>2021-01-09T09:50:58Z</time>
      </trkpt>
      <trkpt lat="44.2526" lon="7.68182">
        <ele>1264.75</ele>
        <time>2021-01-09T09:51:13Z</time>
      </trkpt>
      <trkpt lat="44.25256" lon="7.68189">
        <ele>1266.67</ele>
        <time>2021-01-09T09:51:27Z</time>
      </trkpt>
      <trkpt lat="44.25257" lon="7.68203">
        <ele>1269.56</ele>
        <time>2021-01-09T09:51:46Z</time>
      </trkpt>
      <trkpt lat="44.25252" lon="7.68211">
        <ele>1275.81</ele>
        <time>2021-01-09T09:52:05Z</time>
      </trkpt>
      <trkpt lat="44.25247" lon="7.68219">
        <ele>1275.81</ele>
        <time>2021-01-09T09:52:22Z</time>
      </trkpt>
      <trkpt lat="44.25246" lon="7.68232">
        <ele>1280.61</ele>
        <time>2021-01-09T09:52:38Z</time>
      </trkpt>
      <trkpt lat="44.25243" lon="7.68241">
        <ele>1282.54</ele>
        <time>2021-01-09T09:52:54Z</time>
      </trkpt>
      <trkpt lat="44.25237" lon="7.68251">
        <ele>1284.94</ele>
        <time>2021-01-09T09:53:14Z</time>
      </trkpt>
      <trkpt lat="44.25228" lon="7.68264">
        <ele>1287.82</ele>
        <time>2021-01-09T09:53:32Z</time>
      </trkpt>
      <trkpt lat="44.25229" lon="7.68276">
        <ele>1290.71</ele>
        <time>2021-01-09T09:53:47Z</time>
      </trkpt>
      <trkpt lat="44.25229" lon="7.68287">
        <ele>1292.15</ele>
        <time>2021-01-09T09:54:09Z</time>
      </trkpt>
      <trkpt lat="44.25231" lon="7.68296">
        <ele>1292.15</ele>
        <time>2021-01-09T09:54:28Z</time>
      </trkpt>
      <trkpt lat="44.25226" lon="7.68308">
        <ele>1295.99</ele>
        <time>2021-01-09T09:54:49Z</time>
      </trkpt>
      <trkpt lat="44.25217" lon="7.68307">
        <ele>1298.88</ele>
        <time>2021-01-09T09:55:08Z</time>
      </trkpt>
      <trkpt lat="44.25211" lon="7.68315">
        <ele>1302.24</ele>
        <time>2021-01-09T09:55:23Z</time>
      </trkpt>
      <trkpt lat="44.25206" lon="7.68318">
        <ele>1303.2</ele>
        <time>2021-01-09T09:55:39Z</time>
      </trkpt>
      <trkpt lat="44.25208" lon="7.68338">
        <ele>1305.61</ele>
        <time>2021-01-09T09:55:59Z</time>
      </trkpt>
      <trkpt lat="44.25208" lon="7.68354">
        <ele>1306.09</ele>
        <time>2021-01-09T09:56:17Z</time>
      </trkpt>
      <trkpt lat="44.25209" lon="7.68364">
        <ele>1307.05</ele>
        <time>2021-01-09T09:56:37Z</time>
      </trkpt>
      <trkpt lat="44.25198" lon="7.68374">
        <ele>1311.38</ele>
        <time>2021-01-09T09:56:56Z</time>
      </trkpt>
      <trkpt lat="44.25191" lon="7.68382">
        <ele>1314.26</ele>
        <time>2021-01-09T09:57:12Z</time>
      </trkpt>
      <trkpt lat="44.25182" lon="7.68387">
        <ele>1318.1</ele>
        <time>2021-01-09T09:57:29Z</time>
      </trkpt>
      <trkpt lat="44.25179" lon="7.68399">
        <ele>1327.72</ele>
        <time>2021-01-09T09:57:49Z</time>
      </trkpt>
      <trkpt lat="44.25175" lon="7.68404">
        <ele>1329.16</ele>
        <time>2021-01-09T09:58:08Z</time>
      </trkpt>
      <trkpt lat="44.25178" lon="7.68416">
        <ele>1328.68</ele>
        <time>2021-01-09T09:58:26Z</time>
      </trkpt>
      <trkpt lat="44.25175" lon="7.68424">
        <ele>1330.6</ele>
        <time>2021-01-09T09:58:43Z</time>
      </trkpt>
      <trkpt lat="44.25176" lon="7.68427">
        <ele>1332.04</ele>
        <time>2021-01-09T09:59:05Z</time>
      </trkpt>
      <trkpt lat="44.25181" lon="7.68422">
        <ele>1329.64</ele>
        <time>2021-01-09T09:59:45Z</time>
      </trkpt>
      <trkpt lat="44.25181" lon="7.68421">
        <ele>1331.08</ele>
        <time>2021-01-09T10:00:18Z</time>
      </trkpt>
      <trkpt lat="44.25177" lon="7.68424">
        <ele>1331.08</ele>
        <time>2021-01-09T10:00:56Z</time>
      </trkpt>
      <trkpt lat="44.25178" lon="7.68432">
        <ele>1333.49</ele>
        <time>2021-01-09T10:01:27Z</time>
      </trkpt>
      <trkpt lat="44.25176" lon="7.68432">
        <ele>1335.89</ele>
        <time>2021-01-09T10:01:53Z</time>
      </trkpt>
      <trkpt lat="44.25177" lon="7.68443">
        <ele>1335.89</ele>
        <time>2021-01-09T10:02:10Z</time>
      </trkpt>
      <trkpt lat="44.25174" lon="7.68447">
        <ele>1344.54</ele>
        <time>2021-01-09T10:02:29Z</time>
      </trkpt>
      <trkpt lat="44.25172" lon="7.68457">
        <ele>1345.98</ele>
        <time>2021-01-09T10:02:50Z</time>
      </trkpt>
      <trkpt lat="44.25173" lon="7.68459">
        <ele>1346.46</ele>
        <time>2021-01-09T10:03:06Z</time>
      </trkpt>
      <trkpt lat="44.25166" lon="7.68446">
        <ele>1343.1</ele>
        <time>2021-01-09T10:03:22Z</time>
      </trkpt>
      <trkpt lat="44.25157" lon="7.6845">
        <ele>1345.5</ele>
        <time>2021-01-09T10:03:39Z</time>
      </trkpt>
      <trkpt lat="44.25151" lon="7.68453">
        <ele>1344.06</ele>
        <time>2021-01-09T10:03:56Z</time>
      </trkpt>
      <trkpt lat="44.25149" lon="7.6846">
        <ele>1343.58</ele>
        <time>2021-01-09T10:04:11Z</time>
      </trkpt>
      <trkpt lat="44.25151" lon="7.68474">
        <ele>1344.54</ele>
        <time>2021-01-09T10:04:33Z</time>
      </trkpt>
      <trkpt lat="44.2514" lon="7.68477">
        <ele>1345.98</ele>
        <time>2021-01-09T10:04:50Z</time>
      </trkpt>
      <trkpt lat="44.25131" lon="7.68471">
        <ele>1345.98</ele>
        <time>2021-01-09T10:05:06Z</time>
      </trkpt>
      <trkpt lat="44.25126" lon="7.68479">
        <ele>1347.43</ele>
        <time>2021-01-09T10:05:21Z</time>
      </trkpt>
      <trkpt lat="44.25122" lon="7.68493">
        <ele>1351.27</ele>
        <time>2021-01-09T10:05:39Z</time>
      </trkpt>
      <trkpt lat="44.25112" lon="7.68497">
        <ele>1357.04</ele>
        <time>2021-01-09T10:05:59Z</time>
      </trkpt>
      <trkpt lat="44.25115" lon="7.68508">
        <ele>1357.52</ele>
        <time>2021-01-09T10:06:12Z</time>
      </trkpt>
      <trkpt lat="44.25117" lon="7.68517">
        <ele>1360.4</ele>
        <time>2021-01-09T10:06:30Z</time>
      </trkpt>
      <trkpt lat="44.25121" lon="7.68532">
        <ele>1362.81</ele>
        <time>2021-01-09T10:06:49Z</time>
      </trkpt>
      <trkpt lat="44.25118" lon="7.68541">
        <ele>1359.44</ele>
        <time>2021-01-09T10:07:06Z</time>
      </trkpt>
      <trkpt lat="44.2511" lon="7.68539">
        <ele>1363.77</ele>
        <time>2021-01-09T10:07:24Z</time>
      </trkpt>
      <trkpt lat="44.25102" lon="7.68541">
        <ele>1365.21</ele>
        <time>2021-01-09T10:07:40Z</time>
      </trkpt>
      <trkpt lat="44.25094" lon="7.68545">
        <ele>1369.05</ele>
        <time>2021-01-09T10:07:58Z</time>
      </trkpt>
      <trkpt lat="44.25085" lon="7.68547">
        <ele>1373.86</ele>
        <time>2021-01-09T10:08:12Z</time>
      </trkpt>
      <trkpt lat="44.25076" lon="7.68543">
        <ele>1377.23</ele>
        <time>2021-01-09T10:08:26Z</time>
      </trkpt>
      <trkpt lat="44.25067" lon="7.68546">
        <ele>1380.11</ele>
        <time>2021-01-09T10:08:42Z</time>
      </trkpt>
      <trkpt lat="44.25057" lon="7.68545">
        <ele>1381.07</ele>
        <time>2021-01-09T10:08:58Z</time>
      </trkpt>
      <trkpt lat="44.2505" lon="7.68546">
        <ele>1384.92</ele>
        <time>2021-01-09T10:09:15Z</time>
      </trkpt>
      <trkpt lat="44.2504" lon="7.68551">
        <ele>1384.92</ele>
        <time>2021-01-09T10:09:34Z</time>
      </trkpt>
      <trkpt lat="44.25031" lon="7.68551">
        <ele>1388.28</ele>
        <time>2021-01-09T10:09:49Z</time>
      </trkpt>
      <trkpt lat="44.25024" lon="7.68551">
        <ele>1388.28</ele>
        <time>2021-01-09T10:10:04Z</time>
      </trkpt>
      <trkpt lat="44.25022" lon="7.68556">
        <ele>1389.72</ele>
        <time>2021-01-09T10:10:19Z</time>
      </trkpt>
      <trkpt lat="44.25027" lon="7.68563">
        <ele>1390.68</ele>
        <time>2021-01-09T10:10:35Z</time>
      </trkpt>
      <trkpt lat="44.25032" lon="7.68569">
        <ele>1395.97</ele>
        <time>2021-01-09T10:10:50Z</time>
      </trkpt>
      <trkpt lat="44.25038" lon="7.68573">
        <ele>1398.86</ele>
        <time>2021-01-09T10:11:04Z</time>
      </trkpt>
      <trkpt lat="44.25044" lon="7.68577">
        <ele>1401.74</ele>
        <time>2021-01-09T10:11:25Z</time>
      </trkpt>
      <trkpt lat="44.25037" lon="7.6858">
        <ele>1401.74</ele>
        <time>2021-01-09T10:11:43Z</time>
      </trkpt>
      <trkpt lat="44.25031" lon="7.68579">
        <ele>1402.7</ele>
        <time>2021-01-09T10:12:04Z</time>
      </trkpt>
      <trkpt lat="44.25039" lon="7.68584">
        <ele>1403.18</ele>
        <time>2021-01-09T10:12:17Z</time>
      </trkpt>
      <trkpt lat="44.25049" lon="7.68592">
        <ele>1405.58</ele>
        <time>2021-01-09T10:12:33Z</time>
      </trkpt>
      <trkpt lat="44.25054" lon="7.68597">
        <ele>1406.55</ele>
        <time>2021-01-09T10:12:47Z</time>
      </trkpt>
      <trkpt lat="44.25049" lon="7.68597">
        <ele>1405.58</ele>
        <time>2021-01-09T10:13:01Z</time>
      </trkpt>
      <trkpt lat="44.25045" lon="7.68604">
        <ele>1406.07</ele>
        <time>2021-01-09T10:13:15Z</time>
      </trkpt>
      <trkpt lat="44.25049" lon="7.68612">
        <ele>1407.51</ele>
        <time>2021-01-09T10:13:29Z</time>
      </trkpt>
      <trkpt lat="44.2505" lon="7.68614">
        <ele>1406.55</ele>
        <time>2021-01-09T10:13:44Z</time>
      </trkpt>
      <trkpt lat="44.2505" lon="7.6862">
        <ele>1407.99</ele>
        <time>2021-01-09T10:14:01Z</time>
      </trkpt>
      <trkpt lat="44.25042" lon="7.68624">
        <ele>1411.83</ele>
        <time>2021-01-09T10:14:20Z</time>
      </trkpt>
      <trkpt lat="44.25041" lon="7.68629">
        <ele>1416.64</ele>
        <time>2021-01-09T10:14:38Z</time>
      </trkpt>
      <trkpt lat="44.25041" lon="7.68638">
        <ele>1417.12</ele>
        <time>2021-01-09T10:14:57Z</time>
      </trkpt>
      <trkpt lat="44.25045" lon="7.68646">
        <ele>1418.08</ele>
        <time>2021-01-09T10:15:14Z</time>
      </trkpt>
      <trkpt lat="44.2505" lon="7.68658">
        <ele>1420.97</ele>
        <time>2021-01-09T10:15:30Z</time>
      </trkpt>
      <trkpt lat="44.25052" lon="7.68665">
        <ele>1423.85</ele>
        <time>2021-01-09T10:15:43Z</time>
      </trkpt>
      <trkpt lat="44.2505" lon="7.68666">
        <ele>1425.77</ele>
        <time>2021-01-09T10:16:03Z</time>
      </trkpt>
      <trkpt lat="44.25044" lon="7.68663">
        <ele>1431.54</ele>
        <time>2021-01-09T10:16:31Z</time>
      </trkpt>
      <trkpt lat="44.2504" lon="7.68667">
        <ele>1435.39</ele>
        <time>2021-01-09T10:16:52Z</time>
      </trkpt>
      <trkpt lat="44.25033" lon="7.68668">
        <ele>1435.87</ele>
        <time>2021-01-09T10:17:11Z</time>
      </trkpt>
      <trkpt lat="44.25025" lon="7.68676">
        <ele>1434.91</ele>
        <time>2021-01-09T10:17:31Z</time>
      </trkpt>
      <trkpt lat="44.25029" lon="7.68687">
        <ele>1437.31</ele>
        <time>2021-01-09T10:17:50Z</time>
      </trkpt>
      <trkpt lat="44.25035" lon="7.68696">
        <ele>1440.67</ele>
        <time>2021-01-09T10:18:07Z</time>
      </trkpt>
      <trkpt lat="44.25039" lon="7.68698">
        <ele>1442.6</ele>
        <time>2021-01-09T10:18:22Z</time>
      </trkpt>
      <trkpt lat="44.25031" lon="7.68698">
        <ele>1438.75</ele>
        <time>2021-01-09T10:18:38Z</time>
      </trkpt>
      <trkpt lat="44.25021" lon="7.68698">
        <ele>1439.23</ele>
        <time>2021-01-09T10:18:53Z</time>
      </trkpt>
      <trkpt lat="44.25015" lon="7.68698">
        <ele>1441.63</ele>
        <time>2021-01-09T10:19:07Z</time>
      </trkpt>
      <trkpt lat="44.25012" lon="7.68704">
        <ele>1443.56</ele>
        <time>2021-01-09T10:19:25Z</time>
      </trkpt>
      <trkpt lat="44.25006" lon="7.6871">
        <ele>1445.96</ele>
        <time>2021-01-09T10:19:41Z</time>
      </trkpt>
      <trkpt lat="44.25003" lon="7.68719">
        <ele>1445.96</ele>
        <time>2021-01-09T10:19:56Z</time>
      </trkpt>
      <trkpt lat="44.25" lon="7.68727">
        <ele>1447.4</ele>
        <time>2021-01-09T10:20:11Z</time>
      </trkpt>
      <trkpt lat="44.24994" lon="7.68731">
        <ele>1450.29</ele>
        <time>2021-01-09T10:20:23Z</time>
      </trkpt>
      <trkpt lat="44.24992" lon="7.6873">
        <ele>1452.69</ele>
        <time>2021-01-09T10:20:37Z</time>
      </trkpt>
      <trkpt lat="44.24989" lon="7.6873">
        <ele>1454.61</ele>
        <time>2021-01-09T10:20:52Z</time>
      </trkpt>
      <trkpt lat="44.24995" lon="7.68742">
        <ele>1449.32</ele>
        <time>2021-01-09T10:21:06Z</time>
      </trkpt>
      <trkpt lat="44.24998" lon="7.68746">
        <ele>1452.21</ele>
        <time>2021-01-09T10:21:23Z</time>
      </trkpt>
      <trkpt lat="44.24998" lon="7.68752">
        <ele>1452.21</ele>
        <time>2021-01-09T10:21:36Z</time>
      </trkpt>
      <trkpt lat="44.25002" lon="7.68763">
        <ele>1456.05</ele>
        <time>2021-01-09T10:21:52Z</time>
      </trkpt>
      <trkpt lat="44.25005" lon="7.68777">
        <ele>1458.46</ele>
        <time>2021-01-09T10:22:11Z</time>
      </trkpt>
      <trkpt lat="44.25013" lon="7.68791">
        <ele>1460.86</ele>
        <time>2021-01-09T10:22:33Z</time>
      </trkpt>
      <trkpt lat="44.25019" lon="7.68802">
        <ele>1463.26</ele>
        <time>2021-01-09T10:22:51Z</time>
      </trkpt>
      <trkpt lat="44.25027" lon="7.68816">
        <ele>1463.74</ele>
        <time>2021-01-09T10:23:11Z</time>
      </trkpt>
      <trkpt lat="44.25033" lon="7.68825">
        <ele>1465.19</ele>
        <time>2021-01-09T10:23:30Z</time>
      </trkpt>
      <trkpt lat="44.25036" lon="7.68834">
        <ele>1466.15</ele>
        <time>2021-01-09T10:23:45Z</time>
      </trkpt>
      <trkpt lat="44.25039" lon="7.68842">
        <ele>1469.03</ele>
        <time>2021-01-09T10:24:02Z</time>
      </trkpt>
      <trkpt lat="44.25045" lon="7.68839">
        <ele>1471.92</ele>
        <time>2021-01-09T10:24:21Z</time>
      </trkpt>
      <trkpt lat="44.25043" lon="7.68849">
        <ele>1471.44</ele>
        <time>2021-01-09T10:24:37Z</time>
      </trkpt>
      <trkpt lat="44.25047" lon="7.68854">
        <ele>1473.36</ele>
        <time>2021-01-09T10:24:56Z</time>
      </trkpt>
      <trkpt lat="44.25049" lon="7.68859">
        <ele>1474.8</ele>
        <time>2021-01-09T10:25:14Z</time>
      </trkpt>
      <trkpt lat="44.25048" lon="7.68873">
        <ele>1475.76</ele>
        <time>2021-01-09T10:25:33Z</time>
      </trkpt>
      <trkpt lat="44.25047" lon="7.68881">
        <ele>1476.72</ele>
        <time>2021-01-09T10:25:49Z</time>
      </trkpt>
      <trkpt lat="44.25044" lon="7.6889">
        <ele>1479.13</ele>
        <time>2021-01-09T10:26:03Z</time>
      </trkpt>
      <trkpt lat="44.25047" lon="7.689">
        <ele>1483.93</ele>
        <time>2021-01-09T10:26:24Z</time>
      </trkpt>
      <trkpt lat="44.25047" lon="7.68904">
        <ele>1485.37</ele>
        <time>2021-01-09T10:26:42Z</time>
      </trkpt>
      <trkpt lat="44.25043" lon="7.6891">
        <ele>1484.89</ele>
        <time>2021-01-09T10:27:00Z</time>
      </trkpt>
      <trkpt lat="44.25038" lon="7.68915">
        <ele>1486.34</ele>
        <time>2021-01-09T10:27:16Z</time>
      </trkpt>
      <trkpt lat="44.25034" lon="7.6892">
        <ele>1488.26</ele>
        <time>2021-01-09T10:27:32Z</time>
      </trkpt>
      <trkpt lat="44.25027" lon="7.68923">
        <ele>1493.06</ele>
        <time>2021-01-09T10:27:47Z</time>
      </trkpt>
      <trkpt lat="44.25023" lon="7.68926">
        <ele>1496.43</ele>
        <time>2021-01-09T10:28:05Z</time>
      </trkpt>
      <trkpt lat="44.2502" lon="7.68936">
        <ele>1497.87</ele>
        <time>2021-01-09T10:28:21Z</time>
      </trkpt>
      <trkpt lat="44.25018" lon="7.68943">
        <ele>1499.79</ele>
        <time>2021-01-09T10:28:40Z</time>
      </trkpt>
      <trkpt lat="44.25015" lon="7.68953">
        <ele>1502.68</ele>
        <time>2021-01-09T10:28:58Z</time>
      </trkpt>
      <trkpt lat="44.25012" lon="7.68961">
        <ele>1504.12</ele>
        <time>2021-01-09T10:29:10Z</time>
      </trkpt>
      <trkpt lat="44.25015" lon="7.6897">
        <ele>1506.52</ele>
        <time>2021-01-09T10:29:26Z</time>
      </trkpt>
      <trkpt lat="44.25015" lon="7.68976">
        <ele>1507.97</ele>
        <time>2021-01-09T10:29:40Z</time>
      </trkpt>
      <trkpt lat="44.25008" lon="7.68979">
        <ele>1509.89</ele>
        <time>2021-01-09T10:29:52Z</time>
      </trkpt>
      <trkpt lat="44.2501" lon="7.68988">
        <ele>1509.41</ele>
        <time>2021-01-09T10:30:08Z</time>
      </trkpt>
      <trkpt lat="44.25009" lon="7.68997">
        <ele>1511.33</ele>
        <time>2021-01-09T10:30:23Z</time>
      </trkpt>
      <trkpt lat="44.25014" lon="7.69009">
        <ele>1511.81</ele>
        <time>2021-01-09T10:30:39Z</time>
      </trkpt>
      <trkpt lat="44.25018" lon="7.69017">
        <ele>1513.25</ele>
        <time>2021-01-09T10:30:56Z</time>
      </trkpt>
      <trkpt lat="44.25022" lon="7.69026">
        <ele>1514.21</ele>
        <time>2021-01-09T10:31:13Z</time>
      </trkpt>
      <trkpt lat="44.25024" lon="7.6904">
        <ele>1514.69</ele>
        <time>2021-01-09T10:31:31Z</time>
      </trkpt>
      <trkpt lat="44.25022" lon="7.6905">
        <ele>1516.62</ele>
        <time>2021-01-09T10:31:47Z</time>
      </trkpt>
      <trkpt lat="44.25022" lon="7.69059">
        <ele>1520.94</ele>
        <time>2021-01-09T10:32:05Z</time>
      </trkpt>
      <trkpt lat="44.25017" lon="7.69062">
        <ele>1520.46</ele>
        <time>2021-01-09T10:32:18Z</time>
      </trkpt>
      <trkpt lat="44.25013" lon="7.69062">
        <ele>1525.27</ele>
        <time>2021-01-09T10:32:34Z</time>
      </trkpt>
      <trkpt lat="44.25009" lon="7.6906">
        <ele>1528.15</ele>
        <time>2021-01-09T10:32:47Z</time>
      </trkpt>
      <trkpt lat="44.25008" lon="7.6906">
        <ele>1529.59</ele>
        <time>2021-01-09T10:33:04Z</time>
      </trkpt>
      <trkpt lat="44.25008" lon="7.6906">
        <ele>1525.75</ele>
        <time>2021-01-09T10:33:26Z</time>
      </trkpt>
      <trkpt lat="44.2501" lon="7.69059">
        <ele>1521.42</ele>
        <time>2021-01-09T10:34:13Z</time>
      </trkpt>
      <trkpt lat="44.25009" lon="7.69064">
        <ele>1522.39</ele>
        <time>2021-01-09T10:34:50Z</time>
      </trkpt>
      <trkpt lat="44.25007" lon="7.69063">
        <ele>1533.44</ele>
        <time>2021-01-09T10:35:13Z</time>
      </trkpt>
      <trkpt lat="44.25007" lon="7.69062">
        <ele>1537.29</ele>
        <time>2021-01-09T10:35:33Z</time>
      </trkpt>
      <trkpt lat="44.25007" lon="7.69063">
        <ele>1536.8</ele>
        <time>2021-01-09T10:35:52Z</time>
      </trkpt>
      <trkpt lat="44.25006" lon="7.69061">
        <ele>1540.17</ele>
        <time>2021-01-09T10:36:17Z</time>
      </trkpt>
      <trkpt lat="44.25005" lon="7.69061">
        <ele>1541.13</ele>
        <time>2021-01-09T10:36:32Z</time>
      </trkpt>
      <trkpt lat="44.25005" lon="7.69067">
        <ele>1541.61</ele>
        <time>2021-01-09T10:36:53Z</time>
      </trkpt>
      <trkpt lat="44.25007" lon="7.69078">
        <ele>1541.13</ele>
        <time>2021-01-09T10:37:04Z</time>
      </trkpt>
      <trkpt lat="44.2501" lon="7.69087">
        <ele>1542.09</ele>
        <time>2021-01-09T10:37:18Z</time>
      </trkpt>
      <trkpt lat="44.25012" lon="7.69097">
        <ele>1545.94</ele>
        <time>2021-01-09T10:37:35Z</time>
      </trkpt>
      <trkpt lat="44.25013" lon="7.69106">
        <ele>1548.34</ele>
        <time>2021-01-09T10:37:51Z</time>
      </trkpt>
      <trkpt lat="44.25015" lon="7.69117">
        <ele>1549.3</ele>
        <time>2021-01-09T10:38:06Z</time>
      </trkpt>
      <trkpt lat="44.25019" lon="7.69127">
        <ele>1550.26</ele>
        <time>2021-01-09T10:38:22Z</time>
      </trkpt>
      <trkpt lat="44.25022" lon="7.69133">
        <ele>1551.22</ele>
        <time>2021-01-09T10:38:35Z</time>
      </trkpt>
      <trkpt lat="44.25024" lon="7.69143">
        <ele>1554.11</ele>
        <time>2021-01-09T10:38:50Z</time>
      </trkpt>
      <trkpt lat="44.25025" lon="7.69152">
        <ele>1556.51</ele>
        <time>2021-01-09T10:39:05Z</time>
      </trkpt>
      <trkpt lat="44.25022" lon="7.69154">
        <ele>1558.92</ele>
        <time>2021-01-09T10:39:19Z</time>
      </trkpt>
      <trkpt lat="44.25016" lon="7.6915">
        <ele>1560.36</ele>
        <time>2021-01-09T10:39:33Z</time>
      </trkpt>
      <trkpt lat="44.25009" lon="7.69148">
        <ele>1562.76</ele>
        <time>2021-01-09T10:39:47Z</time>
      </trkpt>
      <trkpt lat="44.25005" lon="7.69151">
        <ele>1564.68</ele>
        <time>2021-01-09T10:40:01Z</time>
      </trkpt>
      <trkpt lat="44.25004" lon="7.69156">
        <ele>1566.12</ele>
        <time>2021-01-09T10:40:15Z</time>
      </trkpt>
      <trkpt lat="44.25005" lon="7.6916">
        <ele>1564.68</ele>
        <time>2021-01-09T10:40:38Z</time>
      </trkpt>
      <trkpt lat="44.25007" lon="7.6917">
        <ele>1565.64</ele>
        <time>2021-01-09T10:40:56Z</time>
      </trkpt>
      <trkpt lat="44.25007" lon="7.69184">
        <ele>1569.49</ele>
        <time>2021-01-09T10:41:13Z</time>
      </trkpt>
      <trkpt lat="44.2501" lon="7.69192">
        <ele>1571.41</ele>
        <time>2021-01-09T10:41:28Z</time>
      </trkpt>
      <trkpt lat="44.2501" lon="7.69203">
        <ele>1571.89</ele>
        <time>2021-01-09T10:41:45Z</time>
      </trkpt>
      <trkpt lat="44.25009" lon="7.69212">
        <ele>1572.85</ele>
        <time>2021-01-09T10:42:00Z</time>
      </trkpt>
      <trkpt lat="44.25008" lon="7.69221">
        <ele>1574.78</ele>
        <time>2021-01-09T10:42:14Z</time>
      </trkpt>
      <trkpt lat="44.25007" lon="7.69228">
        <ele>1576.7</ele>
        <time>2021-01-09T10:42:29Z</time>
      </trkpt>
      <trkpt lat="44.25007" lon="7.69237">
        <ele>1579.1</ele>
        <time>2021-01-09T10:42:44Z</time>
      </trkpt>
      <trkpt lat="44.2501" lon="7.69243">
        <ele>1580.06</ele>
        <time>2021-01-09T10:43:00Z</time>
      </trkpt>
      <trkpt lat="44.25014" lon="7.69251">
        <ele>1583.43</ele>
        <time>2021-01-09T10:43:15Z</time>
      </trkpt>
      <trkpt lat="44.25014" lon="7.69257">
        <ele>1587.75</ele>
        <time>2021-01-09T10:43:33Z</time>
      </trkpt>
      <trkpt lat="44.2501" lon="7.69261">
        <ele>1590.64</ele>
        <time>2021-01-09T10:43:46Z</time>
      </trkpt>
      <trkpt lat="44.25005" lon="7.69263">
        <ele>1592.08</ele>
        <time>2021-01-09T10:43:59Z</time>
      </trkpt>
      <trkpt lat="44.25" lon="7.69271">
        <ele>1595.45</ele>
        <time>2021-01-09T10:44:11Z</time>
      </trkpt>
      <trkpt lat="44.25001" lon="7.69276">
        <ele>1597.37</ele>
        <time>2021-01-09T10:44:25Z</time>
      </trkpt>
      <trkpt lat="44.25001" lon="7.69276">
        <ele>1598.33</ele>
        <time>2021-01-09T10:44:38Z</time>
      </trkpt>
      <trkpt lat="44.24999" lon="7.69286">
        <ele>1597.85</ele>
        <time>2021-01-09T10:44:55Z</time>
      </trkpt>
      <trkpt lat="44.24996" lon="7.69293">
        <ele>1597.85</ele>
        <time>2021-01-09T10:45:10Z</time>
      </trkpt>
      <trkpt lat="44.24994" lon="7.69304">
        <ele>1598.81</ele>
        <time>2021-01-09T10:45:26Z</time>
      </trkpt>
      <trkpt lat="44.24994" lon="7.69314">
        <ele>1602.17</ele>
        <time>2021-01-09T10:45:41Z</time>
      </trkpt>
      <trkpt lat="44.24993" lon="7.69327">
        <ele>1604.1</ele>
        <time>2021-01-09T10:45:56Z</time>
      </trkpt>
      <trkpt lat="44.24997" lon="7.69329">
        <ele>1605.06</ele>
        <time>2021-01-09T10:46:09Z</time>
      </trkpt>
      <trkpt lat="44.25007" lon="7.69333">
        <ele>1606.98</ele>
        <time>2021-01-09T10:46:24Z</time>
      </trkpt>
      <trkpt lat="44.25014" lon="7.69339">
        <ele>1607.46</ele>
        <time>2021-01-09T10:46:40Z</time>
      </trkpt>
      <trkpt lat="44.25015" lon="7.69335">
        <ele>1603.62</ele>
        <time>2021-01-09T10:46:58Z</time>
      </trkpt>
      <trkpt lat="44.25017" lon="7.69337">
        <ele>1604.58</ele>
        <time>2021-01-09T10:47:22Z</time>
      </trkpt>
      <trkpt lat="44.25019" lon="7.6934">
        <ele>1606.02</ele>
        <time>2021-01-09T10:47:39Z</time>
      </trkpt>
      <trkpt lat="44.2502" lon="7.6935">
        <ele>1606.5</ele>
        <time>2021-01-09T10:47:55Z</time>
      </trkpt>
      <trkpt lat="44.25016" lon="7.69359">
        <ele>1607.94</ele>
        <time>2021-01-09T10:48:11Z</time>
      </trkpt>
      <trkpt lat="44.25008" lon="7.69367">
        <ele>1607.46</ele>
        <time>2021-01-09T10:48:26Z</time>
      </trkpt>
      <trkpt lat="44.25005" lon="7.69364">
        <ele>1613.71</ele>
        <time>2021-01-09T10:48:42Z</time>
      </trkpt>
      <trkpt lat="44.25003" lon="7.69366">
        <ele>1618.04</ele>
        <time>2021-01-09T10:48:57Z</time>
      </trkpt>
      <trkpt lat="44.25003" lon="7.6937">
        <ele>1619.48</ele>
        <time>2021-01-09T10:49:16Z</time>
      </trkpt>
      <trkpt lat="44.25001" lon="7.69379">
        <ele>1623.8</ele>
        <time>2021-01-09T10:49:34Z</time>
      </trkpt>
      <trkpt lat="44.24998" lon="7.69388">
        <ele>1624.77</ele>
        <time>2021-01-09T10:49:49Z</time>
      </trkpt>
      <trkpt lat="44.24997" lon="7.69395">
        <ele>1626.21</ele>
        <time>2021-01-09T10:50:04Z</time>
      </trkpt>
      <trkpt lat="44.25004" lon="7.694">
        <ele>1626.21</ele>
        <time>2021-01-09T10:50:20Z</time>
      </trkpt>
      <trkpt lat="44.25005" lon="7.69398">
        <ele>1626.21</ele>
        <time>2021-01-09T10:50:39Z</time>
      </trkpt>
      <trkpt lat="44.25007" lon="7.69401">
        <ele>1626.69</ele>
        <time>2021-01-09T10:50:55Z</time>
      </trkpt>
      <trkpt lat="44.25008" lon="7.69401">
        <ele>1625.25</ele>
        <time>2021-01-09T10:51:17Z</time>
      </trkpt>
      <trkpt lat="44.2501" lon="7.69402">
        <ele>1625.25</ele>
        <time>2021-01-09T10:51:46Z</time>
      </trkpt>
      <trkpt lat="44.25009" lon="7.69403">
        <ele>1624.77</ele>
        <time>2021-01-09T10:52:08Z</time>
      </trkpt>
      <trkpt lat="44.25009" lon="7.69404">
        <ele>1625.25</ele>
        <time>2021-01-09T10:52:24Z</time>
      </trkpt>
      <trkpt lat="44.25011" lon="7.69405">
        <ele>1626.21</ele>
        <time>2021-01-09T10:52:37Z</time>
      </trkpt>
      <trkpt lat="44.25016" lon="7.6941">
        <ele>1626.69</ele>
        <time>2021-01-09T10:52:54Z</time>
      </trkpt>
      <trkpt lat="44.25021" lon="7.69415">
        <ele>1627.17</ele>
        <time>2021-01-09T10:53:10Z</time>
      </trkpt>
      <trkpt lat="44.25028" lon="7.69423">
        <ele>1625.73</ele>
        <time>2021-01-09T10:53:25Z</time>
      </trkpt>
      <trkpt lat="44.25033" lon="7.69433">
        <ele>1627.17</ele>
        <time>2021-01-09T10:53:39Z</time>
      </trkpt>
      <trkpt lat="44.25038" lon="7.6944">
        <ele>1628.13</ele>
        <time>2021-01-09T10:53:53Z</time>
      </trkpt>
      <trkpt lat="44.2504" lon="7.69442">
        <ele>1628.13</ele>
        <time>2021-01-09T10:54:11Z</time>
      </trkpt>
      <trkpt lat="44.25039" lon="7.69443">
        <ele>1629.57</ele>
        <time>2021-01-09T10:54:30Z</time>
      </trkpt>
      <trkpt lat="44.25032" lon="7.69437">
        <ele>1631.49</ele>
        <time>2021-01-09T10:54:45Z</time>
      </trkpt>
      <trkpt lat="44.25034" lon="7.69443">
        <ele>1633.9</ele>
        <time>2021-01-09T10:55:00Z</time>
      </trkpt>
      <trkpt lat="44.25037" lon="7.69448">
        <ele>1633.42</ele>
        <time>2021-01-09T10:55:06Z</time>
      </trkpt>
      <trkpt lat="44.25045" lon="7.69455">
        <ele>1631.98</ele>
        <time>2021-01-09T10:55:21Z</time>
      </trkpt>
      <trkpt lat="44.25045" lon="7.69457">
        <ele>1631.98</ele>
        <time>2021-01-09T10:55:36Z</time>
      </trkpt>
      <trkpt lat="44.25039" lon="7.69454">
        <ele>1632.46</ele>
        <time>2021-01-09T10:55:50Z</time>
      </trkpt>
      <trkpt lat="44.25032" lon="7.6945">
        <ele>1636.78</ele>
        <time>2021-01-09T10:56:05Z</time>
      </trkpt>
      <trkpt lat="44.25032" lon="7.69456">
        <ele>1638.22</ele>
        <time>2021-01-09T10:56:21Z</time>
      </trkpt>
      <trkpt lat="44.25041" lon="7.69465">
        <ele>1637.74</ele>
        <time>2021-01-09T10:56:37Z</time>
      </trkpt>
      <trkpt lat="44.25046" lon="7.69466">
        <ele>1637.74</ele>
        <time>2021-01-09T10:56:51Z</time>
      </trkpt>
      <trkpt lat="44.2504" lon="7.69472">
        <ele>1639.19</ele>
        <time>2021-01-09T10:57:06Z</time>
      </trkpt>
      <trkpt lat="44.25033" lon="7.69472">
        <ele>1640.63</ele>
        <time>2021-01-09T10:57:13Z</time>
      </trkpt>
      <trkpt lat="44.2502" lon="7.69469">
        <ele>1646.4</ele>
        <time>2021-01-09T10:57:30Z</time>
      </trkpt>
      <trkpt lat="44.2502" lon="7.69474">
        <ele>1649.76</ele>
        <time>2021-01-09T10:57:43Z</time>
      </trkpt>
      <trkpt lat="44.25026" lon="7.69488">
        <ele>1650.24</ele>
        <time>2021-01-09T10:57:58Z</time>
      </trkpt>
      <trkpt lat="44.25033" lon="7.69498">
        <ele>1651.2</ele>
        <time>2021-01-09T10:58:14Z</time>
      </trkpt>
      <trkpt lat="44.25041" lon="7.69507">
        <ele>1654.09</ele>
        <time>2021-01-09T10:58:30Z</time>
      </trkpt>
      <trkpt lat="44.25042" lon="7.69522">
        <ele>1654.57</ele>
        <time>2021-01-09T10:58:48Z</time>
      </trkpt>
      <trkpt lat="44.25037" lon="7.69528">
        <ele>1658.89</ele>
        <time>2021-01-09T10:59:02Z</time>
      </trkpt>
      <trkpt lat="44.25038" lon="7.69525">
        <ele>1660.81</ele>
        <time>2021-01-09T10:59:23Z</time>
      </trkpt>
      <trkpt lat="44.25037" lon="7.69529">
        <ele>1659.37</ele>
        <time>2021-01-09T10:59:39Z</time>
      </trkpt>
      <trkpt lat="44.25035" lon="7.69539">
        <ele>1659.37</ele>
        <time>2021-01-09T10:59:52Z</time>
      </trkpt>
      <trkpt lat="44.25033" lon="7.6955">
        <ele>1661.3</ele>
        <time>2021-01-09T11:00:06Z</time>
      </trkpt>
      <trkpt lat="44.25031" lon="7.69565">
        <ele>1663.22</ele>
        <time>2021-01-09T11:00:21Z</time>
      </trkpt>
      <trkpt lat="44.25033" lon="7.6958">
        <ele>1664.18</ele>
        <time>2021-01-09T11:00:36Z</time>
      </trkpt>
      <trkpt lat="44.25038" lon="7.69593">
        <ele>1665.14</ele>
        <time>2021-01-09T11:00:53Z</time>
      </trkpt>
      <trkpt lat="44.2504" lon="7.696">
        <ele>1664.66</ele>
        <time>2021-01-09T11:01:07Z</time>
      </trkpt>
      <trkpt lat="44.25041" lon="7.696">
        <ele>1664.18</ele>
        <time>2021-01-09T11:01:20Z</time>
      </trkpt>
      <trkpt lat="44.25041" lon="7.69604">
        <ele>1665.62</ele>
        <time>2021-01-09T11:01:36Z</time>
      </trkpt>
      <trkpt lat="44.25044" lon="7.69617">
        <ele>1664.18</ele>
        <time>2021-01-09T11:01:50Z</time>
      </trkpt>
      <trkpt lat="44.25037" lon="7.69621">
        <ele>1664.66</ele>
        <time>2021-01-09T11:02:04Z</time>
      </trkpt>
      <trkpt lat="44.25029" lon="7.69624">
        <ele>1667.06</ele>
        <time>2021-01-09T11:02:22Z</time>
      </trkpt>
      <trkpt lat="44.25031" lon="7.69637">
        <ele>1668.51</ele>
        <time>2021-01-09T11:02:35Z</time>
      </trkpt>
      <trkpt lat="44.25031" lon="7.69647">
        <ele>1669.47</ele>
        <time>2021-01-09T11:02:51Z</time>
      </trkpt>
      <trkpt lat="44.25033" lon="7.69658">
        <ele>1672.35</ele>
        <time>2021-01-09T11:03:05Z</time>
      </trkpt>
      <trkpt lat="44.25035" lon="7.6967">
        <ele>1673.79</ele>
        <time>2021-01-09T11:03:21Z</time>
      </trkpt>
      <trkpt lat="44.25037" lon="7.6968">
        <ele>1674.27</ele>
        <time>2021-01-09T11:03:35Z</time>
      </trkpt>
      <trkpt lat="44.25038" lon="7.69691">
        <ele>1675.72</ele>
        <time>2021-01-09T11:03:54Z</time>
      </trkpt>
      <trkpt lat="44.25041" lon="7.69703">
        <ele>1680.04</ele>
        <time>2021-01-09T11:04:11Z</time>
      </trkpt>
      <trkpt lat="44.25042" lon="7.69709">
        <ele>1682.44</ele>
        <time>2021-01-09T11:04:29Z</time>
      </trkpt>
      <trkpt lat="44.25038" lon="7.6971">
        <ele>1686.77</ele>
        <time>2021-01-09T11:04:42Z</time>
      </trkpt>
      <trkpt lat="44.25033" lon="7.69711">
        <ele>1690.14</ele>
        <time>2021-01-09T11:04:57Z</time>
      </trkpt>
      <trkpt lat="44.25033" lon="7.69718">
        <ele>1690.62</ele>
        <time>2021-01-09T11:05:12Z</time>
      </trkpt>
      <trkpt lat="44.25038" lon="7.6973">
        <ele>1693.98</ele>
        <time>2021-01-09T11:05:27Z</time>
      </trkpt>
      <trkpt lat="44.25038" lon="7.69736">
        <ele>1696.86</ele>
        <time>2021-01-09T11:05:41Z</time>
      </trkpt>
      <trkpt lat="44.2503" lon="7.6974">
        <ele>1699.75</ele>
        <time>2021-01-09T11:05:58Z</time>
      </trkpt>
      <trkpt lat="44.25026" lon="7.69748">
        <ele>1701.67</ele>
        <time>2021-01-09T11:06:13Z</time>
      </trkpt>
      <trkpt lat="44.25032" lon="7.6976">
        <ele>1705.04</ele>
        <time>2021-01-09T11:06:30Z</time>
      </trkpt>
      <trkpt lat="44.25034" lon="7.69764">
        <ele>1707.44</ele>
        <time>2021-01-09T11:06:47Z</time>
      </trkpt>
      <trkpt lat="44.25036" lon="7.69773">
        <ele>1706.48</ele>
        <time>2021-01-09T11:07:05Z</time>
      </trkpt>
      <trkpt lat="44.25034" lon="7.69783">
        <ele>1707.92</ele>
        <time>2021-01-09T11:07:19Z</time>
      </trkpt>
      <trkpt lat="44.25036" lon="7.69789">
        <ele>1709.36</ele>
        <time>2021-01-09T11:07:33Z</time>
      </trkpt>
      <trkpt lat="44.25027" lon="7.69791">
        <ele>1711.76</ele>
        <time>2021-01-09T11:07:51Z</time>
      </trkpt>
      <trkpt lat="44.2502" lon="7.69798">
        <ele>1716.09</ele>
        <time>2021-01-09T11:08:08Z</time>
      </trkpt>
      <trkpt lat="44.25029" lon="7.69808">
        <ele>1718.49</ele>
        <time>2021-01-09T11:08:23Z</time>
      </trkpt>
      <trkpt lat="44.25036" lon="7.69816">
        <ele>1720.42</ele>
        <time>2021-01-09T11:08:38Z</time>
      </trkpt>
      <trkpt lat="44.25039" lon="7.69822">
        <ele>1722.34</ele>
        <time>2021-01-09T11:08:54Z</time>
      </trkpt>
      <trkpt lat="44.25039" lon="7.69827">
        <ele>1722.34</ele>
        <time>2021-01-09T11:09:12Z</time>
      </trkpt>
      <trkpt lat="44.25032" lon="7.6983">
        <ele>1723.3</ele>
        <time>2021-01-09T11:09:27Z</time>
      </trkpt>
      <trkpt lat="44.25032" lon="7.69837">
        <ele>1725.22</ele>
        <time>2021-01-09T11:09:42Z</time>
      </trkpt>
      <trkpt lat="44.25035" lon="7.69837">
        <ele>1726.18</ele>
        <time>2021-01-09T11:10:06Z</time>
      </trkpt>
      <trkpt lat="44.25037" lon="7.69844">
        <ele>1727.63</ele>
        <time>2021-01-09T11:10:21Z</time>
      </trkpt>
      <trkpt lat="44.25035" lon="7.69848">
        <ele>1729.07</ele>
        <time>2021-01-09T11:10:35Z</time>
      </trkpt>
      <trkpt lat="44.25029" lon="7.6985">
        <ele>1732.91</ele>
        <time>2021-01-09T11:10:50Z</time>
      </trkpt>
      <trkpt lat="44.25026" lon="7.69851">
        <ele>1735.8</ele>
        <time>2021-01-09T11:11:05Z</time>
      </trkpt>
      <trkpt lat="44.25029" lon="7.69858">
        <ele>1736.28</ele>
        <time>2021-01-09T11:11:18Z</time>
      </trkpt>
      <trkpt lat="44.25033" lon="7.69865">
        <ele>1736.76</ele>
        <time>2021-01-09T11:11:36Z</time>
      </trkpt>
      <trkpt lat="44.25032" lon="7.6987">
        <ele>1737.24</ele>
        <time>2021-01-09T11:11:51Z</time>
      </trkpt>
      <trkpt lat="44.25024" lon="7.69872">
        <ele>1740.12</ele>
        <time>2021-01-09T11:12:07Z</time>
      </trkpt>
      <trkpt lat="44.25019" lon="7.6988">
        <ele>1743.49</ele>
        <time>2021-01-09T11:12:24Z</time>
      </trkpt>
      <trkpt lat="44.25022" lon="7.69885">
        <ele>1743.49</ele>
        <time>2021-01-09T11:12:46Z</time>
      </trkpt>
      <trkpt lat="44.25024" lon="7.69886">
        <ele>1744.45</ele>
        <time>2021-01-09T11:13:02Z</time>
      </trkpt>
      <trkpt lat="44.25025" lon="7.69894">
        <ele>1744.45</ele>
        <time>2021-01-09T11:13:14Z</time>
      </trkpt>
      <trkpt lat="44.25027" lon="7.69907">
        <ele>1747.81</ele>
        <time>2021-01-09T11:13:30Z</time>
      </trkpt>
      <trkpt lat="44.25033" lon="7.69917">
        <ele>1752.14</ele>
        <time>2021-01-09T11:13:49Z</time>
      </trkpt>
      <trkpt lat="44.25035" lon="7.69925">
        <ele>1754.54</ele>
        <time>2021-01-09T11:14:06Z</time>
      </trkpt>
      <trkpt lat="44.25027" lon="7.69923">
        <ele>1755.02</ele>
        <time>2021-01-09T11:14:20Z</time>
      </trkpt>
      <trkpt lat="44.25019" lon="7.69924">
        <ele>1757.91</ele>
        <time>2021-01-09T11:14:35Z</time>
      </trkpt>
      <trkpt lat="44.25019" lon="7.69928">
        <ele>1761.27</ele>
        <time>2021-01-09T11:14:50Z</time>
      </trkpt>
      <trkpt lat="44.25025" lon="7.69938">
        <ele>1763.2</ele>
        <time>2021-01-09T11:15:06Z</time>
      </trkpt>
      <trkpt lat="44.25026" lon="7.6994">
        <ele>1763.68</ele>
        <time>2021-01-09T11:15:08Z</time>
      </trkpt>
      <trkpt lat="44.2503" lon="7.69947">
        <ele>1765.12</ele>
        <time>2021-01-09T11:15:22Z</time>
      </trkpt>
      <trkpt lat="44.25034" lon="7.69958">
        <ele>1766.56</ele>
        <time>2021-01-09T11:15:37Z</time>
      </trkpt>
      <trkpt lat="44.25037" lon="7.69967">
        <ele>1767.52</ele>
        <time>2021-01-09T11:15:52Z</time>
      </trkpt>
      <trkpt lat="44.25041" lon="7.69981">
        <ele>1770.41</ele>
        <time>2021-01-09T11:16:09Z</time>
      </trkpt>
      <trkpt lat="44.25042" lon="7.69989">
        <ele>1771.37</ele>
        <time>2021-01-09T11:16:23Z</time>
      </trkpt>
      <trkpt lat="44.25043" lon="7.69994">
        <ele>1771.37</ele>
        <time>2021-01-09T11:16:40Z</time>
      </trkpt>
      <trkpt lat="44.25045" lon="7.69999">
        <ele>1772.33</ele>
        <time>2021-01-09T11:16:54Z</time>
      </trkpt>
      <trkpt lat="44.25046" lon="7.70004">
        <ele>1774.25</ele>
        <time>2021-01-09T11:17:13Z</time>
      </trkpt>
      <trkpt lat="44.25047" lon="7.70018">
        <ele>1775.69</ele>
        <time>2021-01-09T11:17:28Z</time>
      </trkpt>
      <trkpt lat="44.2505" lon="7.7003">
        <ele>1778.1</ele>
        <time>2021-01-09T11:17:43Z</time>
      </trkpt>
      <trkpt lat="44.25052" lon="7.70039">
        <ele>1780.98</ele>
        <time>2021-01-09T11:17:59Z</time>
      </trkpt>
      <trkpt lat="44.25053" lon="7.70047">
        <ele>1783.86</ele>
        <time>2021-01-09T11:18:12Z</time>
      </trkpt>
      <trkpt lat="44.25051" lon="7.70062">
        <ele>1786.27</ele>
        <time>2021-01-09T11:18:29Z</time>
      </trkpt>
      <trkpt lat="44.25047" lon="7.70076">
        <ele>1787.71</ele>
        <time>2021-01-09T11:18:45Z</time>
      </trkpt>
      <trkpt lat="44.25042" lon="7.70086">
        <ele>1790.59</ele>
        <time>2021-01-09T11:19:01Z</time>
      </trkpt>
      <trkpt lat="44.25042" lon="7.7009">
        <ele>1792.52</ele>
        <time>2021-01-09T11:19:23Z</time>
      </trkpt>
      <trkpt lat="44.25042" lon="7.70091">
        <ele>1792.52</ele>
        <time>2021-01-09T11:19:24Z</time>
      </trkpt>
      <trkpt lat="44.25035" lon="7.70106">
        <ele>1795.88</ele>
        <time>2021-01-09T11:19:42Z</time>
      </trkpt>
      <trkpt lat="44.25031" lon="7.70113">
        <ele>1797.8</ele>
        <time>2021-01-09T11:19:52Z</time>
      </trkpt>
      <trkpt lat="44.25029" lon="7.70118">
        <ele>1800.21</ele>
        <time>2021-01-09T11:20:09Z</time>
      </trkpt>
      <trkpt lat="44.25023" lon="7.70129">
        <ele>1800.21</ele>
        <time>2021-01-09T11:20:21Z</time>
      </trkpt>
      <trkpt lat="44.25016" lon="7.70136">
        <ele>1802.61</ele>
        <time>2021-01-09T11:20:35Z</time>
      </trkpt>
      <trkpt lat="44.25007" lon="7.70145">
        <ele>1805.01</ele>
        <time>2021-01-09T11:20:51Z</time>
      </trkpt>
      <trkpt lat="44.25" lon="7.70148">
        <ele>1805.97</ele>
        <time>2021-01-09T11:21:05Z</time>
      </trkpt>
      <trkpt lat="44.24989" lon="7.70148">
        <ele>1806.45</ele>
        <time>2021-01-09T11:21:17Z</time>
      </trkpt>
      <trkpt lat="44.24978" lon="7.70147">
        <ele>1806.94</ele>
        <time>2021-01-09T11:21:33Z</time>
      </trkpt>
      <trkpt lat="44.24967" lon="7.70148">
        <ele>1808.38</ele>
        <time>2021-01-09T11:21:48Z</time>
      </trkpt>
      <trkpt lat="44.24959" lon="7.70154">
        <ele>1808.38</ele>
        <time>2021-01-09T11:21:58Z</time>
      </trkpt>
      <trkpt lat="44.24948" lon="7.70165">
        <ele>1808.86</ele>
        <time>2021-01-09T11:22:15Z</time>
      </trkpt>
      <trkpt lat="44.24939" lon="7.70175">
        <ele>1810.3</ele>
        <time>2021-01-09T11:22:30Z</time>
      </trkpt>
      <trkpt lat="44.24931" lon="7.70182">
        <ele>1813.18</ele>
        <time>2021-01-09T11:22:47Z</time>
      </trkpt>
      <trkpt lat="44.24923" lon="7.70184">
        <ele>1815.59</ele>
        <time>2021-01-09T11:23:01Z</time>
      </trkpt>
      <trkpt lat="44.24923" lon="7.70184">
        <ele>1816.07</ele>
        <time>2021-01-09T11:23:02Z</time>
      </trkpt>
      <trkpt lat="44.24911" lon="7.70187">
        <ele>1818.95</ele>
        <time>2021-01-09T11:23:19Z</time>
      </trkpt>
      <trkpt lat="44.24908" lon="7.70192">
        <ele>1819.43</ele>
        <time>2021-01-09T11:23:37Z</time>
      </trkpt>
      <trkpt lat="44.24903" lon="7.7019">
        <ele>1819.91</ele>
        <time>2021-01-09T11:23:50Z</time>
      </trkpt>
      <trkpt lat="44.249" lon="7.70193">
        <ele>1820.39</ele>
        <time>2021-01-09T11:24:06Z</time>
      </trkpt>
      <trkpt lat="44.24889" lon="7.70193">
        <ele>1818.95</ele>
        <time>2021-01-09T11:24:18Z</time>
      </trkpt>
      <trkpt lat="44.24879" lon="7.70197">
        <ele>1817.51</ele>
        <time>2021-01-09T11:24:32Z</time>
      </trkpt>
      <trkpt lat="44.24874" lon="7.70199">
        <ele>1815.59</ele>
        <time>2021-01-09T11:24:39Z</time>
      </trkpt>
      <trkpt lat="44.24862" lon="7.70208">
        <ele>1816.55</ele>
        <time>2021-01-09T11:24:57Z</time>
      </trkpt>
      <trkpt lat="44.24851" lon="7.70215">
        <ele>1817.99</ele>
        <time>2021-01-09T11:25:13Z</time>
      </trkpt>
      <trkpt lat="44.2484" lon="7.70222">
        <ele>1821.35</ele>
        <time>2021-01-09T11:25:30Z</time>
      </trkpt>
      <trkpt lat="44.24829" lon="7.70229">
        <ele>1823.76</ele>
        <time>2021-01-09T11:25:47Z</time>
      </trkpt>
      <trkpt lat="44.24819" lon="7.70237">
        <ele>1826.16</ele>
        <time>2021-01-09T11:26:02Z</time>
      </trkpt>
      <trkpt lat="44.24808" lon="7.70245">
        <ele>1828.08</ele>
        <time>2021-01-09T11:26:18Z</time>
      </trkpt>
      <trkpt lat="44.24796" lon="7.70253">
        <ele>1828.56</ele>
        <time>2021-01-09T11:26:35Z</time>
      </trkpt>
      <trkpt lat="44.24783" lon="7.70264">
        <ele>1830.97</ele>
        <time>2021-01-09T11:26:53Z</time>
      </trkpt>
      <trkpt lat="44.24775" lon="7.70272">
        <ele>1832.89</ele>
        <time>2021-01-09T11:27:08Z</time>
      </trkpt>
      <trkpt lat="44.2476" lon="7.70273">
        <ele>1835.77</ele>
        <time>2021-01-09T11:27:28Z</time>
      </trkpt>
      <trkpt lat="44.24749" lon="7.70278">
        <ele>1838.66</ele>
        <time>2021-01-09T11:27:43Z</time>
      </trkpt>
      <trkpt lat="44.24742" lon="7.70285">
        <ele>1842.5</ele>
        <time>2021-01-09T11:27:58Z</time>
      </trkpt>
      <trkpt lat="44.24735" lon="7.70293">
        <ele>1845.87</ele>
        <time>2021-01-09T11:28:13Z</time>
      </trkpt>
      <trkpt lat="44.24726" lon="7.70302">
        <ele>1850.19</ele>
        <time>2021-01-09T11:28:33Z</time>
      </trkpt>
      <trkpt lat="44.24717" lon="7.70312">
        <ele>1854.04</ele>
        <time>2021-01-09T11:28:55Z</time>
      </trkpt>
      <trkpt lat="44.24712" lon="7.70316">
        <ele>1855</ele>
        <time>2021-01-09T11:29:10Z</time>
      </trkpt>
      <trkpt lat="44.24703" lon="7.70321">
        <ele>1858.37</ele>
        <time>2021-01-09T11:29:28Z</time>
      </trkpt>
      <trkpt lat="44.24698" lon="7.70324">
        <ele>1858.85</ele>
        <time>2021-01-09T11:29:51Z</time>
      </trkpt>
      <trkpt lat="44.24692" lon="7.7033">
        <ele>1858.37</ele>
        <time>2021-01-09T11:30:05Z</time>
      </trkpt>
      <trkpt lat="44.24682" lon="7.70339">
        <ele>1861.73</ele>
        <time>2021-01-09T11:30:22Z</time>
      </trkpt>
      <trkpt lat="44.24673" lon="7.70348">
        <ele>1865.58</ele>
        <time>2021-01-09T11:30:39Z</time>
      </trkpt>
      <trkpt lat="44.24665" lon="7.70354">
        <ele>1867.98</ele>
        <time>2021-01-09T11:30:55Z</time>
      </trkpt>
      <trkpt lat="44.24655" lon="7.70368">
        <ele>1871.82</ele>
        <time>2021-01-09T11:31:18Z</time>
      </trkpt>
      <trkpt lat="44.24646" lon="7.70381">
        <ele>1873.75</ele>
        <time>2021-01-09T11:31:36Z</time>
      </trkpt>
      <trkpt lat="44.24645" lon="7.70382">
        <ele>1873.75</ele>
        <time>2021-01-09T11:31:37Z</time>
      </trkpt>
      <trkpt lat="44.24637" lon="7.70392">
        <ele>1875.19</ele>
        <time>2021-01-09T11:31:54Z</time>
      </trkpt>
      <trkpt lat="44.24631" lon="7.704">
        <ele>1877.59</ele>
        <time>2021-01-09T11:32:11Z</time>
      </trkpt>
      <trkpt lat="44.24623" lon="7.70405">
        <ele>1880.48</ele>
        <time>2021-01-09T11:32:27Z</time>
      </trkpt>
      <trkpt lat="44.24615" lon="7.70405">
        <ele>1883.36</ele>
        <time>2021-01-09T11:32:43Z</time>
      </trkpt>
      <trkpt lat="44.24616" lon="7.70396">
        <ele>1882.88</ele>
        <time>2021-01-09T11:32:56Z</time>
      </trkpt>
      <trkpt lat="44.24615" lon="7.70386">
        <ele>1882.88</ele>
        <time>2021-01-09T11:33:13Z</time>
      </trkpt>
      <trkpt lat="44.24614" lon="7.70374">
        <ele>1885.76</ele>
        <time>2021-01-09T11:33:27Z</time>
      </trkpt>
      <trkpt lat="44.24609" lon="7.70362">
        <ele>1888.17</ele>
        <time>2021-01-09T11:33:44Z</time>
      </trkpt>
      <trkpt lat="44.24607" lon="7.7036">
        <ele>1888.65</ele>
        <time>2021-01-09T11:33:59Z</time>
      </trkpt>
      <trkpt lat="44.24609" lon="7.70356">
        <ele>1887.69</ele>
        <time>2021-01-09T11:34:11Z</time>
      </trkpt>
      <trkpt lat="44.24609" lon="7.7035">
        <ele>1887.21</ele>
        <time>2021-01-09T11:34:24Z</time>
      </trkpt>
      <trkpt lat="44.24607" lon="7.70352">
        <ele>1888.65</ele>
        <time>2021-01-09T11:34:44Z</time>
      </trkpt>
      <trkpt lat="44.24609" lon="7.70354">
        <ele>1887.21</ele>
        <time>2021-01-09T11:34:56Z</time>
      </trkpt>
      <trkpt lat="44.2461" lon="7.70356">
        <ele>1892.01</ele>
        <time>2021-01-09T11:35:27Z</time>
      </trkpt>
      <trkpt lat="44.2461" lon="7.70357">
        <ele>1893.93</ele>
        <time>2021-01-09T11:36:01Z</time>
      </trkpt>
      <trkpt lat="44.24611" lon="7.70357">
        <ele>1895.86</ele>
        <time>2021-01-09T11:36:30Z</time>
      </trkpt>
      <trkpt lat="44.24612" lon="7.70355">
        <ele>1897.3</ele>
        <time>2021-01-09T11:37:06Z</time>
      </trkpt>
      <trkpt lat="44.24611" lon="7.70353">
        <ele>1898.26</ele>
        <time>2021-01-09T11:37:37Z</time>
      </trkpt>
      <trkpt lat="44.24612" lon="7.70353">
        <ele>1895.86</ele>
        <time>2021-01-09T11:38:15Z</time>
      </trkpt>
      <trkpt lat="44.24612" lon="7.70352">
        <ele>1894.42</ele>
        <time>2021-01-09T11:38:43Z</time>
      </trkpt>
      <trkpt lat="44.24613" lon="7.70353">
        <ele>1897.3</ele>
        <time>2021-01-09T11:39:21Z</time>
      </trkpt>
      <trkpt lat="44.24613" lon="7.70355">
        <ele>1898.26</ele>
        <time>2021-01-09T11:39:50Z</time>
      </trkpt>
      <trkpt lat="44.24612" lon="7.70353">
        <ele>1896.34</ele>
        <time>2021-01-09T11:40:18Z</time>
      </trkpt>
      <trkpt lat="44.24612" lon="7.70354">
        <ele>1893.93</ele>
        <time>2021-01-09T11:41:02Z</time>
      </trkpt>
      <trkpt lat="44.24612" lon="7.70354">
        <ele>1893.93</ele>
        <time>2021-01-09T11:41:31Z</time>
      </trkpt>
      <trkpt lat="44.24611" lon="7.70355">
        <ele>1893.45</ele>
        <time>2021-01-09T11:42:00Z</time>
      </trkpt>
      <trkpt lat="44.24611" lon="7.70354">
        <ele>1893.93</ele>
        <time>2021-01-09T11:42:18Z</time>
      </trkpt>
      <trkpt lat="44.24611" lon="7.70353">
        <ele>1893.93</ele>
        <time>2021-01-09T11:42:42Z</time>
      </trkpt>
      <trkpt lat="44.24613" lon="7.70352">
        <ele>1894.42</ele>
        <time>2021-01-09T11:43:09Z</time>
      </trkpt>
      <trkpt lat="44.24613" lon="7.70353">
        <ele>1894.42</ele>
        <time>2021-01-09T11:43:45Z</time>
      </trkpt>
      <trkpt lat="44.24613" lon="7.70352">
        <ele>1894.42</ele>
        <time>2021-01-09T11:44:20Z</time>
      </trkpt>
      <trkpt lat="44.24612" lon="7.70352">
        <ele>1895.38</ele>
        <time>2021-01-09T11:44:58Z</time>
      </trkpt>
      <trkpt lat="44.24613" lon="7.70353">
        <ele>1894.9</ele>
        <time>2021-01-09T11:45:34Z</time>
      </trkpt>
      <trkpt lat="44.24613" lon="7.70354">
        <ele>1893.93</ele>
        <time>2021-01-09T11:45:55Z</time>
      </trkpt>
      <trkpt lat="44.24611" lon="7.70353">
        <ele>1895.38</ele>
        <time>2021-01-09T11:46:11Z</time>
      </trkpt>
      <trkpt lat="44.24612" lon="7.70355">
        <ele>1895.86</ele>
        <time>2021-01-09T11:46:32Z</time>
      </trkpt>
      <trkpt lat="44.2461" lon="7.70358">
        <ele>1894.9</ele>
        <time>2021-01-09T11:46:59Z</time>
      </trkpt>
      <trkpt lat="44.24617" lon="7.70351">
        <ele>1892.01</ele>
        <time>2021-01-09T11:47:25Z</time>
      </trkpt>
      <trkpt lat="44.24614" lon="7.70353">
        <ele>1892.01</ele>
        <time>2021-01-09T11:47:48Z</time>
      </trkpt>
      <trkpt lat="44.24613" lon="7.70357">
        <ele>1890.09</ele>
        <time>2021-01-09T11:48:32Z</time>
      </trkpt>
      <trkpt lat="44.24615" lon="7.70354">
        <ele>1884.32</ele>
        <time>2021-01-09T11:48:52Z</time>
      </trkpt>
      <trkpt lat="44.24611" lon="7.70357">
        <ele>1886.72</ele>
        <time>2021-01-09T11:49:15Z</time>
      </trkpt>
      <trkpt lat="44.24609" lon="7.70355">
        <ele>1895.86</ele>
        <time>2021-01-09T11:50:07Z</time>
      </trkpt>
      <trkpt lat="44.2461" lon="7.70355">
        <ele>1897.78</ele>
        <time>2021-01-09T11:50:56Z</time>
      </trkpt>
      <trkpt lat="44.2461" lon="7.70354">
        <ele>1895.86</ele>
        <time>2021-01-09T11:51:27Z</time>
      </trkpt>
      <trkpt lat="44.24611" lon="7.70354">
        <ele>1895.86</ele>
        <time>2021-01-09T11:52:06Z</time>
      </trkpt>
      <trkpt lat="44.24611" lon="7.70355">
        <ele>1894.9</ele>
        <time>2021-01-09T11:52:40Z</time>
      </trkpt>
      <trkpt lat="44.24611" lon="7.70355">
        <ele>1895.86</ele>
        <time>2021-01-09T11:53:17Z</time>
      </trkpt>
      <trkpt lat="44.24611" lon="7.70354">
        <ele>1895.38</ele>
        <time>2021-01-09T11:53:35Z</time>
      </trkpt>
      <trkpt lat="44.24609" lon="7.70359">
        <ele>1895.86</ele>
        <time>2021-01-09T11:53:50Z</time>
      </trkpt>
      <trkpt lat="44.24608" lon="7.70365">
        <ele>1894.9</ele>
        <time>2021-01-09T11:54:02Z</time>
      </trkpt>
      <trkpt lat="44.24606" lon="7.70372">
        <ele>1895.38</ele>
        <time>2021-01-09T11:54:13Z</time>
      </trkpt>
      <trkpt lat="44.24606" lon="7.70376">
        <ele>1896.34</ele>
        <time>2021-01-09T11:54:26Z</time>
      </trkpt>
      <trkpt lat="44.24606" lon="7.70376">
        <ele>1896.34</ele>
        <time>2021-01-09T11:54:46Z</time>
      </trkpt>
      <trkpt lat="44.24605" lon="7.70378">
        <ele>1896.34</ele>
        <time>2021-01-09T11:54:57Z</time>
      </trkpt>
      <trkpt lat="44.24605" lon="7.70378">
        <ele>1893.93</ele>
        <time>2021-01-09T11:55:07Z</time>
      </trkpt>
      <trkpt lat="44.24605" lon="7.70375">
        <ele>1893.45</ele>
        <time>2021-01-09T11:55:37Z</time>
      </trkpt>
      <trkpt lat="44.24605" lon="7.70375">
        <ele>1894.9</ele>
        <time>2021-01-09T11:56:22Z</time>
      </trkpt>
      <trkpt lat="44.24606" lon="7.70374">
        <ele>1894.9</ele>
        <time>2021-01-09T11:57:01Z</time>
      </trkpt>
      <trkpt lat="44.24605" lon="7.70375">
        <ele>1895.38</ele>
        <time>2021-01-09T11:57:13Z</time>
      </trkpt>
      <trkpt lat="44.24605" lon="7.70377">
        <ele>1896.34</ele>
        <time>2021-01-09T11:57:32Z</time>
      </trkpt>
      <trkpt lat="44.24607" lon="7.70372">
        <ele>1895.86</ele>
        <time>2021-01-09T11:57:43Z</time>
      </trkpt>
      <trkpt lat="44.24611" lon="7.70364">
        <ele>1894.42</ele>
        <time>2021-01-09T11:57:58Z</time>
      </trkpt>
      <trkpt lat="44.24611" lon="7.70356">
        <ele>1894.42</ele>
        <time>2021-01-09T11:58:10Z</time>
      </trkpt>
      <trkpt lat="44.24611" lon="7.70356">
        <ele>1894.9</ele>
        <time>2021-01-09T11:58:25Z</time>
      </trkpt>
      <trkpt lat="44.2461" lon="7.70355">
        <ele>1893.93</ele>
        <time>2021-01-09T11:58:29Z</time>
      </trkpt>
      <trkpt lat="44.2461" lon="7.70354">
        <ele>1890.57</ele>
        <time>2021-01-09T11:58:49Z</time>
      </trkpt>
      <trkpt lat="44.24609" lon="7.70354">
        <ele>1892.49</ele>
        <time>2021-01-09T11:59:27Z</time>
      </trkpt>
      <trkpt lat="44.2461" lon="7.70356">
        <ele>1895.38</ele>
        <time>2021-01-09T11:59:49Z</time>
      </trkpt>
      <trkpt lat="44.24611" lon="7.70355">
        <ele>1895.86</ele>
        <time>2021-01-09T12:00:03Z</time>
      </trkpt>
      <trkpt lat="44.24612" lon="7.70355">
        <ele>1895.38</ele>
        <time>2021-01-09T12:00:23Z</time>
      </trkpt>
      <trkpt lat="44.24611" lon="7.70356">
        <ele>1895.38</ele>
        <time>2021-01-09T12:00:37Z</time>
      </trkpt>
      <trkpt lat="44.24613" lon="7.70357">
        <ele>1895.86</ele>
        <time>2021-01-09T12:00:55Z</time>
      </trkpt>
      <trkpt lat="44.24613" lon="7.70356">
        <ele>1896.82</ele>
        <time>2021-01-09T12:01:09Z</time>
      </trkpt>
      <trkpt lat="44.24613" lon="7.70356">
        <ele>1896.34</ele>
        <time>2021-01-09T12:01:23Z</time>
      </trkpt>
      <trkpt lat="44.24612" lon="7.70355">
        <ele>1896.34</ele>
        <time>2021-01-09T12:01:37Z</time>
      </trkpt>
      <trkpt lat="44.2461" lon="7.70357">
        <ele>1895.38</ele>
        <time>2021-01-09T12:01:52Z</time>
      </trkpt>
      <trkpt lat="44.2461" lon="7.70359">
        <ele>1895.38</ele>
        <time>2021-01-09T12:02:03Z</time>
      </trkpt>
      <trkpt lat="44.2461" lon="7.70362">
        <ele>1894.42</ele>
        <time>2021-01-09T12:02:10Z</time>
      </trkpt>
      <trkpt lat="44.24613" lon="7.70372">
        <ele>1893.45</ele>
        <time>2021-01-09T12:02:16Z</time>
      </trkpt>
      <trkpt lat="44.24616" lon="7.70381">
        <ele>1892.01</ele>
        <time>2021-01-09T12:02:28Z</time>
      </trkpt>
      <trkpt lat="44.24616" lon="7.70382">
        <ele>1892.01</ele>
        <time>2021-01-09T12:02:29Z</time>
      </trkpt>
      <trkpt lat="44.24616" lon="7.70404">
        <ele>1889.13</ele>
        <time>2021-01-09T12:02:41Z</time>
      </trkpt>
      <trkpt lat="44.24616" lon="7.70407">
        <ele>1888.65</ele>
        <time>2021-01-09T12:02:42Z</time>
      </trkpt>
      <trkpt lat="44.24622" lon="7.70406">
        <ele>1886.72</ele>
        <time>2021-01-09T12:02:50Z</time>
      </trkpt>
      <trkpt lat="44.24622" lon="7.70406">
        <ele>1886.24</ele>
        <time>2021-01-09T12:02:53Z</time>
      </trkpt>
      <trkpt lat="44.24624" lon="7.70403">
        <ele>1885.76</ele>
        <time>2021-01-09T12:02:58Z</time>
      </trkpt>
      <trkpt lat="44.24629" lon="7.70399">
        <ele>1884.32</ele>
        <time>2021-01-09T12:03:01Z</time>
      </trkpt>
      <trkpt lat="44.24632" lon="7.70397">
        <ele>1883.84</ele>
        <time>2021-01-09T12:03:02Z</time>
      </trkpt>
      <trkpt lat="44.24634" lon="7.70393">
        <ele>1882.88</ele>
        <time>2021-01-09T12:03:03Z</time>
      </trkpt>
      <trkpt lat="44.24635" lon="7.70389">
        <ele>1881.92</ele>
        <time>2021-01-09T12:03:04Z</time>
      </trkpt>
      <trkpt lat="44.24636" lon="7.70385">
        <ele>1880.96</ele>
        <time>2021-01-09T12:03:05Z</time>
      </trkpt>
      <trkpt lat="44.24637" lon="7.70381">
        <ele>1880</ele>
        <time>2021-01-09T12:03:06Z</time>
      </trkpt>
      <trkpt lat="44.24639" lon="7.70379">
        <ele>1879.51</ele>
        <time>2021-01-09T12:03:07Z</time>
      </trkpt>
      <trkpt lat="44.24642" lon="7.70379">
        <ele>1878.55</ele>
        <time>2021-01-09T12:03:08Z</time>
      </trkpt>
      <trkpt lat="44.24645" lon="7.7038">
        <ele>1878.07</ele>
        <time>2021-01-09T12:03:09Z</time>
      </trkpt>
      <trkpt lat="44.24668" lon="7.70377">
        <ele>1874.71</ele>
        <time>2021-01-09T12:03:15Z</time>
      </trkpt>
      <trkpt lat="44.24671" lon="7.70373">
        <ele>1874.23</ele>
        <time>2021-01-09T12:03:16Z</time>
      </trkpt>
      <trkpt lat="44.24674" lon="7.70369">
        <ele>1872.79</ele>
        <time>2021-01-09T12:03:17Z</time>
      </trkpt>
      <trkpt lat="44.24677" lon="7.70367">
        <ele>1871.82</ele>
        <time>2021-01-09T12:03:18Z</time>
      </trkpt>
      <trkpt lat="44.24681" lon="7.70366">
        <ele>1871.34</ele>
        <time>2021-01-09T12:03:19Z</time>
      </trkpt>
      <trkpt lat="44.24686" lon="7.70364">
        <ele>1870.38</ele>
        <time>2021-01-09T12:03:20Z</time>
      </trkpt>
      <trkpt lat="44.24695" lon="7.70361">
        <ele>1868.46</ele>
        <time>2021-01-09T12:03:22Z</time>
      </trkpt>
      <trkpt lat="44.24699" lon="7.70357">
        <ele>1867.02</ele>
        <time>2021-01-09T12:03:23Z</time>
      </trkpt>
      <trkpt lat="44.24701" lon="7.70353">
        <ele>1866.06</ele>
        <time>2021-01-09T12:03:24Z</time>
      </trkpt>
      <trkpt lat="44.24704" lon="7.70349">
        <ele>1865.09</ele>
        <time>2021-01-09T12:03:25Z</time>
      </trkpt>
      <trkpt lat="44.24708" lon="7.70348">
        <ele>1864.13</ele>
        <time>2021-01-09T12:03:26Z</time>
      </trkpt>
      <trkpt lat="44.24713" lon="7.70349">
        <ele>1863.17</ele>
        <time>2021-01-09T12:03:27Z</time>
      </trkpt>
      <trkpt lat="44.24719" lon="7.70348">
        <ele>1862.21</ele>
        <time>2021-01-09T12:03:28Z</time>
      </trkpt>
      <trkpt lat="44.24723" lon="7.70346">
        <ele>1861.25</ele>
        <time>2021-01-09T12:03:29Z</time>
      </trkpt>
      <trkpt lat="44.24725" lon="7.70341">
        <ele>1860.29</ele>
        <time>2021-01-09T12:03:30Z</time>
      </trkpt>
      <trkpt lat="44.24726" lon="7.70336">
        <ele>1859.33</ele>
        <time>2021-01-09T12:03:31Z</time>
      </trkpt>
      <trkpt lat="44.24727" lon="7.7033">
        <ele>1857.89</ele>
        <time>2021-01-09T12:03:32Z</time>
      </trkpt>
      <trkpt lat="44.2473" lon="7.70326">
        <ele>1856.92</ele>
        <time>2021-01-09T12:03:33Z</time>
      </trkpt>
      <trkpt lat="44.24735" lon="7.70325">
        <ele>1855.96</ele>
        <time>2021-01-09T12:03:34Z</time>
      </trkpt>
      <trkpt lat="44.2474" lon="7.70324">
        <ele>1854.52</ele>
        <time>2021-01-09T12:03:35Z</time>
      </trkpt>
      <trkpt lat="44.24744" lon="7.70321">
        <ele>1853.56</ele>
        <time>2021-01-09T12:03:36Z</time>
      </trkpt>
      <trkpt lat="44.24748" lon="7.70316">
        <ele>1852.12</ele>
        <time>2021-01-09T12:03:37Z</time>
      </trkpt>
      <trkpt lat="44.24753" lon="7.70312">
        <ele>1850.68</ele>
        <time>2021-01-09T12:03:38Z</time>
      </trkpt>
      <trkpt lat="44.24758" lon="7.70307">
        <ele>1849.23</ele>
        <time>2021-01-09T12:03:39Z</time>
      </trkpt>
      <trkpt lat="44.24763" lon="7.70301">
        <ele>1847.79</ele>
        <time>2021-01-09T12:03:40Z</time>
      </trkpt>
      <trkpt lat="44.24766" lon="7.70295">
        <ele>1846.83</ele>
        <time>2021-01-09T12:03:41Z</time>
      </trkpt>
      <trkpt lat="44.24769" lon="7.70288">
        <ele>1845.87</ele>
        <time>2021-01-09T12:03:42Z</time>
      </trkpt>
      <trkpt lat="44.24773" lon="7.70282">
        <ele>1845.39</ele>
        <time>2021-01-09T12:03:43Z</time>
      </trkpt>
      <trkpt lat="44.24777" lon="7.70278">
        <ele>1844.43</ele>
        <time>2021-01-09T12:03:44Z</time>
      </trkpt>
      <trkpt lat="44.24782" lon="7.70273">
        <ele>1843.47</ele>
        <time>2021-01-09T12:03:45Z</time>
      </trkpt>
      <trkpt lat="44.24787" lon="7.70269">
        <ele>1842.5</ele>
        <time>2021-01-09T12:03:46Z</time>
      </trkpt>
      <trkpt lat="44.24816" lon="7.70237">
        <ele>1838.18</ele>
        <time>2021-01-09T12:03:56Z</time>
      </trkpt>
      <trkpt lat="44.24847" lon="7.70213">
        <ele>1832.89</ele>
        <time>2021-01-09T12:04:04Z</time>
      </trkpt>
      <trkpt lat="44.24851" lon="7.7021">
        <ele>1831.93</ele>
        <time>2021-01-09T12:04:05Z</time>
      </trkpt>
      <trkpt lat="44.24897" lon="7.70184">
        <ele>1826.16</ele>
        <time>2021-01-09T12:04:17Z</time>
      </trkpt>
      <trkpt lat="44.24931" lon="7.70179">
        <ele>1822.32</ele>
        <time>2021-01-09T12:04:27Z</time>
      </trkpt>
      <trkpt lat="44.24934" lon="7.70177">
        <ele>1822.32</ele>
        <time>2021-01-09T12:04:28Z</time>
      </trkpt>
      <trkpt lat="44.24932" lon="7.70175">
        <ele>1820.87</ele>
        <time>2021-01-09T12:04:37Z</time>
      </trkpt>
      <trkpt lat="44.24932" lon="7.70174">
        <ele>1819.91</ele>
        <time>2021-01-09T12:04:53Z</time>
      </trkpt>
      <trkpt lat="44.24933" lon="7.70173">
        <ele>1819.91</ele>
        <time>2021-01-09T12:05:09Z</time>
      </trkpt>
      <trkpt lat="44.24936" lon="7.70173">
        <ele>1819.43</ele>
        <time>2021-01-09T12:05:21Z</time>
      </trkpt>
      <trkpt lat="44.24938" lon="7.70171">
        <ele>1818.95</ele>
        <time>2021-01-09T12:05:22Z</time>
      </trkpt>
      <trkpt lat="44.24959" lon="7.70156">
        <ele>1815.59</ele>
        <time>2021-01-09T12:05:29Z</time>
      </trkpt>
      <trkpt lat="44.24963" lon="7.70154">
        <ele>1815.11</ele>
        <time>2021-01-09T12:05:30Z</time>
      </trkpt>
      <trkpt lat="44.24979" lon="7.70148">
        <ele>1813.66</ele>
        <time>2021-01-09T12:05:37Z</time>
      </trkpt>
      <trkpt lat="44.2498" lon="7.70147">
        <ele>1813.66</ele>
        <time>2021-01-09T12:05:38Z</time>
      </trkpt>
      <trkpt lat="44.24983" lon="7.70146">
        <ele>1813.66</ele>
        <time>2021-01-09T12:05:40Z</time>
      </trkpt>
      <trkpt lat="44.24985" lon="7.70145">
        <ele>1813.66</ele>
        <time>2021-01-09T12:05:41Z</time>
      </trkpt>
      <trkpt lat="44.24986" lon="7.70145">
        <ele>1813.66</ele>
        <time>2021-01-09T12:05:42Z</time>
      </trkpt>
      <trkpt lat="44.2501" lon="7.70138">
        <ele>1811.26</ele>
        <time>2021-01-09T12:05:51Z</time>
      </trkpt>
      <trkpt lat="44.25018" lon="7.70133">
        <ele>1810.3</ele>
        <time>2021-01-09T12:05:54Z</time>
      </trkpt>
      <trkpt lat="44.2502" lon="7.70131">
        <ele>1809.82</ele>
        <time>2021-01-09T12:05:55Z</time>
      </trkpt>
      <trkpt lat="44.25021" lon="7.70129">
        <ele>1809.82</ele>
        <time>2021-01-09T12:05:56Z</time>
      </trkpt>
      <trkpt lat="44.25022" lon="7.70127">
        <ele>1809.34</ele>
        <time>2021-01-09T12:05:57Z</time>
      </trkpt>
      <trkpt lat="44.25025" lon="7.70124">
        <ele>1808.86</ele>
        <time>2021-01-09T12:05:58Z</time>
      </trkpt>
      <trkpt lat="44.25027" lon="7.70123">
        <ele>1808.38</ele>
        <time>2021-01-09T12:05:59Z</time>
      </trkpt>
      <trkpt lat="44.25031" lon="7.70124">
        <ele>1807.42</ele>
        <time>2021-01-09T12:06:00Z</time>
      </trkpt>
      <trkpt lat="44.25039" lon="7.70125">
        <ele>1805.49</ele>
        <time>2021-01-09T12:06:02Z</time>
      </trkpt>
      <trkpt lat="44.25041" lon="7.70123">
        <ele>1804.53</ele>
        <time>2021-01-09T12:06:03Z</time>
      </trkpt>
      <trkpt lat="44.2505" lon="7.70114">
        <ele>1802.61</ele>
        <time>2021-01-09T12:06:06Z</time>
      </trkpt>
      <trkpt lat="44.25053" lon="7.70109">
        <ele>1801.65</ele>
        <time>2021-01-09T12:06:07Z</time>
      </trkpt>
      <trkpt lat="44.25057" lon="7.70107">
        <ele>1800.69</ele>
        <time>2021-01-09T12:06:08Z</time>
      </trkpt>
      <trkpt lat="44.25062" lon="7.70107">
        <ele>1799.73</ele>
        <time>2021-01-09T12:06:09Z</time>
      </trkpt>
      <trkpt lat="44.25067" lon="7.70107">
        <ele>1798.76</ele>
        <time>2021-01-09T12:06:10Z</time>
      </trkpt>
      <trkpt lat="44.25072" lon="7.70106">
        <ele>1797.8</ele>
        <time>2021-01-09T12:06:11Z</time>
      </trkpt>
      <trkpt lat="44.25076" lon="7.70102">
        <ele>1796.36</ele>
        <time>2021-01-09T12:06:12Z</time>
      </trkpt>
      <trkpt lat="44.2508" lon="7.701">
        <ele>1795.4</ele>
        <time>2021-01-09T12:06:13Z</time>
      </trkpt>
      <trkpt lat="44.25085" lon="7.70101">
        <ele>1794.44</ele>
        <time>2021-01-09T12:06:14Z</time>
      </trkpt>
      <trkpt lat="44.25089" lon="7.70101">
        <ele>1793</ele>
        <time>2021-01-09T12:06:15Z</time>
      </trkpt>
      <trkpt lat="44.25094" lon="7.701">
        <ele>1792.03</ele>
        <time>2021-01-09T12:06:16Z</time>
      </trkpt>
      <trkpt lat="44.25099" lon="7.70099">
        <ele>1790.59</ele>
        <time>2021-01-09T12:06:17Z</time>
      </trkpt>
      <trkpt lat="44.25103" lon="7.70099">
        <ele>1789.63</ele>
        <time>2021-01-09T12:06:18Z</time>
      </trkpt>
      <trkpt lat="44.25108" lon="7.70101">
        <ele>1788.67</ele>
        <time>2021-01-09T12:06:19Z</time>
      </trkpt>
      <trkpt lat="44.25117" lon="7.70104">
        <ele>1786.75</ele>
        <time>2021-01-09T12:06:21Z</time>
      </trkpt>
      <trkpt lat="44.2512" lon="7.70103">
        <ele>1785.79</ele>
        <time>2021-01-09T12:06:22Z</time>
      </trkpt>
      <trkpt lat="44.25118" lon="7.70095">
        <ele>1783.38</ele>
        <time>2021-01-09T12:06:30Z</time>
      </trkpt>
      <trkpt lat="44.25117" lon="7.70095">
        <ele>1782.42</ele>
        <time>2021-01-09T12:06:47Z</time>
      </trkpt>
      <trkpt lat="44.25116" lon="7.70088">
        <ele>1780.98</ele>
        <time>2021-01-09T12:07:02Z</time>
      </trkpt>
      <trkpt lat="44.25116" lon="7.70069">
        <ele>1779.06</ele>
        <time>2021-01-09T12:07:06Z</time>
      </trkpt>
      <trkpt lat="44.25114" lon="7.70063">
        <ele>1778.58</ele>
        <time>2021-01-09T12:07:17Z</time>
      </trkpt>
      <trkpt lat="44.25114" lon="7.7006">
        <ele>1778.58</ele>
        <time>2021-01-09T12:07:21Z</time>
      </trkpt>
      <trkpt lat="44.25102" lon="7.70018">
        <ele>1774.25</ele>
        <time>2021-01-09T12:07:34Z</time>
      </trkpt>
      <trkpt lat="44.25098" lon="7.70013">
        <ele>1772.81</ele>
        <time>2021-01-09T12:07:43Z</time>
      </trkpt>
      <trkpt lat="44.25099" lon="7.70013">
        <ele>1772.33</ele>
        <time>2021-01-09T12:08:05Z</time>
      </trkpt>
      <trkpt lat="44.25098" lon="7.70013">
        <ele>1771.85</ele>
        <time>2021-01-09T12:08:34Z</time>
      </trkpt>
      <trkpt lat="44.25097" lon="7.70012">
        <ele>1771.37</ele>
        <time>2021-01-09T12:08:50Z</time>
      </trkpt>
      <trkpt lat="44.25095" lon="7.70003">
        <ele>1770.89</ele>
        <time>2021-01-09T12:08:58Z</time>
      </trkpt>
      <trkpt lat="44.25106" lon="7.70003">
        <ele>1768.48</ele>
        <time>2021-01-09T12:09:02Z</time>
      </trkpt>
      <trkpt lat="44.2512" lon="7.69986">
        <ele>1761.75</ele>
        <time>2021-01-09T12:09:08Z</time>
      </trkpt>
      <trkpt lat="44.25131" lon="7.69963">
        <ele>1757.91</ele>
        <time>2021-01-09T12:09:13Z</time>
      </trkpt>
      <trkpt lat="44.25139" lon="7.69951">
        <ele>1748.78</ele>
        <time>2021-01-09T12:09:21Z</time>
      </trkpt>
      <trkpt lat="44.25136" lon="7.6995">
        <ele>1746.85</ele>
        <time>2021-01-09T12:09:40Z</time>
      </trkpt>
      <trkpt lat="44.25135" lon="7.69949">
        <ele>1747.33</ele>
        <time>2021-01-09T12:09:55Z</time>
      </trkpt>
      <trkpt lat="44.25135" lon="7.69947">
        <ele>1747.33</ele>
        <time>2021-01-09T12:10:01Z</time>
      </trkpt>
      <trkpt lat="44.2512" lon="7.69907">
        <ele>1738.2</ele>
        <time>2021-01-09T12:10:10Z</time>
      </trkpt>
      <trkpt lat="44.25109" lon="7.69885">
        <ele>1734.36</ele>
        <time>2021-01-09T12:10:19Z</time>
      </trkpt>
      <trkpt lat="44.25096" lon="7.69861">
        <ele>1728.11</ele>
        <time>2021-01-09T12:10:28Z</time>
      </trkpt>
      <trkpt lat="44.25096" lon="7.69858">
        <ele>1727.15</ele>
        <time>2021-01-09T12:10:29Z</time>
      </trkpt>
      <trkpt lat="44.25087" lon="7.69821">
        <ele>1717.53</ele>
        <time>2021-01-09T12:10:37Z</time>
      </trkpt>
      <trkpt lat="44.25082" lon="7.69809">
        <ele>1713.69</ele>
        <time>2021-01-09T12:10:46Z</time>
      </trkpt>
      <trkpt lat="44.25075" lon="7.69801">
        <ele>1713.69</ele>
        <time>2021-01-09T12:11:00Z</time>
      </trkpt>
      <trkpt lat="44.25072" lon="7.69796">
        <ele>1713.69</ele>
        <time>2021-01-09T12:11:09Z</time>
      </trkpt>
      <trkpt lat="44.25068" lon="7.6978">
        <ele>1709.84</ele>
        <time>2021-01-09T12:11:12Z</time>
      </trkpt>
      <trkpt lat="44.25061" lon="7.69734">
        <ele>1693.5</ele>
        <time>2021-01-09T12:11:20Z</time>
      </trkpt>
      <trkpt lat="44.2506" lon="7.69713">
        <ele>1687.25</ele>
        <time>2021-01-09T12:11:23Z</time>
      </trkpt>
      <trkpt lat="44.2506" lon="7.69705">
        <ele>1684.37</ele>
        <time>2021-01-09T12:11:24Z</time>
      </trkpt>
      <trkpt lat="44.25059" lon="7.69698">
        <ele>1682.93</ele>
        <time>2021-01-09T12:11:25Z</time>
      </trkpt>
      <trkpt lat="44.25052" lon="7.69641">
        <ele>1670.43</ele>
        <time>2021-01-09T12:11:32Z</time>
      </trkpt>
      <trkpt lat="44.25046" lon="7.69616">
        <ele>1667.06</ele>
        <time>2021-01-09T12:11:38Z</time>
      </trkpt>
      <trkpt lat="44.25046" lon="7.69614">
        <ele>1666.58</ele>
        <time>2021-01-09T12:11:39Z</time>
      </trkpt>
      <trkpt lat="44.25044" lon="7.69609">
        <ele>1666.1</ele>
        <time>2021-01-09T12:11:49Z</time>
      </trkpt>
      <trkpt lat="44.25042" lon="7.69607">
        <ele>1666.1</ele>
        <time>2021-01-09T12:11:51Z</time>
      </trkpt>
      <trkpt lat="44.25041" lon="7.69606">
        <ele>1666.1</ele>
        <time>2021-01-09T12:11:52Z</time>
      </trkpt>
      <trkpt lat="44.25039" lon="7.69605">
        <ele>1666.1</ele>
        <time>2021-01-09T12:11:53Z</time>
      </trkpt>
      <trkpt lat="44.25037" lon="7.69605">
        <ele>1666.58</ele>
        <time>2021-01-09T12:12:02Z</time>
      </trkpt>
      <trkpt lat="44.25037" lon="7.69604">
        <ele>1668.02</ele>
        <time>2021-01-09T12:12:27Z</time>
      </trkpt>
      <trkpt lat="44.25036" lon="7.69603">
        <ele>1670.91</ele>
        <time>2021-01-09T12:13:07Z</time>
      </trkpt>
      <trkpt lat="44.25036" lon="7.69604">
        <ele>1671.39</ele>
        <time>2021-01-09T12:13:36Z</time>
      </trkpt>
      <trkpt lat="44.25037" lon="7.69606">
        <ele>1670.43</ele>
        <time>2021-01-09T12:13:50Z</time>
      </trkpt>
      <trkpt lat="44.25038" lon="7.69603">
        <ele>1671.87</ele>
        <time>2021-01-09T12:14:09Z</time>
      </trkpt>
      <trkpt lat="44.25038" lon="7.69601">
        <ele>1671.87</ele>
        <time>2021-01-09T12:14:23Z</time>
      </trkpt>
      <trkpt lat="44.25038" lon="7.69598">
        <ele>1669.47</ele>
        <time>2021-01-09T12:14:32Z</time>
      </trkpt>
      <trkpt lat="44.25038" lon="7.69599">
        <ele>1668.02</ele>
        <time>2021-01-09T12:14:43Z</time>
      </trkpt>
      <trkpt lat="44.25038" lon="7.69597">
        <ele>1667.54</ele>
        <time>2021-01-09T12:14:46Z</time>
      </trkpt>
      <trkpt lat="44.25038" lon="7.69595">
        <ele>1667.06</ele>
        <time>2021-01-09T12:14:47Z</time>
      </trkpt>
      <trkpt lat="44.25037" lon="7.69592">
        <ele>1666.58</ele>
        <time>2021-01-09T12:14:48Z</time>
      </trkpt>
      <trkpt lat="44.25036" lon="7.69589">
        <ele>1666.1</ele>
        <time>2021-01-09T12:14:49Z</time>
      </trkpt>
      <trkpt lat="44.25035" lon="7.69584">
        <ele>1665.14</ele>
        <time>2021-01-09T12:14:50Z</time>
      </trkpt>
      <trkpt lat="44.25033" lon="7.6958">
        <ele>1664.66</ele>
        <time>2021-01-09T12:14:51Z</time>
      </trkpt>
      <trkpt lat="44.2503" lon="7.69575">
        <ele>1664.18</ele>
        <time>2021-01-09T12:14:52Z</time>
      </trkpt>
      <trkpt lat="44.25029" lon="7.6957">
        <ele>1663.22</ele>
        <time>2021-01-09T12:14:53Z</time>
      </trkpt>
      <trkpt lat="44.25029" lon="7.69564">
        <ele>1662.74</ele>
        <time>2021-01-09T12:14:54Z</time>
      </trkpt>
      <trkpt lat="44.25029" lon="7.69551">
        <ele>1661.3</ele>
        <time>2021-01-09T12:14:56Z</time>
      </trkpt>
      <trkpt lat="44.25033" lon="7.69524">
        <ele>1659.85</ele>
        <time>2021-01-09T12:15:01Z</time>
      </trkpt>
      <trkpt lat="44.25032" lon="7.69522">
        <ele>1659.37</ele>
        <time>2021-01-09T12:15:02Z</time>
      </trkpt>
      <trkpt lat="44.25031" lon="7.69519">
        <ele>1659.37</ele>
        <time>2021-01-09T12:15:03Z</time>
      </trkpt>
      <trkpt lat="44.25031" lon="7.69517">
        <ele>1658.89</ele>
        <time>2021-01-09T12:15:04Z</time>
      </trkpt>
      <trkpt lat="44.25032" lon="7.69514">
        <ele>1658.41</ele>
        <time>2021-01-09T12:15:05Z</time>
      </trkpt>
      <trkpt lat="44.25033" lon="7.69512">
        <ele>1657.93</ele>
        <time>2021-01-09T12:15:06Z</time>
      </trkpt>
      <trkpt lat="44.25035" lon="7.69513">
        <ele>1657.45</ele>
        <time>2021-01-09T12:15:15Z</time>
      </trkpt>
      <trkpt lat="44.25035" lon="7.69514">
        <ele>1658.41</ele>
        <time>2021-01-09T12:15:33Z</time>
      </trkpt>
      <trkpt lat="44.25036" lon="7.69513">
        <ele>1657.93</ele>
        <time>2021-01-09T12:15:49Z</time>
      </trkpt>
      <trkpt lat="44.25036" lon="7.69512">
        <ele>1657.93</ele>
        <time>2021-01-09T12:15:51Z</time>
      </trkpt>
      <trkpt lat="44.25029" lon="7.695">
        <ele>1654.09</ele>
        <time>2021-01-09T12:15:57Z</time>
      </trkpt>
      <trkpt lat="44.25027" lon="7.69497">
        <ele>1652.64</ele>
        <time>2021-01-09T12:16:08Z</time>
      </trkpt>
      <trkpt lat="44.25027" lon="7.69496">
        <ele>1653.12</ele>
        <time>2021-01-09T12:16:20Z</time>
      </trkpt>
      <trkpt lat="44.25029" lon="7.69491">
        <ele>1652.64</ele>
        <time>2021-01-09T12:16:22Z</time>
      </trkpt>
      <trkpt lat="44.25031" lon="7.69488">
        <ele>1651.68</ele>
        <time>2021-01-09T12:16:23Z</time>
      </trkpt>
      <trkpt lat="44.25033" lon="7.69484">
        <ele>1650.24</ele>
        <time>2021-01-09T12:16:24Z</time>
      </trkpt>
      <trkpt lat="44.25032" lon="7.69479">
        <ele>1649.28</ele>
        <time>2021-01-09T12:16:25Z</time>
      </trkpt>
      <trkpt lat="44.25029" lon="7.69474">
        <ele>1647.84</ele>
        <time>2021-01-09T12:16:26Z</time>
      </trkpt>
      <trkpt lat="44.25027" lon="7.69471">
        <ele>1647.36</ele>
        <time>2021-01-09T12:16:27Z</time>
      </trkpt>
      <trkpt lat="44.25025" lon="7.69467">
        <ele>1646.4</ele>
        <time>2021-01-09T12:16:28Z</time>
      </trkpt>
      <trkpt lat="44.25023" lon="7.6946">
        <ele>1642.07</ele>
        <time>2021-01-09T12:16:32Z</time>
      </trkpt>
      <trkpt lat="44.25022" lon="7.6946">
        <ele>1641.11</ele>
        <time>2021-01-09T12:16:33Z</time>
      </trkpt>
      <trkpt lat="44.25024" lon="7.69461">
        <ele>1642.55</ele>
        <time>2021-01-09T12:16:45Z</time>
      </trkpt>
      <trkpt lat="44.25025" lon="7.69462">
        <ele>1643.03</ele>
        <time>2021-01-09T12:16:48Z</time>
      </trkpt>
      <trkpt lat="44.25026" lon="7.69461">
        <ele>1643.51</ele>
        <time>2021-01-09T12:17:00Z</time>
      </trkpt>
      <trkpt lat="44.25026" lon="7.6946">
        <ele>1643.51</ele>
        <time>2021-01-09T12:17:35Z</time>
      </trkpt>
      <trkpt lat="44.25027" lon="7.6946">
        <ele>1643.03</ele>
        <time>2021-01-09T12:17:58Z</time>
      </trkpt>
      <trkpt lat="44.25028" lon="7.6946">
        <ele>1642.07</ele>
        <time>2021-01-09T12:18:22Z</time>
      </trkpt>
      <trkpt lat="44.25028" lon="7.69461">
        <ele>1642.55</ele>
        <time>2021-01-09T12:18:34Z</time>
      </trkpt>
      <trkpt lat="44.25029" lon="7.6946">
        <ele>1643.51</ele>
        <time>2021-01-09T12:18:48Z</time>
      </trkpt>
      <trkpt lat="44.2503" lon="7.69461">
        <ele>1644.47</ele>
        <time>2021-01-09T12:19:00Z</time>
      </trkpt>
      <trkpt lat="44.25029" lon="7.69461">
        <ele>1644.95</ele>
        <time>2021-01-09T12:19:07Z</time>
      </trkpt>
      <trkpt lat="44.25028" lon="7.6946">
        <ele>1644.95</ele>
        <time>2021-01-09T12:19:08Z</time>
      </trkpt>
      <trkpt lat="44.25032" lon="7.6946">
        <ele>1644.95</ele>
        <time>2021-01-09T12:19:12Z</time>
      </trkpt>
      <trkpt lat="44.25037" lon="7.69461">
        <ele>1644.47</ele>
        <time>2021-01-09T12:19:14Z</time>
      </trkpt>
      <trkpt lat="44.25037" lon="7.69447">
        <ele>1637.26</ele>
        <time>2021-01-09T12:19:20Z</time>
      </trkpt>
      <trkpt lat="44.2504" lon="7.69447">
        <ele>1636.3</ele>
        <time>2021-01-09T12:19:21Z</time>
      </trkpt>
      <trkpt lat="44.25044" lon="7.69447">
        <ele>1633.9</ele>
        <time>2021-01-09T12:19:23Z</time>
      </trkpt>
      <trkpt lat="44.25044" lon="7.69445">
        <ele>1631.01</ele>
        <time>2021-01-09T12:19:32Z</time>
      </trkpt>
      <trkpt lat="44.25044" lon="7.69445">
        <ele>1630.53</ele>
        <time>2021-01-09T12:19:39Z</time>
      </trkpt>
      <trkpt lat="44.25042" lon="7.69438">
        <ele>1629.57</ele>
        <time>2021-01-09T12:19:42Z</time>
      </trkpt>
      <trkpt lat="44.25038" lon="7.6942">
        <ele>1624.77</ele>
        <time>2021-01-09T12:19:47Z</time>
      </trkpt>
      <trkpt lat="44.25026" lon="7.69375">
        <ele>1613.71</ele>
        <time>2021-01-09T12:19:58Z</time>
      </trkpt>
      <trkpt lat="44.25019" lon="7.69354">
        <ele>1610.35</ele>
        <time>2021-01-09T12:20:07Z</time>
      </trkpt>
      <trkpt lat="44.25019" lon="7.69352">
        <ele>1612.27</ele>
        <time>2021-01-09T12:20:23Z</time>
      </trkpt>
      <trkpt lat="44.2502" lon="7.69349">
        <ele>1614.19</ele>
        <time>2021-01-09T12:20:42Z</time>
      </trkpt>
      <trkpt lat="44.25018" lon="7.69346">
        <ele>1612.75</ele>
        <time>2021-01-09T12:20:59Z</time>
      </trkpt>
      <trkpt lat="44.25018" lon="7.69346">
        <ele>1612.75</ele>
        <time>2021-01-09T12:21:05Z</time>
      </trkpt>
      <trkpt lat="44.25017" lon="7.69344">
        <ele>1612.75</ele>
        <time>2021-01-09T12:21:06Z</time>
      </trkpt>
      <trkpt lat="44.25016" lon="7.69342">
        <ele>1611.79</ele>
        <time>2021-01-09T12:21:07Z</time>
      </trkpt>
      <trkpt lat="44.25014" lon="7.6934">
        <ele>1610.83</ele>
        <time>2021-01-09T12:21:08Z</time>
      </trkpt>
      <trkpt lat="44.25012" lon="7.69338">
        <ele>1610.35</ele>
        <time>2021-01-09T12:21:09Z</time>
      </trkpt>
      <trkpt lat="44.24997" lon="7.69328">
        <ele>1605.54</ele>
        <time>2021-01-09T12:21:17Z</time>
      </trkpt>
      <trkpt lat="44.24996" lon="7.69328">
        <ele>1604.58</ele>
        <time>2021-01-09T12:21:23Z</time>
      </trkpt>
      <trkpt lat="44.24991" lon="7.69324">
        <ele>1603.62</ele>
        <time>2021-01-09T12:21:28Z</time>
      </trkpt>
      <trkpt lat="44.24992" lon="7.69321">
        <ele>1603.14</ele>
        <time>2021-01-09T12:21:29Z</time>
      </trkpt>
      <trkpt lat="44.24993" lon="7.69317">
        <ele>1602.66</ele>
        <time>2021-01-09T12:21:30Z</time>
      </trkpt>
      <trkpt lat="44.24995" lon="7.6931">
        <ele>1601.69</ele>
        <time>2021-01-09T12:21:32Z</time>
      </trkpt>
      <trkpt lat="44.24994" lon="7.69297">
        <ele>1599.29</ele>
        <time>2021-01-09T12:21:34Z</time>
      </trkpt>
      <trkpt lat="44.24995" lon="7.69291">
        <ele>1598.33</ele>
        <time>2021-01-09T12:21:35Z</time>
      </trkpt>
      <trkpt lat="44.24997" lon="7.69286">
        <ele>1597.37</ele>
        <time>2021-01-09T12:21:36Z</time>
      </trkpt>
      <trkpt lat="44.25" lon="7.69283">
        <ele>1596.41</ele>
        <time>2021-01-09T12:21:37Z</time>
      </trkpt>
      <trkpt lat="44.25002" lon="7.6928">
        <ele>1595.45</ele>
        <time>2021-01-09T12:21:38Z</time>
      </trkpt>
      <trkpt lat="44.25003" lon="7.69277">
        <ele>1594.96</ele>
        <time>2021-01-09T12:21:39Z</time>
      </trkpt>
      <trkpt lat="44.25003" lon="7.69272">
        <ele>1594</ele>
        <time>2021-01-09T12:21:40Z</time>
      </trkpt>
      <trkpt lat="44.25004" lon="7.69268">
        <ele>1593.04</ele>
        <time>2021-01-09T12:21:41Z</time>
      </trkpt>
      <trkpt lat="44.25007" lon="7.69264">
        <ele>1592.08</ele>
        <time>2021-01-09T12:21:42Z</time>
      </trkpt>
      <trkpt lat="44.25009" lon="7.6926">
        <ele>1591.12</ele>
        <time>2021-01-09T12:21:43Z</time>
      </trkpt>
      <trkpt lat="44.25024" lon="7.69253">
        <ele>1587.75</ele>
        <time>2021-01-09T12:21:47Z</time>
      </trkpt>
      <trkpt lat="44.25022" lon="7.69233">
        <ele>1584.39</ele>
        <time>2021-01-09T12:21:52Z</time>
      </trkpt>
      <trkpt lat="44.25012" lon="7.69214">
        <ele>1578.14</ele>
        <time>2021-01-09T12:21:57Z</time>
      </trkpt>
      <trkpt lat="44.25014" lon="7.69211">
        <ele>1576.7</ele>
        <time>2021-01-09T12:21:58Z</time>
      </trkpt>
      <trkpt lat="44.25016" lon="7.69206">
        <ele>1575.26</ele>
        <time>2021-01-09T12:21:59Z</time>
      </trkpt>
      <trkpt lat="44.25016" lon="7.69201">
        <ele>1574.3</ele>
        <time>2021-01-09T12:22:00Z</time>
      </trkpt>
      <trkpt lat="44.25015" lon="7.69197">
        <ele>1572.85</ele>
        <time>2021-01-09T12:22:01Z</time>
      </trkpt>
      <trkpt lat="44.25012" lon="7.69169">
        <ele>1568.53</ele>
        <time>2021-01-09T12:22:06Z</time>
      </trkpt>
      <trkpt lat="44.25014" lon="7.69162">
        <ele>1567.57</ele>
        <time>2021-01-09T12:22:07Z</time>
      </trkpt>
      <trkpt lat="44.25013" lon="7.69156">
        <ele>1566.12</ele>
        <time>2021-01-09T12:22:08Z</time>
      </trkpt>
      <trkpt lat="44.2501" lon="7.69154">
        <ele>1565.16</ele>
        <time>2021-01-09T12:22:09Z</time>
      </trkpt>
      <trkpt lat="44.25008" lon="7.69152">
        <ele>1562.28</ele>
        <time>2021-01-09T12:22:18Z</time>
      </trkpt>
      <trkpt lat="44.2501" lon="7.69147">
        <ele>1558.92</ele>
        <time>2021-01-09T12:22:38Z</time>
      </trkpt>
      <trkpt lat="44.25011" lon="7.69145">
        <ele>1558.43</ele>
        <time>2021-01-09T12:22:39Z</time>
      </trkpt>
      <trkpt lat="44.25026" lon="7.69143">
        <ele>1554.59</ele>
        <time>2021-01-09T12:22:45Z</time>
      </trkpt>
      <trkpt lat="44.25029" lon="7.69145">
        <ele>1552.67</ele>
        <time>2021-01-09T12:22:47Z</time>
      </trkpt>
      <trkpt lat="44.25035" lon="7.69137">
        <ele>1547.86</ele>
        <time>2021-01-09T12:22:52Z</time>
      </trkpt>
      <trkpt lat="44.25029" lon="7.69122">
        <ele>1542.09</ele>
        <time>2021-01-09T12:22:57Z</time>
      </trkpt>
      <trkpt lat="44.25019" lon="7.69104">
        <ele>1537.29</ele>
        <time>2021-01-09T12:23:08Z</time>
      </trkpt>
      <trkpt lat="44.25017" lon="7.69096">
        <ele>1535.84</ele>
        <time>2021-01-09T12:23:10Z</time>
      </trkpt>
      <trkpt lat="44.25017" lon="7.69092">
        <ele>1534.88</ele>
        <time>2021-01-09T12:23:11Z</time>
      </trkpt>
      <trkpt lat="44.25016" lon="7.69089">
        <ele>1534.4</ele>
        <time>2021-01-09T12:23:12Z</time>
      </trkpt>
      <trkpt lat="44.25014" lon="7.69087">
        <ele>1533.44</ele>
        <time>2021-01-09T12:23:13Z</time>
      </trkpt>
      <trkpt lat="44.25013" lon="7.69084">
        <ele>1532.48</ele>
        <time>2021-01-09T12:23:14Z</time>
      </trkpt>
      <trkpt lat="44.25011" lon="7.69081">
        <ele>1531.52</ele>
        <time>2021-01-09T12:23:15Z</time>
      </trkpt>
      <trkpt lat="44.25009" lon="7.69079">
        <ele>1530.56</ele>
        <time>2021-01-09T12:23:16Z</time>
      </trkpt>
      <trkpt lat="44.25008" lon="7.69077">
        <ele>1529.59</ele>
        <time>2021-01-09T12:23:17Z</time>
      </trkpt>
      <trkpt lat="44.25007" lon="7.69074">
        <ele>1529.11</ele>
        <time>2021-01-09T12:23:18Z</time>
      </trkpt>
      <trkpt lat="44.25007" lon="7.69071">
        <ele>1528.63</ele>
        <time>2021-01-09T12:23:19Z</time>
      </trkpt>
      <trkpt lat="44.25008" lon="7.69068">
        <ele>1528.15</ele>
        <time>2021-01-09T12:23:20Z</time>
      </trkpt>
      <trkpt lat="44.25009" lon="7.69066">
        <ele>1527.67</ele>
        <time>2021-01-09T12:23:21Z</time>
      </trkpt>
      <trkpt lat="44.25011" lon="7.69064">
        <ele>1528.15</ele>
        <time>2021-01-09T12:23:31Z</time>
      </trkpt>
      <trkpt lat="44.25014" lon="7.69063">
        <ele>1530.08</ele>
        <time>2021-01-09T12:23:44Z</time>
      </trkpt>
      <trkpt lat="44.25017" lon="7.6906">
        <ele>1532.96</ele>
        <time>2021-01-09T12:24:07Z</time>
      </trkpt>
      <trkpt lat="44.25017" lon="7.69056">
        <ele>1533.44</ele>
        <time>2021-01-09T12:24:18Z</time>
      </trkpt>
      <trkpt lat="44.25018" lon="7.69053">
        <ele>1532.96</ele>
        <time>2021-01-09T12:24:20Z</time>
      </trkpt>
      <trkpt lat="44.25022" lon="7.69048">
        <ele>1531.04</ele>
        <time>2021-01-09T12:24:24Z</time>
      </trkpt>
      <trkpt lat="44.25027" lon="7.69046">
        <ele>1528.63</ele>
        <time>2021-01-09T12:24:27Z</time>
      </trkpt>
      <trkpt lat="44.25026" lon="7.69041">
        <ele>1525.27</ele>
        <time>2021-01-09T12:24:31Z</time>
      </trkpt>
      <trkpt lat="44.25026" lon="7.69039">
        <ele>1524.31</ele>
        <time>2021-01-09T12:24:32Z</time>
      </trkpt>
      <trkpt lat="44.25025" lon="7.69035">
        <ele>1523.35</ele>
        <time>2021-01-09T12:24:33Z</time>
      </trkpt>
      <trkpt lat="44.25024" lon="7.69031">
        <ele>1522.39</ele>
        <time>2021-01-09T12:24:34Z</time>
      </trkpt>
      <trkpt lat="44.25023" lon="7.69028">
        <ele>1521.42</ele>
        <time>2021-01-09T12:24:35Z</time>
      </trkpt>
      <trkpt lat="44.25018" lon="7.69018">
        <ele>1517.58</ele>
        <time>2021-01-09T12:24:38Z</time>
      </trkpt>
      <trkpt lat="44.25017" lon="7.69014">
        <ele>1516.62</ele>
        <time>2021-01-09T12:24:39Z</time>
      </trkpt>
      <trkpt lat="44.25016" lon="7.69004">
        <ele>1514.69</ele>
        <time>2021-01-09T12:24:41Z</time>
      </trkpt>
      <trkpt lat="44.25015" lon="7.69002">
        <ele>1513.73</ele>
        <time>2021-01-09T12:24:42Z</time>
      </trkpt>
      <trkpt lat="44.25013" lon="7.68999">
        <ele>1512.77</ele>
        <time>2021-01-09T12:24:43Z</time>
      </trkpt>
      <trkpt lat="44.25011" lon="7.68996">
        <ele>1511.81</ele>
        <time>2021-01-09T12:24:44Z</time>
      </trkpt>
      <trkpt lat="44.2501" lon="7.68992">
        <ele>1507</ele>
        <time>2021-01-09T12:24:48Z</time>
      </trkpt>
      <trkpt lat="44.25009" lon="7.68989">
        <ele>1506.52</ele>
        <time>2021-01-09T12:24:49Z</time>
      </trkpt>
      <trkpt lat="44.25008" lon="7.68983">
        <ele>1508.45</ele>
        <time>2021-01-09T12:24:58Z</time>
      </trkpt>
      <trkpt lat="44.25009" lon="7.68978">
        <ele>1508.45</ele>
        <time>2021-01-09T12:25:01Z</time>
      </trkpt>
      <trkpt lat="44.25009" lon="7.68976">
        <ele>1507.97</ele>
        <time>2021-01-09T12:25:02Z</time>
      </trkpt>
      <trkpt lat="44.2501" lon="7.68974">
        <ele>1507.97</ele>
        <time>2021-01-09T12:25:03Z</time>
      </trkpt>
      <trkpt lat="44.25011" lon="7.68973">
        <ele>1507.48</ele>
        <time>2021-01-09T12:25:04Z</time>
      </trkpt>
      <trkpt lat="44.25023" lon="7.68961">
        <ele>1505.08</ele>
        <time>2021-01-09T12:25:12Z</time>
      </trkpt>
      <trkpt lat="44.25025" lon="7.68958">
        <ele>1504.12</ele>
        <time>2021-01-09T12:25:13Z</time>
      </trkpt>
      <trkpt lat="44.25026" lon="7.68955">
        <ele>1503.64</ele>
        <time>2021-01-09T12:25:14Z</time>
      </trkpt>
      <trkpt lat="44.25024" lon="7.68946">
        <ele>1500.27</ele>
        <time>2021-01-09T12:25:19Z</time>
      </trkpt>
      <trkpt lat="44.25021" lon="7.68942">
        <ele>1498.83</ele>
        <time>2021-01-09T12:25:21Z</time>
      </trkpt>
      <trkpt lat="44.2502" lon="7.68939">
        <ele>1498.35</ele>
        <time>2021-01-09T12:25:22Z</time>
      </trkpt>
      <trkpt lat="44.25018" lon="7.68933">
        <ele>1494.03</ele>
        <time>2021-01-09T12:25:33Z</time>
      </trkpt>
      <trkpt lat="44.25021" lon="7.68933">
        <ele>1494.03</ele>
        <time>2021-01-09T12:25:58Z</time>
      </trkpt>
      <trkpt lat="44.25026" lon="7.68932">
        <ele>1494.99</ele>
        <time>2021-01-09T12:26:01Z</time>
      </trkpt>
      <trkpt lat="44.25028" lon="7.6893">
        <ele>1494.99</ele>
        <time>2021-01-09T12:26:02Z</time>
      </trkpt>
      <trkpt lat="44.25041" lon="7.6892">
        <ele>1492.58</ele>
        <time>2021-01-09T12:26:08Z</time>
      </trkpt>
      <trkpt lat="44.25044" lon="7.68919">
        <ele>1491.62</ele>
        <time>2021-01-09T12:26:09Z</time>
      </trkpt>
      <trkpt lat="44.25047" lon="7.68918">
        <ele>1490.18</ele>
        <time>2021-01-09T12:26:10Z</time>
      </trkpt>
      <trkpt lat="44.25048" lon="7.68915">
        <ele>1489.22</ele>
        <time>2021-01-09T12:26:11Z</time>
      </trkpt>
      <trkpt lat="44.25049" lon="7.68911">
        <ele>1487.78</ele>
        <time>2021-01-09T12:26:12Z</time>
      </trkpt>
      <trkpt lat="44.2505" lon="7.68904">
        <ele>1485.85</ele>
        <time>2021-01-09T12:26:14Z</time>
      </trkpt>
      <trkpt lat="44.25049" lon="7.68904">
        <ele>1484.41</ele>
        <time>2021-01-09T12:26:15Z</time>
      </trkpt>
      <trkpt lat="44.25044" lon="7.68905">
        <ele>1478.65</ele>
        <time>2021-01-09T12:26:27Z</time>
      </trkpt>
      <trkpt lat="44.25047" lon="7.68906">
        <ele>1478.16</ele>
        <time>2021-01-09T12:26:33Z</time>
      </trkpt>
      <trkpt lat="44.25055" lon="7.68906">
        <ele>1477.2</ele>
        <time>2021-01-09T12:26:36Z</time>
      </trkpt>
      <trkpt lat="44.25056" lon="7.68903">
        <ele>1476.72</ele>
        <time>2021-01-09T12:26:37Z</time>
      </trkpt>
      <trkpt lat="44.25056" lon="7.68898">
        <ele>1476.24</ele>
        <time>2021-01-09T12:26:38Z</time>
      </trkpt>
      <trkpt lat="44.25056" lon="7.68893">
        <ele>1475.28</ele>
        <time>2021-01-09T12:26:39Z</time>
      </trkpt>
      <trkpt lat="44.25056" lon="7.68889">
        <ele>1474.8</ele>
        <time>2021-01-09T12:26:40Z</time>
      </trkpt>
      <trkpt lat="44.25056" lon="7.68886">
        <ele>1474.8</ele>
        <time>2021-01-09T12:26:41Z</time>
      </trkpt>
      <trkpt lat="44.25056" lon="7.68883">
        <ele>1474.32</ele>
        <time>2021-01-09T12:26:42Z</time>
      </trkpt>
      <trkpt lat="44.25056" lon="7.68881">
        <ele>1473.84</ele>
        <time>2021-01-09T12:26:43Z</time>
      </trkpt>
      <trkpt lat="44.25056" lon="7.68878">
        <ele>1473.84</ele>
        <time>2021-01-09T12:26:44Z</time>
      </trkpt>
      <trkpt lat="44.25055" lon="7.68876">
        <ele>1472.88</ele>
        <time>2021-01-09T12:26:45Z</time>
      </trkpt>
      <trkpt lat="44.25053" lon="7.68875">
        <ele>1472.4</ele>
        <time>2021-01-09T12:26:46Z</time>
      </trkpt>
      <trkpt lat="44.25053" lon="7.68868">
        <ele>1471.92</ele>
        <time>2021-01-09T12:26:54Z</time>
      </trkpt>
      <trkpt lat="44.25053" lon="7.68862">
        <ele>1474.8</ele>
        <time>2021-01-09T12:27:09Z</time>
      </trkpt>
      <trkpt lat="44.25053" lon="7.68859">
        <ele>1475.28</ele>
        <time>2021-01-09T12:27:14Z</time>
      </trkpt>
      <trkpt lat="44.25054" lon="7.68855">
        <ele>1475.28</ele>
        <time>2021-01-09T12:27:15Z</time>
      </trkpt>
      <trkpt lat="44.25053" lon="7.6885">
        <ele>1474.32</ele>
        <time>2021-01-09T12:27:16Z</time>
      </trkpt>
      <trkpt lat="44.25046" lon="7.68819">
        <ele>1465.67</ele>
        <time>2021-01-09T12:27:24Z</time>
      </trkpt>
      <trkpt lat="44.25034" lon="7.68797">
        <ele>1456.53</ele>
        <time>2021-01-09T12:27:32Z</time>
      </trkpt>
      <trkpt lat="44.25033" lon="7.68794">
        <ele>1454.61</ele>
        <time>2021-01-09T12:27:34Z</time>
      </trkpt>
      <trkpt lat="44.25033" lon="7.68792">
        <ele>1453.17</ele>
        <time>2021-01-09T12:27:35Z</time>
      </trkpt>
      <trkpt lat="44.25032" lon="7.68786">
        <ele>1450.29</ele>
        <time>2021-01-09T12:27:41Z</time>
      </trkpt>
      <trkpt lat="44.25033" lon="7.68778">
        <ele>1447.88</ele>
        <time>2021-01-09T12:27:46Z</time>
      </trkpt>
      <trkpt lat="44.25028" lon="7.68771">
        <ele>1446.44</ele>
        <time>2021-01-09T12:27:49Z</time>
      </trkpt>
      <trkpt lat="44.25025" lon="7.68761">
        <ele>1445.48</ele>
        <time>2021-01-09T12:27:51Z</time>
      </trkpt>
      <trkpt lat="44.25024" lon="7.68754">
        <ele>1448.36</ele>
        <time>2021-01-09T12:28:00Z</time>
      </trkpt>
      <trkpt lat="44.25024" lon="7.6875">
        <ele>1452.21</ele>
        <time>2021-01-09T12:28:22Z</time>
      </trkpt>
      <trkpt lat="44.25025" lon="7.68748">
        <ele>1452.21</ele>
        <time>2021-01-09T12:28:25Z</time>
      </trkpt>
      <trkpt lat="44.25027" lon="7.68746">
        <ele>1451.73</ele>
        <time>2021-01-09T12:28:26Z</time>
      </trkpt>
      <trkpt lat="44.2503" lon="7.68742">
        <ele>1451.25</ele>
        <time>2021-01-09T12:28:28Z</time>
      </trkpt>
      <trkpt lat="44.25031" lon="7.68738">
        <ele>1450.29</ele>
        <time>2021-01-09T12:28:29Z</time>
      </trkpt>
      <trkpt lat="44.25031" lon="7.68734">
        <ele>1449.32</ele>
        <time>2021-01-09T12:28:30Z</time>
      </trkpt>
      <trkpt lat="44.2503" lon="7.68731">
        <ele>1447.88</ele>
        <time>2021-01-09T12:28:31Z</time>
      </trkpt>
      <trkpt lat="44.25029" lon="7.68729">
        <ele>1446.44</ele>
        <time>2021-01-09T12:28:32Z</time>
      </trkpt>
      <trkpt lat="44.25028" lon="7.68727">
        <ele>1445.48</ele>
        <time>2021-01-09T12:28:33Z</time>
      </trkpt>
      <trkpt lat="44.25027" lon="7.68724">
        <ele>1445</ele>
        <time>2021-01-09T12:28:34Z</time>
      </trkpt>
      <trkpt lat="44.25023" lon="7.68713">
        <ele>1443.56</ele>
        <time>2021-01-09T12:28:44Z</time>
      </trkpt>
      <trkpt lat="44.25024" lon="7.68712">
        <ele>1445</ele>
        <time>2021-01-09T12:29:01Z</time>
      </trkpt>
      <trkpt lat="44.25024" lon="7.6871">
        <ele>1445.48</ele>
        <time>2021-01-09T12:29:14Z</time>
      </trkpt>
      <trkpt lat="44.25018" lon="7.68706">
        <ele>1443.08</ele>
        <time>2021-01-09T12:29:22Z</time>
      </trkpt>
      <trkpt lat="44.25017" lon="7.68701">
        <ele>1441.63</ele>
        <time>2021-01-09T12:29:35Z</time>
      </trkpt>
      <trkpt lat="44.25018" lon="7.68701">
        <ele>1441.15</ele>
        <time>2021-01-09T12:29:36Z</time>
      </trkpt>
      <trkpt lat="44.25043" lon="7.68696">
        <ele>1436.35</ele>
        <time>2021-01-09T12:29:44Z</time>
      </trkpt>
      <trkpt lat="44.25038" lon="7.68693">
        <ele>1432.5</ele>
        <time>2021-01-09T12:29:54Z</time>
      </trkpt>
      <trkpt lat="44.25032" lon="7.68684">
        <ele>1429.62</ele>
        <time>2021-01-09T12:30:04Z</time>
      </trkpt>
      <trkpt lat="44.25032" lon="7.68684">
        <ele>1429.62</ele>
        <time>2021-01-09T12:30:05Z</time>
      </trkpt>
      <trkpt lat="44.25026" lon="7.68679">
        <ele>1429.62</ele>
        <time>2021-01-09T12:30:12Z</time>
      </trkpt>
      <trkpt lat="44.25025" lon="7.68674">
        <ele>1428.66</ele>
        <time>2021-01-09T12:30:25Z</time>
      </trkpt>
      <trkpt lat="44.25022" lon="7.68671">
        <ele>1429.14</ele>
        <time>2021-01-09T12:30:35Z</time>
      </trkpt>
      <trkpt lat="44.25027" lon="7.68662">
        <ele>1426.25</ele>
        <time>2021-01-09T12:30:42Z</time>
      </trkpt>
      <trkpt lat="44.25031" lon="7.68663">
        <ele>1427.7</ele>
        <time>2021-01-09T12:30:54Z</time>
      </trkpt>
      <trkpt lat="44.25032" lon="7.68663">
        <ele>1428.18</ele>
        <time>2021-01-09T12:30:55Z</time>
      </trkpt>
      <trkpt lat="44.25039" lon="7.6865">
        <ele>1423.37</ele>
        <time>2021-01-09T12:31:04Z</time>
      </trkpt>
      <trkpt lat="44.25039" lon="7.68648">
        <ele>1420.49</ele>
        <time>2021-01-09T12:31:14Z</time>
      </trkpt>
      <trkpt lat="44.25038" lon="7.68638">
        <ele>1417.6</ele>
        <time>2021-01-09T12:31:21Z</time>
      </trkpt>
      <trkpt lat="44.25035" lon="7.68634">
        <ele>1417.12</ele>
        <time>2021-01-09T12:31:27Z</time>
      </trkpt>
      <trkpt lat="44.25029" lon="7.68626">
        <ele>1415.2</ele>
        <time>2021-01-09T12:31:33Z</time>
      </trkpt>
      <trkpt lat="44.25039" lon="7.68613">
        <ele>1411.35</ele>
        <time>2021-01-09T12:31:40Z</time>
      </trkpt>
      <trkpt lat="44.2504" lon="7.686">
        <ele>1403.18</ele>
        <time>2021-01-09T12:31:47Z</time>
      </trkpt>
      <trkpt lat="44.25043" lon="7.68604">
        <ele>1393.57</ele>
        <time>2021-01-09T12:32:01Z</time>
      </trkpt>
      <trkpt lat="44.25042" lon="7.68602">
        <ele>1396.45</ele>
        <time>2021-01-09T12:32:10Z</time>
      </trkpt>
      <trkpt lat="44.25044" lon="7.686">
        <ele>1399.34</ele>
        <time>2021-01-09T12:32:22Z</time>
      </trkpt>
      <trkpt lat="44.25058" lon="7.68594">
        <ele>1400.3</ele>
        <time>2021-01-09T12:32:32Z</time>
      </trkpt>
      <trkpt lat="44.25056" lon="7.68588">
        <ele>1394.05</ele>
        <time>2021-01-09T12:32:41Z</time>
      </trkpt>
      <trkpt lat="44.25057" lon="7.68583">
        <ele>1390.2</ele>
        <time>2021-01-09T12:32:50Z</time>
      </trkpt>
      <trkpt lat="44.25051" lon="7.68574">
        <ele>1388.76</ele>
        <time>2021-01-09T12:33:07Z</time>
      </trkpt>
      <trkpt lat="44.25047" lon="7.68572">
        <ele>1386.36</ele>
        <time>2021-01-09T12:33:16Z</time>
      </trkpt>
      <trkpt lat="44.25043" lon="7.68569">
        <ele>1387.32</ele>
        <time>2021-01-09T12:33:20Z</time>
      </trkpt>
      <trkpt lat="44.25023" lon="7.68561">
        <ele>1383.47</ele>
        <time>2021-01-09T12:33:31Z</time>
      </trkpt>
      <trkpt lat="44.2502" lon="7.68555">
        <ele>1381.55</ele>
        <time>2021-01-09T12:33:40Z</time>
      </trkpt>
      <trkpt lat="44.25022" lon="7.6855">
        <ele>1382.99</ele>
        <time>2021-01-09T12:33:49Z</time>
      </trkpt>
      <trkpt lat="44.2503" lon="7.68544">
        <ele>1380.59</ele>
        <time>2021-01-09T12:33:57Z</time>
      </trkpt>
      <trkpt lat="44.25029" lon="7.6854">
        <ele>1378.19</ele>
        <time>2021-01-09T12:34:01Z</time>
      </trkpt>
      <trkpt lat="44.25017" lon="7.68528">
        <ele>1371.94</ele>
        <time>2021-01-09T12:34:13Z</time>
      </trkpt>
      <trkpt lat="44.25017" lon="7.68526">
        <ele>1371.94</ele>
        <time>2021-01-09T12:34:24Z</time>
      </trkpt>
      <trkpt lat="44.25018" lon="7.68522">
        <ele>1373.38</ele>
        <time>2021-01-09T12:34:41Z</time>
      </trkpt>
      <trkpt lat="44.25023" lon="7.68525">
        <ele>1372.9</ele>
        <time>2021-01-09T12:34:59Z</time>
      </trkpt>
      <trkpt lat="44.25023" lon="7.68525">
        <ele>1377.71</ele>
        <time>2021-01-09T12:35:13Z</time>
      </trkpt>
      <trkpt lat="44.25025" lon="7.6852">
        <ele>1377.71</ele>
        <time>2021-01-09T12:35:31Z</time>
      </trkpt>
      <trkpt lat="44.25027" lon="7.68519">
        <ele>1377.71</ele>
        <time>2021-01-09T12:35:33Z</time>
      </trkpt>
      <trkpt lat="44.25037" lon="7.68518">
        <ele>1377.71</ele>
        <time>2021-01-09T12:35:47Z</time>
      </trkpt>
      <trkpt lat="44.25047" lon="7.68517">
        <ele>1378.19</ele>
        <time>2021-01-09T12:35:59Z</time>
      </trkpt>
      <trkpt lat="44.25057" lon="7.68512">
        <ele>1374.82</ele>
        <time>2021-01-09T12:36:09Z</time>
      </trkpt>
      <trkpt lat="44.25067" lon="7.68512">
        <ele>1370.5</ele>
        <time>2021-01-09T12:36:20Z</time>
      </trkpt>
      <trkpt lat="44.2507" lon="7.68516">
        <ele>1366.65</ele>
        <time>2021-01-09T12:36:41Z</time>
      </trkpt>
      <trkpt lat="44.2508" lon="7.68513">
        <ele>1372.42</ele>
        <time>2021-01-09T12:36:58Z</time>
      </trkpt>
      <trkpt lat="44.25092" lon="7.68506">
        <ele>1371.94</ele>
        <time>2021-01-09T12:37:12Z</time>
      </trkpt>
      <trkpt lat="44.25111" lon="7.68493">
        <ele>1367.13</ele>
        <time>2021-01-09T12:37:22Z</time>
      </trkpt>
      <trkpt lat="44.25132" lon="7.68479">
        <ele>1359.92</ele>
        <time>2021-01-09T12:37:33Z</time>
      </trkpt>
      <trkpt lat="44.25136" lon="7.68479">
        <ele>1358.48</ele>
        <time>2021-01-09T12:37:52Z</time>
      </trkpt>
      <trkpt lat="44.25139" lon="7.68479">
        <ele>1358.48</ele>
        <time>2021-01-09T12:37:57Z</time>
      </trkpt>
      <trkpt lat="44.25148" lon="7.68467">
        <ele>1352.23</ele>
        <time>2021-01-09T12:38:06Z</time>
      </trkpt>
      <trkpt lat="44.25155" lon="7.68465">
        <ele>1347.91</ele>
        <time>2021-01-09T12:38:11Z</time>
      </trkpt>
      <trkpt lat="44.25154" lon="7.68459">
        <ele>1344.54</ele>
        <time>2021-01-09T12:38:14Z</time>
      </trkpt>
      <trkpt lat="44.25168" lon="7.68444">
        <ele>1335.41</ele>
        <time>2021-01-09T12:38:23Z</time>
      </trkpt>
      <trkpt lat="44.25177" lon="7.68432">
        <ele>1328.2</ele>
        <time>2021-01-09T12:38:29Z</time>
      </trkpt>
      <trkpt lat="44.25179" lon="7.6843">
        <ele>1327.24</ele>
        <time>2021-01-09T12:38:30Z</time>
      </trkpt>
      <trkpt lat="44.2518" lon="7.68426">
        <ele>1325.8</ele>
        <time>2021-01-09T12:38:31Z</time>
      </trkpt>
      <trkpt lat="44.25181" lon="7.68423">
        <ele>1324.83</ele>
        <time>2021-01-09T12:38:32Z</time>
      </trkpt>
      <trkpt lat="44.25182" lon="7.68419">
        <ele>1323.39</ele>
        <time>2021-01-09T12:38:33Z</time>
      </trkpt>
      <trkpt lat="44.25184" lon="7.68415">
        <ele>1322.91</ele>
        <time>2021-01-09T12:38:34Z</time>
      </trkpt>
      <trkpt lat="44.25185" lon="7.6841">
        <ele>1321.95</ele>
        <time>2021-01-09T12:38:35Z</time>
      </trkpt>
      <trkpt lat="44.25185" lon="7.68406">
        <ele>1320.99</ele>
        <time>2021-01-09T12:38:36Z</time>
      </trkpt>
      <trkpt lat="44.25188" lon="7.68396">
        <ele>1316.66</ele>
        <time>2021-01-09T12:38:39Z</time>
      </trkpt>
      <trkpt lat="44.25191" lon="7.68391">
        <ele>1315.22</ele>
        <time>2021-01-09T12:38:40Z</time>
      </trkpt>
      <trkpt lat="44.25192" lon="7.68385">
        <ele>1313.78</ele>
        <time>2021-01-09T12:38:41Z</time>
      </trkpt>
      <trkpt lat="44.25193" lon="7.6838">
        <ele>1312.82</ele>
        <time>2021-01-09T12:38:42Z</time>
      </trkpt>
      <trkpt lat="44.25194" lon="7.68374">
        <ele>1311.38</ele>
        <time>2021-01-09T12:38:43Z</time>
      </trkpt>
      <trkpt lat="44.25195" lon="7.6837">
        <ele>1311.38</ele>
        <time>2021-01-09T12:38:44Z</time>
      </trkpt>
      <trkpt lat="44.25204" lon="7.68353">
        <ele>1309.93</ele>
        <time>2021-01-09T12:38:49Z</time>
      </trkpt>
      <trkpt lat="44.25207" lon="7.68341">
        <ele>1309.45</ele>
        <time>2021-01-09T12:38:52Z</time>
      </trkpt>
      <trkpt lat="44.25206" lon="7.68335">
        <ele>1308.97</ele>
        <time>2021-01-09T12:38:53Z</time>
      </trkpt>
      <trkpt lat="44.25206" lon="7.6833">
        <ele>1308.49</ele>
        <time>2021-01-09T12:38:54Z</time>
      </trkpt>
      <trkpt lat="44.25208" lon="7.68324">
        <ele>1306.09</ele>
        <time>2021-01-09T12:39:02Z</time>
      </trkpt>
      <trkpt lat="44.25211" lon="7.68318">
        <ele>1306.09</ele>
        <time>2021-01-09T12:39:17Z</time>
      </trkpt>
      <trkpt lat="44.25209" lon="7.68317">
        <ele>1307.05</ele>
        <time>2021-01-09T12:39:37Z</time>
      </trkpt>
      <trkpt lat="44.25213" lon="7.68314">
        <ele>1308.01</ele>
        <time>2021-01-09T12:39:51Z</time>
      </trkpt>
      <trkpt lat="44.25216" lon="7.68311">
        <ele>1307.53</ele>
        <time>2021-01-09T12:39:54Z</time>
      </trkpt>
      <trkpt lat="44.25217" lon="7.68309">
        <ele>1307.05</ele>
        <time>2021-01-09T12:39:55Z</time>
      </trkpt>
      <trkpt lat="44.25218" lon="7.68307">
        <ele>1306.57</ele>
        <time>2021-01-09T12:39:56Z</time>
      </trkpt>
      <trkpt lat="44.2522" lon="7.68305">
        <ele>1306.09</ele>
        <time>2021-01-09T12:39:57Z</time>
      </trkpt>
      <trkpt lat="44.25222" lon="7.68302">
        <ele>1305.13</ele>
        <time>2021-01-09T12:39:58Z</time>
      </trkpt>
      <trkpt lat="44.25223" lon="7.68299">
        <ele>1304.17</ele>
        <time>2021-01-09T12:39:59Z</time>
      </trkpt>
      <trkpt lat="44.25223" lon="7.68297">
        <ele>1303.2</ele>
        <time>2021-01-09T12:40:00Z</time>
      </trkpt>
      <trkpt lat="44.25222" lon="7.68293">
        <ele>1302.24</ele>
        <time>2021-01-09T12:40:01Z</time>
      </trkpt>
      <trkpt lat="44.2522" lon="7.68284">
        <ele>1300.32</ele>
        <time>2021-01-09T12:40:04Z</time>
      </trkpt>
      <trkpt lat="44.25219" lon="7.68281">
        <ele>1297.92</ele>
        <time>2021-01-09T12:40:07Z</time>
      </trkpt>
      <trkpt lat="44.25219" lon="7.68277">
        <ele>1296.96</ele>
        <time>2021-01-09T12:40:08Z</time>
      </trkpt>
      <trkpt lat="44.25225" lon="7.68268">
        <ele>1295.03</ele>
        <time>2021-01-09T12:40:12Z</time>
      </trkpt>
      <trkpt lat="44.25229" lon="7.68264">
        <ele>1294.55</ele>
        <time>2021-01-09T12:40:13Z</time>
      </trkpt>
      <trkpt lat="44.25231" lon="7.68258">
        <ele>1294.07</ele>
        <time>2021-01-09T12:40:14Z</time>
      </trkpt>
      <trkpt lat="44.25233" lon="7.68253">
        <ele>1293.59</ele>
        <time>2021-01-09T12:40:15Z</time>
      </trkpt>
      <trkpt lat="44.25236" lon="7.68251">
        <ele>1292.63</ele>
        <time>2021-01-09T12:40:16Z</time>
      </trkpt>
      <trkpt lat="44.25238" lon="7.68249">
        <ele>1292.15</ele>
        <time>2021-01-09T12:40:17Z</time>
      </trkpt>
      <trkpt lat="44.25244" lon="7.68242">
        <ele>1287.34</ele>
        <time>2021-01-09T12:40:25Z</time>
      </trkpt>
      <trkpt lat="44.25243" lon="7.68238">
        <ele>1286.38</ele>
        <time>2021-01-09T12:40:48Z</time>
      </trkpt>
      <trkpt lat="44.25246" lon="7.68235">
        <ele>1286.86</ele>
        <time>2021-01-09T12:40:55Z</time>
      </trkpt>
      <trkpt lat="44.25247" lon="7.68232">
        <ele>1286.38</ele>
        <time>2021-01-09T12:40:56Z</time>
      </trkpt>
      <trkpt lat="44.25249" lon="7.68228">
        <ele>1285.9</ele>
        <time>2021-01-09T12:40:57Z</time>
      </trkpt>
      <trkpt lat="44.25249" lon="7.68224">
        <ele>1285.42</ele>
        <time>2021-01-09T12:40:58Z</time>
      </trkpt>
      <trkpt lat="44.25249" lon="7.68221">
        <ele>1284.94</ele>
        <time>2021-01-09T12:40:59Z</time>
      </trkpt>
      <trkpt lat="44.25249" lon="7.68207">
        <ele>1281.09</ele>
        <time>2021-01-09T12:41:04Z</time>
      </trkpt>
      <trkpt lat="44.25252" lon="7.68206">
        <ele>1278.69</ele>
        <time>2021-01-09T12:41:06Z</time>
      </trkpt>
      <trkpt lat="44.25254" lon="7.68204">
        <ele>1277.73</ele>
        <time>2021-01-09T12:41:07Z</time>
      </trkpt>
      <trkpt lat="44.25256" lon="7.68201">
        <ele>1276.29</ele>
        <time>2021-01-09T12:41:08Z</time>
      </trkpt>
      <trkpt lat="44.25257" lon="7.68197">
        <ele>1275.33</ele>
        <time>2021-01-09T12:41:09Z</time>
      </trkpt>
      <trkpt lat="44.25258" lon="7.68191">
        <ele>1272.44</ele>
        <time>2021-01-09T12:41:12Z</time>
      </trkpt>
      <trkpt lat="44.25258" lon="7.68189">
        <ele>1271</ele>
        <time>2021-01-09T12:41:13Z</time>
      </trkpt>
      <trkpt lat="44.25258" lon="7.68185">
        <ele>1270.04</ele>
        <time>2021-01-09T12:41:14Z</time>
      </trkpt>
      <trkpt lat="44.2526" lon="7.6818">
        <ele>1266.67</ele>
        <time>2021-01-09T12:41:18Z</time>
      </trkpt>
      <trkpt lat="44.25262" lon="7.68178">
        <ele>1266.67</ele>
        <time>2021-01-09T12:41:19Z</time>
      </trkpt>
      <trkpt lat="44.25264" lon="7.68176">
        <ele>1266.67</ele>
        <time>2021-01-09T12:41:20Z</time>
      </trkpt>
      <trkpt lat="44.25265" lon="7.6817">
        <ele>1266.19</ele>
        <time>2021-01-09T12:41:23Z</time>
      </trkpt>
      <trkpt lat="44.25266" lon="7.68167">
        <ele>1265.71</ele>
        <time>2021-01-09T12:41:24Z</time>
      </trkpt>
      <trkpt lat="44.25266" lon="7.68162">
        <ele>1265.71</ele>
        <time>2021-01-09T12:41:25Z</time>
      </trkpt>
      <trkpt lat="44.25266" lon="7.68157">
        <ele>1262.35</ele>
        <time>2021-01-09T12:41:32Z</time>
      </trkpt>
      <trkpt lat="44.25269" lon="7.68161">
        <ele>1259.94</ele>
        <time>2021-01-09T12:41:44Z</time>
      </trkpt>
      <trkpt lat="44.25272" lon="7.68162">
        <ele>1258.98</ele>
        <time>2021-01-09T12:41:59Z</time>
      </trkpt>
      <trkpt lat="44.25276" lon="7.68163">
        <ele>1258.5</ele>
        <time>2021-01-09T12:42:01Z</time>
      </trkpt>
      <trkpt lat="44.25281" lon="7.6816">
        <ele>1257.54</ele>
        <time>2021-01-09T12:42:02Z</time>
      </trkpt>
      <trkpt lat="44.25283" lon="7.68157">
        <ele>1257.06</ele>
        <time>2021-01-09T12:42:03Z</time>
      </trkpt>
      <trkpt lat="44.25284" lon="7.68154">
        <ele>1256.1</ele>
        <time>2021-01-09T12:42:04Z</time>
      </trkpt>
      <trkpt lat="44.25285" lon="7.68151">
        <ele>1255.14</ele>
        <time>2021-01-09T12:42:05Z</time>
      </trkpt>
      <trkpt lat="44.25286" lon="7.6815">
        <ele>1254.66</ele>
        <time>2021-01-09T12:42:06Z</time>
      </trkpt>
      <trkpt lat="44.25289" lon="7.68149">
        <ele>1253.7</ele>
        <time>2021-01-09T12:42:07Z</time>
      </trkpt>
      <trkpt lat="44.25291" lon="7.68147">
        <ele>1252.74</ele>
        <time>2021-01-09T12:42:08Z</time>
      </trkpt>
      <trkpt lat="44.25294" lon="7.68144">
        <ele>1251.77</ele>
        <time>2021-01-09T12:42:09Z</time>
      </trkpt>
      <trkpt lat="44.25296" lon="7.6814">
        <ele>1250.33</ele>
        <time>2021-01-09T12:42:10Z</time>
      </trkpt>
      <trkpt lat="44.25296" lon="7.68137">
        <ele>1249.37</ele>
        <time>2021-01-09T12:42:11Z</time>
      </trkpt>
      <trkpt lat="44.25297" lon="7.68134">
        <ele>1248.41</ele>
        <time>2021-01-09T12:42:12Z</time>
      </trkpt>
      <trkpt lat="44.25299" lon="7.6813">
        <ele>1247.45</ele>
        <time>2021-01-09T12:42:13Z</time>
      </trkpt>
      <trkpt lat="44.253" lon="7.68127">
        <ele>1246.01</ele>
        <time>2021-01-09T12:42:14Z</time>
      </trkpt>
      <trkpt lat="44.25308" lon="7.68107">
        <ele>1239.28</ele>
        <time>2021-01-09T12:42:19Z</time>
      </trkpt>
      <trkpt lat="44.25309" lon="7.68102">
        <ele>1238.32</ele>
        <time>2021-01-09T12:42:20Z</time>
      </trkpt>
      <trkpt lat="44.25311" lon="7.68094">
        <ele>1230.14</ele>
        <time>2021-01-09T12:42:29Z</time>
      </trkpt>
      <trkpt lat="44.25313" lon="7.68087">
        <ele>1228.7</ele>
        <time>2021-01-09T12:42:35Z</time>
      </trkpt>
      <trkpt lat="44.25316" lon="7.68081">
        <ele>1228.22</ele>
        <time>2021-01-09T12:42:37Z</time>
      </trkpt>
      <trkpt lat="44.25321" lon="7.68067">
        <ele>1227.26</ele>
        <time>2021-01-09T12:42:41Z</time>
      </trkpt>
      <trkpt lat="44.25323" lon="7.68064">
        <ele>1226.78</ele>
        <time>2021-01-09T12:42:42Z</time>
      </trkpt>
      <trkpt lat="44.25324" lon="7.68061">
        <ele>1226.3</ele>
        <time>2021-01-09T12:42:43Z</time>
      </trkpt>
      <trkpt lat="44.25326" lon="7.68057">
        <ele>1225.82</ele>
        <time>2021-01-09T12:42:44Z</time>
      </trkpt>
      <trkpt lat="44.25328" lon="7.68053">
        <ele>1225.34</ele>
        <time>2021-01-09T12:42:45Z</time>
      </trkpt>
      <trkpt lat="44.25329" lon="7.68049">
        <ele>1224.86</ele>
        <time>2021-01-09T12:42:46Z</time>
      </trkpt>
      <trkpt lat="44.25329" lon="7.68046">
        <ele>1224.38</ele>
        <time>2021-01-09T12:42:47Z</time>
      </trkpt>
      <trkpt lat="44.2533" lon="7.68042">
        <ele>1224.38</ele>
        <time>2021-01-09T12:42:48Z</time>
      </trkpt>
      <trkpt lat="44.2533" lon="7.68038">
        <ele>1223.42</ele>
        <time>2021-01-09T12:42:49Z</time>
      </trkpt>
      <trkpt lat="44.25331" lon="7.68033">
        <ele>1222.93</ele>
        <time>2021-01-09T12:42:50Z</time>
      </trkpt>
      <trkpt lat="44.25332" lon="7.68029">
        <ele>1221.97</ele>
        <time>2021-01-09T12:42:51Z</time>
      </trkpt>
      <trkpt lat="44.25333" lon="7.68025">
        <ele>1221.49</ele>
        <time>2021-01-09T12:42:52Z</time>
      </trkpt>
      <trkpt lat="44.25334" lon="7.68023">
        <ele>1220.05</ele>
        <time>2021-01-09T12:42:53Z</time>
      </trkpt>
      <trkpt lat="44.25339" lon="7.6801">
        <ele>1216.21</ele>
        <time>2021-01-09T12:42:57Z</time>
      </trkpt>
      <trkpt lat="44.25349" lon="7.67976">
        <ele>1207.07</ele>
        <time>2021-01-09T12:43:07Z</time>
      </trkpt>
      <trkpt lat="44.2535" lon="7.67971">
        <ele>1206.59</ele>
        <time>2021-01-09T12:43:08Z</time>
      </trkpt>
      <trkpt lat="44.25368" lon="7.67936">
        <ele>1209</ele>
        <time>2021-01-09T12:43:16Z</time>
      </trkpt>
      <trkpt lat="44.25369" lon="7.67934">
        <ele>1208.51</ele>
        <time>2021-01-09T12:43:17Z</time>
      </trkpt>
      <trkpt lat="44.25377" lon="7.67928">
        <ele>1206.59</ele>
        <time>2021-01-09T12:43:30Z</time>
      </trkpt>
      <trkpt lat="44.25389" lon="7.6792">
        <ele>1206.59</ele>
        <time>2021-01-09T12:43:42Z</time>
      </trkpt>
      <trkpt lat="44.25396" lon="7.67912">
        <ele>1209.96</ele>
        <time>2021-01-09T12:43:55Z</time>
      </trkpt>
      <trkpt lat="44.25399" lon="7.67907">
        <ele>1212.84</ele>
        <time>2021-01-09T12:44:05Z</time>
      </trkpt>
      <trkpt lat="44.25403" lon="7.679">
        <ele>1214.76</ele>
        <time>2021-01-09T12:44:19Z</time>
      </trkpt>
      <trkpt lat="44.25412" lon="7.67885">
        <ele>1216.21</ele>
        <time>2021-01-09T12:44:33Z</time>
      </trkpt>
      <trkpt lat="44.25413" lon="7.67884">
        <ele>1216.21</ele>
        <time>2021-01-09T12:44:34Z</time>
      </trkpt>
      <trkpt lat="44.25414" lon="7.67882">
        <ele>1215.24</ele>
        <time>2021-01-09T12:44:35Z</time>
      </trkpt>
      <trkpt lat="44.25421" lon="7.67873">
        <ele>1212.84</ele>
        <time>2021-01-09T12:44:48Z</time>
      </trkpt>
      <trkpt lat="44.25427" lon="7.67863">
        <ele>1213.8</ele>
        <time>2021-01-09T12:45:02Z</time>
      </trkpt>
      <trkpt lat="44.25432" lon="7.67855">
        <ele>1213.32</ele>
        <time>2021-01-09T12:45:07Z</time>
      </trkpt>
      <trkpt lat="44.25434" lon="7.67825">
        <ele>1210.92</ele>
        <time>2021-01-09T12:45:16Z</time>
      </trkpt>
      <trkpt lat="44.25436" lon="7.67788">
        <ele>1206.59</ele>
        <time>2021-01-09T12:45:25Z</time>
      </trkpt>
      <trkpt lat="44.25437" lon="7.67785">
        <ele>1206.11</ele>
        <time>2021-01-09T12:45:26Z</time>
      </trkpt>
      <trkpt lat="44.25439" lon="7.67782">
        <ele>1205.63</ele>
        <time>2021-01-09T12:45:27Z</time>
      </trkpt>
      <trkpt lat="44.2544" lon="7.67778">
        <ele>1205.15</ele>
        <time>2021-01-09T12:45:28Z</time>
      </trkpt>
      <trkpt lat="44.2544" lon="7.67773">
        <ele>1204.67</ele>
        <time>2021-01-09T12:45:29Z</time>
      </trkpt>
      <trkpt lat="44.25439" lon="7.67769">
        <ele>1204.19</ele>
        <time>2021-01-09T12:45:30Z</time>
      </trkpt>
      <trkpt lat="44.25439" lon="7.67765">
        <ele>1203.23</ele>
        <time>2021-01-09T12:45:31Z</time>
      </trkpt>
      <trkpt lat="44.2544" lon="7.67759">
        <ele>1201.79</ele>
        <time>2021-01-09T12:45:32Z</time>
      </trkpt>
      <trkpt lat="44.2544" lon="7.67754">
        <ele>1200.34</ele>
        <time>2021-01-09T12:45:33Z</time>
      </trkpt>
      <trkpt lat="44.2544" lon="7.67754">
        <ele>1196.02</ele>
        <time>2021-01-09T12:45:36Z</time>
      </trkpt>
      <trkpt lat="44.25439" lon="7.6775">
        <ele>1191.69</ele>
        <time>2021-01-09T12:45:49Z</time>
      </trkpt>
      <trkpt lat="44.25437" lon="7.67745">
        <ele>1192.65</ele>
        <time>2021-01-09T12:46:08Z</time>
      </trkpt>
      <trkpt lat="44.25434" lon="7.67741">
        <ele>1194.09</ele>
        <time>2021-01-09T12:46:16Z</time>
      </trkpt>
      <trkpt lat="44.25437" lon="7.67735">
        <ele>1194.09</ele>
        <time>2021-01-09T12:46:19Z</time>
      </trkpt>
      <trkpt lat="44.25438" lon="7.67732">
        <ele>1194.09</ele>
        <time>2021-01-09T12:46:20Z</time>
      </trkpt>
      <trkpt lat="44.2544" lon="7.67731">
        <ele>1193.61</ele>
        <time>2021-01-09T12:46:21Z</time>
      </trkpt>
      <trkpt lat="44.25441" lon="7.6773">
        <ele>1193.61</ele>
        <time>2021-01-09T12:46:22Z</time>
      </trkpt>
      <trkpt lat="44.25443" lon="7.67728">
        <ele>1192.65</ele>
        <time>2021-01-09T12:46:23Z</time>
      </trkpt>
      <trkpt lat="44.25444" lon="7.67727">
        <ele>1192.17</ele>
        <time>2021-01-09T12:46:24Z</time>
      </trkpt>
      <trkpt lat="44.25455" lon="7.67712">
        <ele>1187.85</ele>
        <time>2021-01-09T12:46:31Z</time>
      </trkpt>
      <trkpt lat="44.25464" lon="7.67703">
        <ele>1184.48</ele>
        <time>2021-01-09T12:46:34Z</time>
      </trkpt>
      <trkpt lat="44.25485" lon="7.67694">
        <ele>1177.27</ele>
        <time>2021-01-09T12:46:40Z</time>
      </trkpt>
      <trkpt lat="44.25498" lon="7.67682">
        <ele>1173.91</ele>
        <time>2021-01-09T12:46:44Z</time>
      </trkpt>
      <trkpt lat="44.25507" lon="7.67672">
        <ele>1173.91</ele>
        <time>2021-01-09T12:46:46Z</time>
      </trkpt>
      <trkpt lat="44.25511" lon="7.67669">
        <ele>1173.91</ele>
        <time>2021-01-09T12:46:47Z</time>
      </trkpt>
      <trkpt lat="44.25525" lon="7.67662">
        <ele>1173.43</ele>
        <time>2021-01-09T12:46:50Z</time>
      </trkpt>
      <trkpt lat="44.25537" lon="7.67648">
        <ele>1172.95</ele>
        <time>2021-01-09T12:46:54Z</time>
      </trkpt>
      <trkpt lat="44.25548" lon="7.67639">
        <ele>1172.47</ele>
        <time>2021-01-09T12:46:57Z</time>
      </trkpt>
      <trkpt lat="44.25557" lon="7.67629">
        <ele>1171.98</ele>
        <time>2021-01-09T12:47:00Z</time>
      </trkpt>
      <trkpt lat="44.2557" lon="7.67614">
        <ele>1169.58</ele>
        <time>2021-01-09T12:47:09Z</time>
      </trkpt>
      <trkpt lat="44.25575" lon="7.67614">
        <ele>1166.22</ele>
        <time>2021-01-09T12:47:26Z</time>
      </trkpt>
      <trkpt lat="44.25578" lon="7.67615">
        <ele>1164.77</ele>
        <time>2021-01-09T12:47:33Z</time>
      </trkpt>
      <trkpt lat="44.25589" lon="7.67618">
        <ele>1162.85</ele>
        <time>2021-01-09T12:47:41Z</time>
      </trkpt>
      <trkpt lat="44.25614" lon="7.67631">
        <ele>1159.01</ele>
        <time>2021-01-09T12:47:54Z</time>
      </trkpt>
      <trkpt lat="44.25616" lon="7.67635">
        <ele>1157.08</ele>
        <time>2021-01-09T12:48:05Z</time>
      </trkpt>
      <trkpt lat="44.25617" lon="7.67632">
        <ele>1156.12</ele>
        <time>2021-01-09T12:48:17Z</time>
      </trkpt>
      <trkpt lat="44.25619" lon="7.67633">
        <ele>1158.53</ele>
        <time>2021-01-09T12:48:28Z</time>
      </trkpt>
      <trkpt lat="44.25619" lon="7.67632">
        <ele>1157.08</ele>
        <time>2021-01-09T12:48:44Z</time>
      </trkpt>
      <trkpt lat="44.2562" lon="7.67634">
        <ele>1158.05</ele>
        <time>2021-01-09T12:48:56Z</time>
      </trkpt>
      <trkpt lat="44.2563" lon="7.67615">
        <ele>1153.24</ele>
        <time>2021-01-09T12:49:02Z</time>
      </trkpt>
      <trkpt lat="44.25635" lon="7.67604">
        <ele>1150.84</ele>
        <time>2021-01-09T12:49:04Z</time>
      </trkpt>
      <trkpt lat="44.25637" lon="7.67598">
        <ele>1149.39</ele>
        <time>2021-01-09T12:49:05Z</time>
      </trkpt>
      <trkpt lat="44.25639" lon="7.67593">
        <ele>1147.95</ele>
        <time>2021-01-09T12:49:06Z</time>
      </trkpt>
      <trkpt lat="44.25639" lon="7.67589">
        <ele>1146.03</ele>
        <time>2021-01-09T12:49:07Z</time>
      </trkpt>
      <trkpt lat="44.25638" lon="7.67586">
        <ele>1144.59</ele>
        <time>2021-01-09T12:49:08Z</time>
      </trkpt>
      <trkpt lat="44.25638" lon="7.67583">
        <ele>1142.18</ele>
        <time>2021-01-09T12:49:09Z</time>
      </trkpt>
      <trkpt lat="44.25635" lon="7.67575">
        <ele>1137.38</ele>
        <time>2021-01-09T12:49:12Z</time>
      </trkpt>
      <trkpt lat="44.25637" lon="7.67573">
        <ele>1135.45</ele>
        <time>2021-01-09T12:49:13Z</time>
      </trkpt>
      <trkpt lat="44.25641" lon="7.67568">
        <ele>1132.57</ele>
        <time>2021-01-09T12:49:15Z</time>
      </trkpt>
      <trkpt lat="44.25642" lon="7.67565">
        <ele>1131.13</ele>
        <time>2021-01-09T12:49:16Z</time>
      </trkpt>
      <trkpt lat="44.25641" lon="7.6756">
        <ele>1129.21</ele>
        <time>2021-01-09T12:49:17Z</time>
      </trkpt>
      <trkpt lat="44.25641" lon="7.67556">
        <ele>1127.28</ele>
        <time>2021-01-09T12:49:18Z</time>
      </trkpt>
      <trkpt lat="44.2564" lon="7.67552">
        <ele>1125.36</ele>
        <time>2021-01-09T12:49:19Z</time>
      </trkpt>
      <trkpt lat="44.25639" lon="7.67547">
        <ele>1123.44</ele>
        <time>2021-01-09T12:49:20Z</time>
      </trkpt>
      <trkpt lat="44.25637" lon="7.67542">
        <ele>1121.03</ele>
        <time>2021-01-09T12:49:21Z</time>
      </trkpt>
      <trkpt lat="44.25634" lon="7.67538">
        <ele>1116.23</ele>
        <time>2021-01-09T12:49:27Z</time>
      </trkpt>
      <trkpt lat="44.25634" lon="7.67534">
        <ele>1119.11</ele>
        <time>2021-01-09T12:49:42Z</time>
      </trkpt>
      <trkpt lat="44.25634" lon="7.67532">
        <ele>1122</ele>
        <time>2021-01-09T12:49:57Z</time>
      </trkpt>
      <trkpt lat="44.25635" lon="7.67526">
        <ele>1122.48</ele>
        <time>2021-01-09T12:50:09Z</time>
      </trkpt>
      <trkpt lat="44.25634" lon="7.67524">
        <ele>1122</ele>
        <time>2021-01-09T12:50:10Z</time>
      </trkpt>
      <trkpt lat="44.25633" lon="7.67522">
        <ele>1121.52</ele>
        <time>2021-01-09T12:50:11Z</time>
      </trkpt>
      <trkpt lat="44.25631" lon="7.6752">
        <ele>1121.03</ele>
        <time>2021-01-09T12:50:12Z</time>
      </trkpt>
      <trkpt lat="44.2563" lon="7.67517">
        <ele>1120.55</ele>
        <time>2021-01-09T12:50:13Z</time>
      </trkpt>
      <trkpt lat="44.25614" lon="7.67495">
        <ele>1113.34</ele>
        <time>2021-01-09T12:50:22Z</time>
      </trkpt>
      <trkpt lat="44.25607" lon="7.67491">
        <ele>1107.58</ele>
        <time>2021-01-09T12:50:31Z</time>
      </trkpt>
      <trkpt lat="44.25603" lon="7.67488">
        <ele>1105.65</ele>
        <time>2021-01-09T12:50:34Z</time>
      </trkpt>
      <trkpt lat="44.25601" lon="7.67486">
        <ele>1104.69</ele>
        <time>2021-01-09T12:50:35Z</time>
      </trkpt>
      <trkpt lat="44.25599" lon="7.67484">
        <ele>1104.21</ele>
        <time>2021-01-09T12:50:36Z</time>
      </trkpt>
      <trkpt lat="44.25597" lon="7.67483">
        <ele>1103.25</ele>
        <time>2021-01-09T12:50:37Z</time>
      </trkpt>
      <trkpt lat="44.25594" lon="7.67482">
        <ele>1101.81</ele>
        <time>2021-01-09T12:50:38Z</time>
      </trkpt>
      <trkpt lat="44.25592" lon="7.67482">
        <ele>1100.85</ele>
        <time>2021-01-09T12:50:39Z</time>
      </trkpt>
      <trkpt lat="44.2559" lon="7.67481">
        <ele>1099.4</ele>
        <time>2021-01-09T12:50:40Z</time>
      </trkpt>
      <trkpt lat="44.25587" lon="7.67481">
        <ele>1098.44</ele>
        <time>2021-01-09T12:50:41Z</time>
      </trkpt>
      <trkpt lat="44.25583" lon="7.67478">
        <ele>1097.48</ele>
        <time>2021-01-09T12:50:46Z</time>
      </trkpt>
      <trkpt lat="44.25575" lon="7.67473">
        <ele>1097</ele>
        <time>2021-01-09T12:50:59Z</time>
      </trkpt>
      <trkpt lat="44.25568" lon="7.6746">
        <ele>1101.33</ele>
        <time>2021-01-09T12:51:17Z</time>
      </trkpt>
      <trkpt lat="44.25566" lon="7.67455">
        <ele>1102.77</ele>
        <time>2021-01-09T12:51:23Z</time>
      </trkpt>
      <trkpt lat="44.25567" lon="7.67446">
        <ele>1100.37</ele>
        <time>2021-01-09T12:51:33Z</time>
      </trkpt>
      <trkpt lat="44.25568" lon="7.67437">
        <ele>1097.48</ele>
        <time>2021-01-09T12:51:43Z</time>
      </trkpt>
      <trkpt lat="44.25572" lon="7.67434">
        <ele>1095.08</ele>
        <time>2021-01-09T12:51:46Z</time>
      </trkpt>
      <trkpt lat="44.25573" lon="7.67426">
        <ele>1093.16</ele>
        <time>2021-01-09T12:51:51Z</time>
      </trkpt>
      <trkpt lat="44.25573" lon="7.67422">
        <ele>1092.2</ele>
        <time>2021-01-09T12:51:52Z</time>
      </trkpt>
      <trkpt lat="44.25569" lon="7.67409">
        <ele>1088.83</ele>
        <time>2021-01-09T12:51:58Z</time>
      </trkpt>
      <trkpt lat="44.2557" lon="7.67408">
        <ele>1088.35</ele>
        <time>2021-01-09T12:51:59Z</time>
      </trkpt>
      <trkpt lat="44.25579" lon="7.67407">
        <ele>1087.39</ele>
        <time>2021-01-09T12:52:11Z</time>
      </trkpt>
      <trkpt lat="44.25582" lon="7.67404">
        <ele>1090.75</ele>
        <time>2021-01-09T12:52:36Z</time>
      </trkpt>
      <trkpt lat="44.25583" lon="7.67403">
        <ele>1090.27</ele>
        <time>2021-01-09T12:52:37Z</time>
      </trkpt>
      <trkpt lat="44.25581" lon="7.67392">
        <ele>1086.91</ele>
        <time>2021-01-09T12:52:42Z</time>
      </trkpt>
      <trkpt lat="44.25581" lon="7.67388">
        <ele>1085.47</ele>
        <time>2021-01-09T12:52:43Z</time>
      </trkpt>
      <trkpt lat="44.25583" lon="7.67382">
        <ele>1083.06</ele>
        <time>2021-01-09T12:52:45Z</time>
      </trkpt>
      <trkpt lat="44.25584" lon="7.67383">
        <ele>1081.62</ele>
        <time>2021-01-09T12:52:46Z</time>
      </trkpt>
      <trkpt lat="44.2559" lon="7.67385">
        <ele>1077.29</ele>
        <time>2021-01-09T12:52:49Z</time>
      </trkpt>
      <trkpt lat="44.25592" lon="7.67383">
        <ele>1076.33</ele>
        <time>2021-01-09T12:52:50Z</time>
      </trkpt>
      <trkpt lat="44.25593" lon="7.6738">
        <ele>1074.89</ele>
        <time>2021-01-09T12:52:51Z</time>
      </trkpt>
      <trkpt lat="44.25592" lon="7.6737">
        <ele>1071.05</ele>
        <time>2021-01-09T12:52:55Z</time>
      </trkpt>
      <trkpt lat="44.25591" lon="7.67359">
        <ele>1069.12</ele>
        <time>2021-01-09T12:52:59Z</time>
      </trkpt>
      <trkpt lat="44.25589" lon="7.67349">
        <ele>1065.76</ele>
        <time>2021-01-09T12:53:08Z</time>
      </trkpt>
      <trkpt lat="44.25588" lon="7.67342">
        <ele>1064.32</ele>
        <time>2021-01-09T12:53:27Z</time>
      </trkpt>
      <trkpt lat="44.25589" lon="7.67342">
        <ele>1064.32</ele>
        <time>2021-01-09T12:53:28Z</time>
      </trkpt>
      <trkpt lat="44.25598" lon="7.67338">
        <ele>1063.36</ele>
        <time>2021-01-09T12:53:41Z</time>
      </trkpt>
      <trkpt lat="44.25602" lon="7.67331">
        <ele>1062.39</ele>
        <time>2021-01-09T12:53:54Z</time>
      </trkpt>
      <trkpt lat="44.25605" lon="7.67323">
        <ele>1056.63</ele>
        <time>2021-01-09T12:54:06Z</time>
      </trkpt>
      <trkpt lat="44.25606" lon="7.67317">
        <ele>1052.78</ele>
        <time>2021-01-09T12:54:16Z</time>
      </trkpt>
      <trkpt lat="44.25609" lon="7.67319">
        <ele>1050.86</ele>
        <time>2021-01-09T12:54:30Z</time>
      </trkpt>
      <trkpt lat="44.2561" lon="7.67318">
        <ele>1050.86</ele>
        <time>2021-01-09T12:54:32Z</time>
      </trkpt>
      <trkpt lat="44.25616" lon="7.67319">
        <ele>1049.9</ele>
        <time>2021-01-09T12:54:43Z</time>
      </trkpt>
      <trkpt lat="44.25622" lon="7.67328">
        <ele>1051.82</ele>
        <time>2021-01-09T12:54:57Z</time>
      </trkpt>
      <trkpt lat="44.25626" lon="7.67334">
        <ele>1052.3</ele>
        <time>2021-01-09T12:55:10Z</time>
      </trkpt>
      <trkpt lat="44.25637" lon="7.67323">
        <ele>1054.22</ele>
        <time>2021-01-09T12:55:27Z</time>
      </trkpt>
      <trkpt lat="44.25639" lon="7.6732">
        <ele>1053.74</ele>
        <time>2021-01-09T12:55:28Z</time>
      </trkpt>
      <trkpt lat="44.25643" lon="7.67316">
        <ele>1052.3</ele>
        <time>2021-01-09T12:55:32Z</time>
      </trkpt>
      <trkpt lat="44.25653" lon="7.67294">
        <ele>1048.45</ele>
        <time>2021-01-09T12:55:40Z</time>
      </trkpt>
      <trkpt lat="44.25655" lon="7.67292">
        <ele>1047.49</ele>
        <time>2021-01-09T12:55:41Z</time>
      </trkpt>
      <trkpt lat="44.25658" lon="7.67293">
        <ele>1047.01</ele>
        <time>2021-01-09T12:55:42Z</time>
      </trkpt>
      <trkpt lat="44.2566" lon="7.67292">
        <ele>1046.05</ele>
        <time>2021-01-09T12:55:43Z</time>
      </trkpt>
      <trkpt lat="44.25662" lon="7.6729">
        <ele>1045.09</ele>
        <time>2021-01-09T12:55:44Z</time>
      </trkpt>
      <trkpt lat="44.25665" lon="7.67288">
        <ele>1044.13</ele>
        <time>2021-01-09T12:55:45Z</time>
      </trkpt>
      <trkpt lat="44.25682" lon="7.67265">
        <ele>1036.92</ele>
        <time>2021-01-09T12:55:54Z</time>
      </trkpt>
      <trkpt lat="44.25694" lon="7.6725">
        <ele>1034.04</ele>
        <time>2021-01-09T12:56:02Z</time>
      </trkpt>
      <trkpt lat="44.25694" lon="7.67242">
        <ele>1035.48</ele>
        <time>2021-01-09T12:56:18Z</time>
      </trkpt>
      <trkpt lat="44.25694" lon="7.67235">
        <ele>1036.44</ele>
        <time>2021-01-09T12:56:38Z</time>
      </trkpt>
      <trkpt lat="44.25694" lon="7.67232">
        <ele>1036.44</ele>
        <time>2021-01-09T12:56:59Z</time>
      </trkpt>
      <trkpt lat="44.25697" lon="7.67232">
        <ele>1036.44</ele>
        <time>2021-01-09T12:57:00Z</time>
      </trkpt>
      <trkpt lat="44.2571" lon="7.67234">
        <ele>1034.52</ele>
        <time>2021-01-09T12:57:06Z</time>
      </trkpt>
      <trkpt lat="44.2571" lon="7.6723">
        <ele>1034.04</ele>
        <time>2021-01-09T12:57:07Z</time>
      </trkpt>
      <trkpt lat="44.25711" lon="7.67224">
        <ele>1032.59</ele>
        <time>2021-01-09T12:57:09Z</time>
      </trkpt>
      <trkpt lat="44.25713" lon="7.67221">
        <ele>1031.15</ele>
        <time>2021-01-09T12:57:10Z</time>
      </trkpt>
      <trkpt lat="44.25716" lon="7.6722">
        <ele>1029.71</ele>
        <time>2021-01-09T12:57:11Z</time>
      </trkpt>
      <trkpt lat="44.25719" lon="7.67221">
        <ele>1028.75</ele>
        <time>2021-01-09T12:57:12Z</time>
      </trkpt>
      <trkpt lat="44.25721" lon="7.67222">
        <ele>1027.79</ele>
        <time>2021-01-09T12:57:13Z</time>
      </trkpt>
      <trkpt lat="44.25723" lon="7.67222">
        <ele>1026.83</ele>
        <time>2021-01-09T12:57:14Z</time>
      </trkpt>
      <trkpt lat="44.25722" lon="7.67218">
        <ele>1022.5</ele>
        <time>2021-01-09T12:57:23Z</time>
      </trkpt>
      <trkpt lat="44.25727" lon="7.67213">
        <ele>1026.83</ele>
        <time>2021-01-09T12:57:47Z</time>
      </trkpt>
      <trkpt lat="44.25729" lon="7.67211">
        <ele>1028.27</ele>
        <time>2021-01-09T12:58:07Z</time>
      </trkpt>
      <trkpt lat="44.25733" lon="7.67206">
        <ele>1031.15</ele>
        <time>2021-01-09T12:58:21Z</time>
      </trkpt>
      <trkpt lat="44.25733" lon="7.67205">
        <ele>1030.67</ele>
        <time>2021-01-09T12:58:22Z</time>
      </trkpt>
      <trkpt lat="44.25733" lon="7.67203">
        <ele>1030.67</ele>
        <time>2021-01-09T12:58:23Z</time>
      </trkpt>
      <trkpt lat="44.25735" lon="7.672">
        <ele>1030.19</ele>
        <time>2021-01-09T12:58:24Z</time>
      </trkpt>
      <trkpt lat="44.25737" lon="7.67198">
        <ele>1029.23</ele>
        <time>2021-01-09T12:58:25Z</time>
      </trkpt>
      <trkpt lat="44.2574" lon="7.67198">
        <ele>1028.27</ele>
        <time>2021-01-09T12:58:26Z</time>
      </trkpt>
      <trkpt lat="44.25742" lon="7.67198">
        <ele>1027.31</ele>
        <time>2021-01-09T12:58:27Z</time>
      </trkpt>
      <trkpt lat="44.25745" lon="7.672">
        <ele>1026.34</ele>
        <time>2021-01-09T12:58:28Z</time>
      </trkpt>
      <trkpt lat="44.25746" lon="7.67201">
        <ele>1025.38</ele>
        <time>2021-01-09T12:58:29Z</time>
      </trkpt>
      <trkpt lat="44.25748" lon="7.67203">
        <ele>1024.9</ele>
        <time>2021-01-09T12:58:30Z</time>
      </trkpt>
      <trkpt lat="44.2575" lon="7.67204">
        <ele>1023.94</ele>
        <time>2021-01-09T12:58:31Z</time>
      </trkpt>
      <trkpt lat="44.25751" lon="7.67206">
        <ele>1023.46</ele>
        <time>2021-01-09T12:58:32Z</time>
      </trkpt>
      <trkpt lat="44.25752" lon="7.67212">
        <ele>1019.13</ele>
        <time>2021-01-09T12:58:40Z</time>
      </trkpt>
      <trkpt lat="44.25756" lon="7.67216">
        <ele>1016.73</ele>
        <time>2021-01-09T12:58:45Z</time>
      </trkpt>
      <trkpt lat="44.25758" lon="7.67217">
        <ele>1016.73</ele>
        <time>2021-01-09T12:58:46Z</time>
      </trkpt>
      <trkpt lat="44.2576" lon="7.67215">
        <ele>1015.29</ele>
        <time>2021-01-09T12:58:49Z</time>
      </trkpt>
      <trkpt lat="44.25767" lon="7.67204">
        <ele>1010.96</ele>
        <time>2021-01-09T12:58:58Z</time>
      </trkpt>
      <trkpt lat="44.2577" lon="7.67203">
        <ele>1009.52</ele>
        <time>2021-01-09T12:59:16Z</time>
      </trkpt>
      <trkpt lat="44.25775" lon="7.67205">
        <ele>1012.89</ele>
        <time>2021-01-09T12:59:39Z</time>
      </trkpt>
      <trkpt lat="44.25775" lon="7.67203">
        <ele>1013.85</ele>
        <time>2021-01-09T12:59:54Z</time>
      </trkpt>
      <trkpt lat="44.25776" lon="7.67203">
        <ele>1014.33</ele>
        <time>2021-01-09T13:00:08Z</time>
      </trkpt>
      <trkpt lat="44.2577" lon="7.67211">
        <ele>1010.48</ele>
        <time>2021-01-09T13:00:17Z</time>
      </trkpt>
      <trkpt lat="44.25776" lon="7.67246">
        <ele>1010.48</ele>
        <time>2021-01-09T13:00:31Z</time>
      </trkpt>
      <trkpt lat="44.25799" lon="7.67285">
        <ele>1010.96</ele>
        <time>2021-01-09T13:00:44Z</time>
      </trkpt>
      <trkpt lat="44.2582" lon="7.67311">
        <ele>1006.16</ele>
        <time>2021-01-09T13:00:54Z</time>
      </trkpt>
      <trkpt lat="44.25823" lon="7.67311">
        <ele>1005.68</ele>
        <time>2021-01-09T13:00:55Z</time>
      </trkpt>
      <trkpt lat="44.25826" lon="7.67311">
        <ele>1005.68</ele>
        <time>2021-01-09T13:00:56Z</time>
      </trkpt>
      <trkpt lat="44.25853" lon="7.67319">
        <ele>1002.31</ele>
        <time>2021-01-09T13:01:08Z</time>
      </trkpt>
      <trkpt lat="44.25857" lon="7.67321">
        <ele>1003.75</ele>
        <time>2021-01-09T13:01:24Z</time>
      </trkpt>
      <trkpt lat="44.25859" lon="7.67326">
        <ele>1001.35</ele>
        <time>2021-01-09T13:01:36Z</time>
      </trkpt>
      <trkpt lat="44.2586" lon="7.67327">
        <ele>1000.87</ele>
        <time>2021-01-09T13:01:37Z</time>
      </trkpt>
      <trkpt lat="44.2586" lon="7.67329">
        <ele>1000.87</ele>
        <time>2021-01-09T13:01:38Z</time>
      </trkpt>
      <trkpt lat="44.25868" lon="7.67344">
        <ele>997.99</ele>
        <time>2021-01-09T13:01:53Z</time>
      </trkpt>
      <trkpt lat="44.25867" lon="7.67353">
        <ele>997.99</ele>
        <time>2021-01-09T13:02:13Z</time>
      </trkpt>
      <trkpt lat="44.25873" lon="7.67372">
        <ele>997.02</ele>
        <time>2021-01-09T13:02:26Z</time>
      </trkpt>
      <trkpt lat="44.25889" lon="7.67402">
        <ele>987.89</ele>
        <time>2021-01-09T13:02:37Z</time>
      </trkpt>
      <trkpt lat="44.25902" lon="7.67454">
        <ele>975.39</ele>
        <time>2021-01-09T13:02:49Z</time>
      </trkpt>
      <trkpt lat="44.25908" lon="7.67474">
        <ele>968.67</ele>
        <time>2021-01-09T13:02:54Z</time>
      </trkpt>
      <trkpt lat="44.25893" lon="7.67508">
        <ele>969.63</ele>
        <time>2021-01-09T13:03:05Z</time>
      </trkpt>
      <trkpt lat="44.2589" lon="7.67513">
        <ele>970.11</ele>
        <time>2021-01-09T13:03:07Z</time>
      </trkpt>
      <trkpt lat="44.25891" lon="7.67515">
        <ele>971.07</ele>
        <time>2021-01-09T13:03:08Z</time>
      </trkpt>
      <trkpt lat="44.25892" lon="7.67518">
        <ele>971.55</ele>
        <time>2021-01-09T13:03:09Z</time>
      </trkpt>
      <trkpt lat="44.25912" lon="7.67527">
        <ele>972.99</ele>
        <time>2021-01-09T13:03:19Z</time>
      </trkpt>
      <trkpt lat="44.25941" lon="7.6755">
        <ele>970.11</ele>
        <time>2021-01-09T13:03:29Z</time>
      </trkpt>
      <trkpt lat="44.25952" lon="7.67574">
        <ele>962.42</ele>
        <time>2021-01-09T13:03:38Z</time>
      </trkpt>
      <trkpt lat="44.25951" lon="7.67587">
        <ele>960.01</ele>
        <time>2021-01-09T13:03:51Z</time>
      </trkpt>
      <trkpt lat="44.25953" lon="7.67591">
        <ele>959.53</ele>
        <time>2021-01-09T13:03:53Z</time>
      </trkpt>
      <trkpt lat="44.25953" lon="7.67593">
        <ele>959.05</ele>
        <time>2021-01-09T13:03:54Z</time>
      </trkpt>
      <trkpt lat="44.25961" lon="7.6761">
        <ele>955.69</ele>
        <time>2021-01-09T13:04:00Z</time>
      </trkpt>
      <trkpt lat="44.25966" lon="7.67634">
        <ele>955.69</ele>
        <time>2021-01-09T13:04:04Z</time>
      </trkpt>
      <trkpt lat="44.25969" lon="7.67699">
        <ele>955.69</ele>
        <time>2021-01-09T13:04:15Z</time>
      </trkpt>
      <trkpt lat="44.2597" lon="7.67717">
        <ele>955.21</ele>
        <time>2021-01-09T13:04:24Z</time>
      </trkpt>
      <trkpt lat="44.25975" lon="7.67726">
        <ele>955.21</ele>
        <time>2021-01-09T13:04:44Z</time>
      </trkpt>
      <trkpt lat="44.25979" lon="7.67723">
        <ele>954.73</ele>
        <time>2021-01-09T13:04:45Z</time>
      </trkpt>
      <trkpt lat="44.25983" lon="7.67718">
        <ele>953.77</ele>
        <time>2021-01-09T13:04:46Z</time>
      </trkpt>
      <trkpt lat="44.25987" lon="7.67712">
        <ele>945.59</ele>
        <time>2021-01-09T13:04:54Z</time>
      </trkpt>
      <trkpt lat="44.25987" lon="7.67714">
        <ele>944.63</ele>
        <time>2021-01-09T13:04:55Z</time>
      </trkpt>
      <trkpt lat="44.25987" lon="7.67716">
        <ele>944.15</ele>
        <time>2021-01-09T13:04:56Z</time>
      </trkpt>
      <trkpt lat="44.25986" lon="7.67718">
        <ele>943.67</ele>
        <time>2021-01-09T13:04:57Z</time>
      </trkpt>
      <trkpt lat="44.25986" lon="7.67722">
        <ele>943.19</ele>
        <time>2021-01-09T13:04:58Z</time>
      </trkpt>
      <trkpt lat="44.25986" lon="7.67727">
        <ele>942.71</ele>
        <time>2021-01-09T13:04:59Z</time>
      </trkpt>
      <trkpt lat="44.25989" lon="7.67728">
        <ele>940.31</ele>
        <time>2021-01-09T13:05:05Z</time>
      </trkpt>
      <trkpt lat="44.25991" lon="7.67726">
        <ele>939.35</ele>
        <time>2021-01-09T13:05:06Z</time>
      </trkpt>
      <trkpt lat="44.25993" lon="7.67724">
        <ele>938.38</ele>
        <time>2021-01-09T13:05:07Z</time>
      </trkpt>
      <trkpt lat="44.26" lon="7.67718">
        <ele>936.94</ele>
        <time>2021-01-09T13:05:09Z</time>
      </trkpt>
      <trkpt lat="44.26005" lon="7.67715">
        <ele>936.46</ele>
        <time>2021-01-09T13:05:10Z</time>
      </trkpt>
      <trkpt lat="44.26008" lon="7.6771">
        <ele>935.5</ele>
        <time>2021-01-09T13:05:11Z</time>
      </trkpt>
      <trkpt lat="44.26014" lon="7.67693">
        <ele>933.1</ele>
        <time>2021-01-09T13:05:15Z</time>
      </trkpt>
      <trkpt lat="44.26014" lon="7.67689">
        <ele>932.14</ele>
        <time>2021-01-09T13:05:16Z</time>
      </trkpt>
      <trkpt lat="44.26014" lon="7.67685">
        <ele>931.17</ele>
        <time>2021-01-09T13:05:17Z</time>
      </trkpt>
      <trkpt lat="44.26013" lon="7.6768">
        <ele>930.69</ele>
        <time>2021-01-09T13:05:18Z</time>
      </trkpt>
      <trkpt lat="44.26012" lon="7.67676">
        <ele>930.21</ele>
        <time>2021-01-09T13:05:19Z</time>
      </trkpt>
      <trkpt lat="44.26011" lon="7.67637">
        <ele>920.6</ele>
        <time>2021-01-09T13:05:30Z</time>
      </trkpt>
      <trkpt lat="44.26004" lon="7.67615">
        <ele>912.43</ele>
        <time>2021-01-09T13:05:41Z</time>
      </trkpt>
      <trkpt lat="44.26006" lon="7.67613">
        <ele>909.06</ele>
        <time>2021-01-09T13:05:50Z</time>
      </trkpt>
      <trkpt lat="44.26008" lon="7.67615">
        <ele>908.58</ele>
        <time>2021-01-09T13:05:51Z</time>
      </trkpt>
      <trkpt lat="44.2601" lon="7.67616">
        <ele>908.1</ele>
        <time>2021-01-09T13:05:52Z</time>
      </trkpt>
      <trkpt lat="44.26011" lon="7.67618">
        <ele>907.62</ele>
        <time>2021-01-09T13:05:53Z</time>
      </trkpt>
      <trkpt lat="44.26016" lon="7.67618">
        <ele>906.66</ele>
        <time>2021-01-09T13:05:55Z</time>
      </trkpt>
      <trkpt lat="44.26018" lon="7.67615">
        <ele>905.7</ele>
        <time>2021-01-09T13:05:56Z</time>
      </trkpt>
      <trkpt lat="44.2602" lon="7.67611">
        <ele>905.22</ele>
        <time>2021-01-09T13:05:57Z</time>
      </trkpt>
      <trkpt lat="44.26021" lon="7.67607">
        <ele>904.26</ele>
        <time>2021-01-09T13:05:58Z</time>
      </trkpt>
      <trkpt lat="44.26022" lon="7.67603">
        <ele>903.3</ele>
        <time>2021-01-09T13:05:59Z</time>
      </trkpt>
      <trkpt lat="44.26023" lon="7.676">
        <ele>902.33</ele>
        <time>2021-01-09T13:06:00Z</time>
      </trkpt>
      <trkpt lat="44.26023" lon="7.67584">
        <ele>898.01</ele>
        <time>2021-01-09T13:06:04Z</time>
      </trkpt>
      <trkpt lat="44.26023" lon="7.67582">
        <ele>897.05</ele>
        <time>2021-01-09T13:06:05Z</time>
      </trkpt>
      <trkpt lat="44.26024" lon="7.6758">
        <ele>895.61</ele>
        <time>2021-01-09T13:06:06Z</time>
      </trkpt>
      <trkpt lat="44.26024" lon="7.67577">
        <ele>895.12</ele>
        <time>2021-01-09T13:06:07Z</time>
      </trkpt>
      <trkpt lat="44.26025" lon="7.67565">
        <ele>891.76</ele>
        <time>2021-01-09T13:06:17Z</time>
      </trkpt>
      <trkpt lat="44.26025" lon="7.67562">
        <ele>892.24</ele>
        <time>2021-01-09T13:06:18Z</time>
      </trkpt>
      <trkpt lat="44.26025" lon="7.67558">
        <ele>891.76</ele>
        <time>2021-01-09T13:06:19Z</time>
      </trkpt>
      <trkpt lat="44.26024" lon="7.67555">
        <ele>891.28</ele>
        <time>2021-01-09T13:06:20Z</time>
      </trkpt>
      <trkpt lat="44.26023" lon="7.67553">
        <ele>890.8</ele>
        <time>2021-01-09T13:06:21Z</time>
      </trkpt>
      <trkpt lat="44.26023" lon="7.6755">
        <ele>891.28</ele>
        <time>2021-01-09T13:06:22Z</time>
      </trkpt>
      <trkpt lat="44.26023" lon="7.67549">
        <ele>891.28</ele>
        <time>2021-01-09T13:06:23Z</time>
      </trkpt>
      <trkpt lat="44.26023" lon="7.67547">
        <ele>891.28</ele>
        <time>2021-01-09T13:06:24Z</time>
      </trkpt>
      <trkpt lat="44.26024" lon="7.67538">
        <ele>894.16</ele>
        <time>2021-01-09T13:06:37Z</time>
      </trkpt>
      <trkpt lat="44.26023" lon="7.67529">
        <ele>897.53</ele>
        <time>2021-01-09T13:06:52Z</time>
      </trkpt>
      <trkpt lat="44.26025" lon="7.67527">
        <ele>898.97</ele>
        <time>2021-01-09T13:07:07Z</time>
      </trkpt>
      <trkpt lat="44.26021" lon="7.67525">
        <ele>898.97</ele>
        <time>2021-01-09T13:07:20Z</time>
      </trkpt>
      <trkpt lat="44.26021" lon="7.67516">
        <ele>903.3</ele>
        <time>2021-01-09T13:07:30Z</time>
      </trkpt>
      <trkpt lat="44.26026" lon="7.67515">
        <ele>905.7</ele>
        <time>2021-01-09T13:07:36Z</time>
      </trkpt>
      <trkpt lat="44.26026" lon="7.67513">
        <ele>906.18</ele>
        <time>2021-01-09T13:07:37Z</time>
      </trkpt>
      <trkpt lat="44.26031" lon="7.67508">
        <ele>908.1</ele>
        <time>2021-01-09T13:07:46Z</time>
      </trkpt>
      <trkpt lat="44.26034" lon="7.67508">
        <ele>909.54</ele>
        <time>2021-01-09T13:07:52Z</time>
      </trkpt>
      <trkpt lat="44.26036" lon="7.67506">
        <ele>909.54</ele>
        <time>2021-01-09T13:07:53Z</time>
      </trkpt>
      <trkpt lat="44.26037" lon="7.67502">
        <ele>910.03</ele>
        <time>2021-01-09T13:07:54Z</time>
      </trkpt>
      <trkpt lat="44.26038" lon="7.67498">
        <ele>910.03</ele>
        <time>2021-01-09T13:07:55Z</time>
      </trkpt>
      <trkpt lat="44.26039" lon="7.67494">
        <ele>909.54</ele>
        <time>2021-01-09T13:07:56Z</time>
      </trkpt>
      <trkpt lat="44.2604" lon="7.6749">
        <ele>909.06</ele>
        <time>2021-01-09T13:07:57Z</time>
      </trkpt>
      <trkpt lat="44.26042" lon="7.67486">
        <ele>908.58</ele>
        <time>2021-01-09T13:07:58Z</time>
      </trkpt>
      <trkpt lat="44.26045" lon="7.67479">
        <ele>907.14</ele>
        <time>2021-01-09T13:08:00Z</time>
      </trkpt>
      <trkpt lat="44.26046" lon="7.67475">
        <ele>906.18</ele>
        <time>2021-01-09T13:08:01Z</time>
      </trkpt>
      <trkpt lat="44.26045" lon="7.6747">
        <ele>905.7</ele>
        <time>2021-01-09T13:08:02Z</time>
      </trkpt>
      <trkpt lat="44.26045" lon="7.67466">
        <ele>905.7</ele>
        <time>2021-01-09T13:08:03Z</time>
      </trkpt>
      <trkpt lat="44.26046" lon="7.67463">
        <ele>905.7</ele>
        <time>2021-01-09T13:08:04Z</time>
      </trkpt>
      <trkpt lat="44.26046" lon="7.67458">
        <ele>905.22</ele>
        <time>2021-01-09T13:08:05Z</time>
      </trkpt>
      <trkpt lat="44.26047" lon="7.67447">
        <ele>905.22</ele>
        <time>2021-01-09T13:08:15Z</time>
      </trkpt>
      <trkpt lat="44.26046" lon="7.6744">
        <ele>902.33</ele>
        <time>2021-01-09T13:08:27Z</time>
      </trkpt>
      <trkpt lat="44.26042" lon="7.67436">
        <ele>901.85</ele>
        <time>2021-01-09T13:08:38Z</time>
      </trkpt>
      <trkpt lat="44.26038" lon="7.67428">
        <ele>904.26</ele>
        <time>2021-01-09T13:08:52Z</time>
      </trkpt>
      <trkpt lat="44.26037" lon="7.67417">
        <ele>904.74</ele>
        <time>2021-01-09T13:09:07Z</time>
      </trkpt>
      <trkpt lat="44.26045" lon="7.674">
        <ele>906.66</ele>
        <time>2021-01-09T13:09:17Z</time>
      </trkpt>
      <trkpt lat="44.26043" lon="7.67396">
        <ele>906.18</ele>
        <time>2021-01-09T13:09:29Z</time>
      </trkpt>
      <trkpt lat="44.26047" lon="7.67399">
        <ele>908.1</ele>
        <time>2021-01-09T13:09:46Z</time>
      </trkpt>
      <trkpt lat="44.26047" lon="7.67394">
        <ele>908.1</ele>
        <time>2021-01-09T13:10:01Z</time>
      </trkpt>
      <trkpt lat="44.26046" lon="7.67378">
        <ele>905.22</ele>
        <time>2021-01-09T13:10:06Z</time>
      </trkpt>
      <trkpt lat="44.26045" lon="7.67371">
        <ele>899.45</ele>
        <time>2021-01-09T13:10:11Z</time>
      </trkpt>
      <trkpt lat="44.26046" lon="7.67365">
        <ele>895.61</ele>
        <time>2021-01-09T13:10:16Z</time>
      </trkpt>
      <trkpt lat="44.26047" lon="7.67363">
        <ele>895.12</ele>
        <time>2021-01-09T13:10:17Z</time>
      </trkpt>
      <trkpt lat="44.26049" lon="7.67359">
        <ele>894.16</ele>
        <time>2021-01-09T13:10:18Z</time>
      </trkpt>
      <trkpt lat="44.26048" lon="7.67356">
        <ele>892.24</ele>
        <time>2021-01-09T13:10:25Z</time>
      </trkpt>
      <trkpt lat="44.26046" lon="7.6735">
        <ele>888.4</ele>
        <time>2021-01-09T13:10:39Z</time>
      </trkpt>
      <trkpt lat="44.26048" lon="7.67343">
        <ele>887.91</ele>
        <time>2021-01-09T13:10:50Z</time>
      </trkpt>
      <trkpt lat="44.26059" lon="7.67329">
        <ele>887.43</ele>
        <time>2021-01-09T13:10:55Z</time>
      </trkpt>
      <trkpt lat="44.2606" lon="7.67324">
        <ele>887.43</ele>
        <time>2021-01-09T13:10:56Z</time>
      </trkpt>
      <trkpt lat="44.26062" lon="7.67319">
        <ele>887.43</ele>
        <time>2021-01-09T13:10:57Z</time>
      </trkpt>
      <trkpt lat="44.26063" lon="7.67314">
        <ele>887.43</ele>
        <time>2021-01-09T13:10:58Z</time>
      </trkpt>
      <trkpt lat="44.26064" lon="7.67308">
        <ele>886.95</ele>
        <time>2021-01-09T13:10:59Z</time>
      </trkpt>
      <trkpt lat="44.26066" lon="7.67302">
        <ele>886.47</ele>
        <time>2021-01-09T13:11:00Z</time>
      </trkpt>
      <trkpt lat="44.26067" lon="7.67297">
        <ele>885.99</ele>
        <time>2021-01-09T13:11:01Z</time>
      </trkpt>
      <trkpt lat="44.26068" lon="7.67293">
        <ele>885.03</ele>
        <time>2021-01-09T13:11:02Z</time>
      </trkpt>
      <trkpt lat="44.26069" lon="7.67288">
        <ele>884.55</ele>
        <time>2021-01-09T13:11:03Z</time>
      </trkpt>
      <trkpt lat="44.26069" lon="7.67282">
        <ele>883.59</ele>
        <time>2021-01-09T13:11:04Z</time>
      </trkpt>
      <trkpt lat="44.26069" lon="7.67275">
        <ele>883.11</ele>
        <time>2021-01-09T13:11:05Z</time>
      </trkpt>
      <trkpt lat="44.26068" lon="7.67268">
        <ele>883.11</ele>
        <time>2021-01-09T13:11:06Z</time>
      </trkpt>
      <trkpt lat="44.26071" lon="7.67255">
        <ele>882.63</ele>
        <time>2021-01-09T13:11:09Z</time>
      </trkpt>
      <trkpt lat="44.26074" lon="7.67253">
        <ele>882.63</ele>
        <time>2021-01-09T13:11:10Z</time>
      </trkpt>
      <trkpt lat="44.26077" lon="7.67252">
        <ele>882.63</ele>
        <time>2021-01-09T13:11:11Z</time>
      </trkpt>
      <trkpt lat="44.26079" lon="7.67251">
        <ele>882.63</ele>
        <time>2021-01-09T13:11:12Z</time>
      </trkpt>
      <trkpt lat="44.26083" lon="7.67251">
        <ele>883.11</ele>
        <time>2021-01-09T13:11:29Z</time>
      </trkpt>
      <trkpt lat="44.26088" lon="7.6725">
        <ele>880.22</ele>
        <time>2021-01-09T13:11:44Z</time>
      </trkpt>
      <trkpt lat="44.26092" lon="7.67241">
        <ele>878.3</ele>
        <time>2021-01-09T13:11:49Z</time>
      </trkpt>
      <trkpt lat="44.26093" lon="7.6724">
        <ele>877.34</ele>
        <time>2021-01-09T13:11:50Z</time>
      </trkpt>
      <trkpt lat="44.26101" lon="7.67212">
        <ele>868.69</ele>
        <time>2021-01-09T13:12:00Z</time>
      </trkpt>
      <trkpt lat="44.26113" lon="7.67187">
        <ele>867.73</ele>
        <time>2021-01-09T13:12:08Z</time>
      </trkpt>
      <trkpt lat="44.26122" lon="7.67177">
        <ele>867.25</ele>
        <time>2021-01-09T13:12:11Z</time>
      </trkpt>
      <trkpt lat="44.26125" lon="7.67172">
        <ele>866.77</ele>
        <time>2021-01-09T13:12:12Z</time>
      </trkpt>
      <trkpt lat="44.26128" lon="7.67168">
        <ele>866.77</ele>
        <time>2021-01-09T13:12:13Z</time>
      </trkpt>
      <trkpt lat="44.2615" lon="7.67139">
        <ele>865.8</ele>
        <time>2021-01-09T13:12:21Z</time>
      </trkpt>
      <trkpt lat="44.26162" lon="7.67118">
        <ele>865.32</ele>
        <time>2021-01-09T13:12:26Z</time>
      </trkpt>
      <trkpt lat="44.26171" lon="7.67105">
        <ele>865.32</ele>
        <time>2021-01-09T13:12:29Z</time>
      </trkpt>
      <trkpt lat="44.2618" lon="7.67089">
        <ele>865.32</ele>
        <time>2021-01-09T13:12:32Z</time>
      </trkpt>
      <trkpt lat="44.2619" lon="7.67052">
        <ele>864.36</ele>
        <time>2021-01-09T13:12:41Z</time>
      </trkpt>
      <trkpt lat="44.26191" lon="7.67049">
        <ele>863.4</ele>
        <time>2021-01-09T13:12:50Z</time>
      </trkpt>
      <trkpt lat="44.26192" lon="7.67044">
        <ele>863.88</ele>
        <time>2021-01-09T13:13:03Z</time>
      </trkpt>
      <trkpt lat="44.26193" lon="7.67041">
        <ele>864.36</ele>
        <time>2021-01-09T13:13:08Z</time>
      </trkpt>
      <trkpt lat="44.26184" lon="7.67036">
        <ele>860.52</ele>
        <time>2021-01-09T13:13:09Z</time>
      </trkpt>
      <trkpt lat="44.26179" lon="7.67032">
        <ele>858.11</ele>
        <time>2021-01-09T13:13:20Z</time>
      </trkpt>
      <trkpt lat="44.26179" lon="7.6703">
        <ele>857.15</ele>
        <time>2021-01-09T13:13:22Z</time>
      </trkpt>
      <trkpt lat="44.26179" lon="7.67028">
        <ele>856.19</ele>
        <time>2021-01-09T13:13:23Z</time>
      </trkpt>
      <trkpt lat="44.2618" lon="7.67027">
        <ele>855.71</ele>
        <time>2021-01-09T13:13:24Z</time>
      </trkpt>
      <trkpt lat="44.2617" lon="7.6702">
        <ele>850.9</ele>
        <time>2021-01-09T13:13:35Z</time>
      </trkpt>
      <trkpt lat="44.26169" lon="7.67018">
        <ele>850.42</ele>
        <time>2021-01-09T13:13:37Z</time>
      </trkpt>
      <trkpt lat="44.26169" lon="7.67015">
        <ele>849.94</ele>
        <time>2021-01-09T13:13:38Z</time>
      </trkpt>
      <trkpt lat="44.26173" lon="7.66992">
        <ele>840.81</ele>
        <time>2021-01-09T13:13:52Z</time>
      </trkpt>
      <trkpt lat="44.26175" lon="7.66974">
        <ele>836.48</ele>
        <time>2021-01-09T13:14:04Z</time>
      </trkpt>
      <trkpt lat="44.26178" lon="7.6696">
        <ele>833.6</ele>
        <time>2021-01-09T13:14:11Z</time>
      </trkpt>
      <trkpt lat="44.26179" lon="7.66956">
        <ele>833.6</ele>
        <time>2021-01-09T13:14:16Z</time>
      </trkpt>
      <trkpt lat="44.26179" lon="7.66954">
        <ele>833.12</ele>
        <time>2021-01-09T13:14:17Z</time>
      </trkpt>
      <trkpt lat="44.26179" lon="7.66952">
        <ele>833.12</ele>
        <time>2021-01-09T13:14:18Z</time>
      </trkpt>
      <trkpt lat="44.26179" lon="7.66949">
        <ele>833.12</ele>
        <time>2021-01-09T13:14:19Z</time>
      </trkpt>
      <trkpt lat="44.2618" lon="7.66945">
        <ele>833.12</ele>
        <time>2021-01-09T13:14:20Z</time>
      </trkpt>
      <trkpt lat="44.26181" lon="7.66942">
        <ele>832.64</ele>
        <time>2021-01-09T13:14:21Z</time>
      </trkpt>
      <trkpt lat="44.26182" lon="7.66939">
        <ele>832.16</ele>
        <time>2021-01-09T13:14:22Z</time>
      </trkpt>
      <trkpt lat="44.26182" lon="7.66937">
        <ele>832.16</ele>
        <time>2021-01-09T13:14:23Z</time>
      </trkpt>
      <trkpt lat="44.26184" lon="7.6693">
        <ele>828.79</ele>
        <time>2021-01-09T13:14:36Z</time>
      </trkpt>
      <trkpt lat="44.26184" lon="7.66927">
        <ele>828.31</ele>
        <time>2021-01-09T13:14:50Z</time>
      </trkpt>
      <trkpt lat="44.26188" lon="7.66915">
        <ele>825.43</ele>
        <time>2021-01-09T13:15:02Z</time>
      </trkpt>
      <trkpt lat="44.26189" lon="7.66909">
        <ele>822.55</ele>
        <time>2021-01-09T13:15:13Z</time>
      </trkpt>
      <trkpt lat="44.26201" lon="7.6692">
        <ele>823.51</ele>
        <time>2021-01-09T13:15:33Z</time>
      </trkpt>
      <trkpt lat="44.26202" lon="7.66915">
        <ele>823.99</ele>
        <time>2021-01-09T13:15:46Z</time>
      </trkpt>
      <trkpt lat="44.26203" lon="7.66909">
        <ele>822.06</ele>
        <time>2021-01-09T13:15:49Z</time>
      </trkpt>
      <trkpt lat="44.26199" lon="7.66882">
        <ele>816.78</ele>
        <time>2021-01-09T13:16:04Z</time>
      </trkpt>
      <trkpt lat="44.26201" lon="7.66859">
        <ele>814.85</ele>
        <time>2021-01-09T13:16:18Z</time>
      </trkpt>
      <trkpt lat="44.26207" lon="7.66834">
        <ele>812.93</ele>
        <time>2021-01-09T13:16:34Z</time>
      </trkpt>
      <trkpt lat="44.2621" lon="7.6681">
        <ele>809.09</ele>
        <time>2021-01-09T13:16:47Z</time>
      </trkpt>
      <trkpt lat="44.26212" lon="7.66782">
        <ele>800.92</ele>
        <time>2021-01-09T13:17:02Z</time>
      </trkpt>
      <trkpt lat="44.26209" lon="7.66759">
        <ele>792.74</ele>
        <time>2021-01-09T13:17:17Z</time>
      </trkpt>
      <trkpt lat="44.26195" lon="7.66719">
        <ele>786.02</ele>
        <time>2021-01-09T13:17:35Z</time>
      </trkpt>
      <trkpt lat="44.26193" lon="7.66713">
        <ele>783.13</ele>
        <time>2021-01-09T13:17:39Z</time>
      </trkpt>
      <trkpt lat="44.26189" lon="7.66689">
        <ele>779.29</ele>
        <time>2021-01-09T13:17:55Z</time>
      </trkpt>
      <trkpt lat="44.26189" lon="7.66662">
        <ele>779.77</ele>
        <time>2021-01-09T13:18:10Z</time>
      </trkpt>
      <trkpt lat="44.26187" lon="7.66644">
        <ele>780.25</ele>
        <time>2021-01-09T13:18:27Z</time>
      </trkpt>
      <trkpt lat="44.26191" lon="7.66632">
        <ele>779.29</ele>
        <time>2021-01-09T13:18:36Z</time>
      </trkpt>
      <trkpt lat="44.26191" lon="7.6663">
        <ele>778.81</ele>
        <time>2021-01-09T13:18:37Z</time>
      </trkpt>
      <trkpt lat="44.26192" lon="7.66627">
        <ele>779.29</ele>
        <time>2021-01-09T13:18:39Z</time>
      </trkpt>
      <trkpt lat="44.26193" lon="7.66624">
        <ele>779.29</ele>
        <time>2021-01-09T13:18:41Z</time>
      </trkpt>
      <trkpt lat="44.26196" lon="7.66616">
        <ele>779.77</ele>
        <time>2021-01-09T13:18:46Z</time>
      </trkpt>
      <trkpt lat="44.26197" lon="7.66598">
        <ele>779.77</ele>
        <time>2021-01-09T13:18:59Z</time>
      </trkpt>
      <trkpt lat="44.26203" lon="7.66572">
        <ele>779.29</ele>
        <time>2021-01-09T13:19:14Z</time>
      </trkpt>
      <trkpt lat="44.26205" lon="7.66568">
        <ele>779.29</ele>
        <time>2021-01-09T13:19:17Z</time>
      </trkpt>
      <trkpt lat="44.26219" lon="7.66557">
        <ele>778.32</ele>
        <time>2021-01-09T13:19:31Z</time>
      </trkpt>
      <trkpt lat="44.2622" lon="7.66556">
        <ele>778.32</ele>
        <time>2021-01-09T13:19:32Z</time>
      </trkpt>
      <trkpt lat="44.26234" lon="7.66549">
        <ele>776.4</ele>
        <time>2021-01-09T13:19:47Z</time>
      </trkpt>
      <trkpt lat="44.26251" lon="7.66545">
        <ele>774</ele>
        <time>2021-01-09T13:20:02Z</time>
      </trkpt>
      <trkpt lat="44.26266" lon="7.66535">
        <ele>770.63</ele>
        <time>2021-01-09T13:20:15Z</time>
      </trkpt>
      <trkpt lat="44.26288" lon="7.66515">
        <ele>768.71</ele>
        <time>2021-01-09T13:20:35Z</time>
      </trkpt>
      <trkpt lat="44.263" lon="7.66505">
        <ele>768.23</ele>
        <time>2021-01-09T13:20:50Z</time>
      </trkpt>
      <trkpt lat="44.26302" lon="7.66505">
        <ele>768.23</ele>
        <time>2021-01-09T13:21:06Z</time>
      </trkpt>
      <trkpt lat="44.26302" lon="7.66505">
        <ele>767.27</ele>
        <time>2021-01-09T13:21:19Z</time>
      </trkpt>
      <trkpt lat="44.26298" lon="7.66506">
        <ele>765.83</ele>
        <time>2021-01-09T13:21:31Z</time>
      </trkpt>
      <trkpt lat="44.26295" lon="7.66506">
        <ele>765.35</ele>
        <time>2021-01-09T13:21:44Z</time>
      </trkpt>
      <trkpt lat="44.26299" lon="7.66504">
        <ele>764.87</ele>
        <time>2021-01-09T13:22:03Z</time>
      </trkpt>
      <trkpt lat="44.26297" lon="7.6651">
        <ele>766.31</ele>
        <time>2021-01-09T13:22:21Z</time>
      </trkpt>
      <trkpt lat="44.26298" lon="7.6651">
        <ele>766.31</ele>
        <time>2021-01-09T13:22:34Z</time>
      </trkpt>
      <trkpt lat="44.26298" lon="7.66506">
        <ele>763.9</ele>
        <time>2021-01-09T13:22:44Z</time>
      </trkpt>
      <trkpt lat="44.26298" lon="7.66505">
        <ele>767.27</ele>
        <time>2021-01-09T13:23:10Z</time>
      </trkpt>
      <trkpt lat="44.26298" lon="7.66502">
        <ele>765.83</ele>
        <time>2021-01-09T13:23:40Z</time>
      </trkpt>
      <trkpt lat="44.26297" lon="7.66502">
        <ele>766.31</ele>
        <time>2021-01-09T13:23:50Z</time>
      </trkpt>
    </trkseg>
  </trk>
</gpx>